<?xml version="1.0" encoding="UTF-8" standalone="no" ?>
<gpx xmlns="http://www.topografix.com/GPX/1/1" xmlns:xsi="http://www.w3.org/2001/XMLSchema-instance" xsi:schemaLocation="http://www.topografix.com/GPX/1/1 http://www.topografix.com/GPX/1/1/gpx.xsd" version="1.1" creator="VisuGPX - https://www.visugpx.com">
  <metadata>
    <name>64 - PEDESTRE - GR 108 de Gabas à Eaux-Chaudes entretien balisage</name>
    <desc><![CDATA[Balisage en descendant et modif tracé]]></desc>
  </metadata>
  <wpt lat="42.89546" lon="-0.43041">
    <ele>1013.8283691406</ele>
    <name><![CDATA[002]]></name>
    <desc><![CDATA[30-MAR-15 10:05:09]]></desc>
    <cmt><![CDATA[30-MAR-15 10:05:09]]></cmt>
  </wpt>
  <wpt lat="42.89597" lon="-0.43105">
    <ele>1008.30078125</ele>
    <name><![CDATA[003]]></name>
    <desc><![CDATA[30-MAR-15 10:08:12]]></desc>
    <cmt><![CDATA[30-MAR-15 10:08:12]]></cmt>
  </wpt>
  <wpt lat="42.89688" lon="-0.43162">
    <ele>996.04418945312</ele>
    <name><![CDATA[004]]></name>
    <desc><![CDATA[30-MAR-15 10:10:18]]></desc>
    <cmt><![CDATA[30-MAR-15 10:10:18]]></cmt>
  </wpt>
  <wpt lat="42.90548" lon="-0.42856">
    <ele>970.08862304688</ele>
    <name><![CDATA[005]]></name>
    <desc><![CDATA[30-MAR-15 11:08:26]]></desc>
    <cmt><![CDATA[30-MAR-15 11:08:26]]></cmt>
  </wpt>
  <wpt lat="42.9128" lon="-0.43334">
    <ele>865.54614257812</ele>
    <name><![CDATA[006]]></name>
    <desc><![CDATA[30-MAR-15 13:13:56]]></desc>
    <cmt><![CDATA[30-MAR-15 13:13:56]]></cmt>
  </wpt>
  <wpt lat="42.9178" lon="-0.43849">
    <ele>817.240234375</ele>
    <name><![CDATA[007]]></name>
    <desc><![CDATA[30-MAR-15 13:31:48]]></desc>
    <cmt><![CDATA[30-MAR-15 13:31:48]]></cmt>
  </wpt>
  <wpt lat="42.91893" lon="-0.4417">
    <ele>801.13842773438</ele>
    <name><![CDATA[008]]></name>
    <desc><![CDATA[30-MAR-15 13:43:31]]></desc>
    <cmt><![CDATA[30-MAR-15 13:43:31]]></cmt>
  </wpt>
  <wpt lat="42.94874" lon="-0.44377">
    <ele>712.93798828125</ele>
    <name><![CDATA[009]]></name>
    <desc><![CDATA[30-MAR-15 16:17:33]]></desc>
    <cmt><![CDATA[30-MAR-15 16:17:33]]></cmt>
  </wpt>
  <wpt lat="42.94871" lon="-0.44377">
    <ele>712.93798828125</ele>
    <name><![CDATA[010]]></name>
    <desc><![CDATA[30-MAR-15 16:17:38]]></desc>
    <cmt><![CDATA[30-MAR-15 16:17:38]]></cmt>
  </wpt>
  <wpt lat="42.94865" lon="-0.44384">
    <ele>712.93798828125</ele>
    <name><![CDATA[A11]]></name>
    <desc><![CDATA[30-MAR-15 16:17:43]]></desc>
    <cmt><![CDATA[30-MAR-15 16:17:43]]></cmt>
  </wpt>
  <trk>
    <name><![CDATA[ACTIVE LOG 002]]></name>
    <trkseg>
      <trkpt lat="42.88964" lon="-0.4276">
        <ele>972.0302734375</ele>
        <time>2015-03-30T07:42:35Z</time>
      </trkpt>
      <trkpt lat="42.88964" lon="-0.42762">
        <ele>972.99169921875</ele>
        <time>2015-03-30T07:42:36Z</time>
      </trkpt>
      <trkpt lat="42.88965" lon="-0.42763">
        <ele>976.8369140625</ele>
        <time>2015-03-30T07:42:37Z</time>
      </trkpt>
      <trkpt lat="42.88965" lon="-0.42766">
        <ele>980.68212890625</ele>
        <time>2015-03-30T07:42:39Z</time>
      </trkpt>
      <trkpt lat="42.88966" lon="-0.42767">
        <ele>984.04663085938</ele>
        <time>2015-03-30T07:42:40Z</time>
      </trkpt>
      <trkpt lat="42.88966" lon="-0.42769">
        <ele>987.89184570312</ele>
        <time>2015-03-30T07:42:42Z</time>
      </trkpt>
      <trkpt lat="42.88967" lon="-0.42771">
        <ele>991.25659179688</ele>
        <time>2015-03-30T07:42:44Z</time>
      </trkpt>
      <trkpt lat="42.88967" lon="-0.42772">
        <ele>995.58251953125</ele>
        <time>2015-03-30T07:42:46Z</time>
      </trkpt>
      <trkpt lat="42.88969" lon="-0.4278">
        <ele>997.0244140625</ele>
        <time>2015-03-30T07:42:49Z</time>
      </trkpt>
      <trkpt lat="42.8897" lon="-0.42782">
        <ele>1000.3891601562</ele>
        <time>2015-03-30T07:42:50Z</time>
      </trkpt>
      <trkpt lat="42.88971" lon="-0.42784">
        <ele>1000.8696289062</ele>
        <time>2015-03-30T07:42:51Z</time>
      </trkpt>
      <trkpt lat="42.88971" lon="-0.42783">
        <ele>1000.8696289062</ele>
        <time>2015-03-30T07:42:52Z</time>
      </trkpt>
      <trkpt lat="42.8897" lon="-0.42785">
        <ele>1002.3115234375</ele>
        <time>2015-03-30T07:42:55Z</time>
      </trkpt>
      <trkpt lat="42.88969" lon="-0.42782">
        <ele>1005.1958007812</ele>
        <time>2015-03-30T07:43:01Z</time>
      </trkpt>
      <trkpt lat="42.88968" lon="-0.42779">
        <ele>1008.0798339844</ele>
        <time>2015-03-30T07:43:07Z</time>
      </trkpt>
      <trkpt lat="42.88968" lon="-0.42779">
        <ele>1009.041015625</ele>
        <time>2015-03-30T07:43:09Z</time>
      </trkpt>
      <trkpt lat="42.88969" lon="-0.42778">
        <ele>1012.4055175781</ele>
        <time>2015-03-30T07:43:15Z</time>
      </trkpt>
      <trkpt lat="42.88969" lon="-0.42777">
        <ele>1014.8088378906</ele>
        <time>2015-03-30T07:43:20Z</time>
      </trkpt>
      <trkpt lat="42.88968" lon="-0.42779">
        <ele>1018.6540527344</ele>
        <time>2015-03-30T07:43:26Z</time>
      </trkpt>
      <trkpt lat="42.88967" lon="-0.42783">
        <ele>1021.5380859375</ele>
        <time>2015-03-30T07:43:34Z</time>
      </trkpt>
      <trkpt lat="42.8897" lon="-0.42784">
        <ele>1024.4221191406</ele>
        <time>2015-03-30T07:43:43Z</time>
      </trkpt>
      <trkpt lat="42.88972" lon="-0.42784">
        <ele>1024.9028320312</ele>
        <time>2015-03-30T07:43:45Z</time>
      </trkpt>
      <trkpt lat="42.88974" lon="-0.42785">
        <ele>1025.8640136719</ele>
        <time>2015-03-30T07:43:47Z</time>
      </trkpt>
      <trkpt lat="42.88977" lon="-0.42786">
        <ele>1026.3447265625</ele>
        <time>2015-03-30T07:43:50Z</time>
      </trkpt>
      <trkpt lat="42.88992" lon="-0.42791">
        <ele>1030.6706542969</ele>
        <time>2015-03-30T07:44:04Z</time>
      </trkpt>
      <trkpt lat="42.88993" lon="-0.42791">
        <ele>1030.6706542969</ele>
        <time>2015-03-30T07:44:05Z</time>
      </trkpt>
      <trkpt lat="42.89014" lon="-0.42797">
        <ele>1034.03515625</ele>
        <time>2015-03-30T07:44:23Z</time>
      </trkpt>
      <trkpt lat="42.89035" lon="-0.42807">
        <ele>1034.03515625</ele>
        <time>2015-03-30T07:44:42Z</time>
      </trkpt>
      <trkpt lat="42.89061" lon="-0.42823">
        <ele>1032.1125488281</ele>
        <time>2015-03-30T07:45:06Z</time>
      </trkpt>
      <trkpt lat="42.89084" lon="-0.42839">
        <ele>1030.6706542969</ele>
        <time>2015-03-30T07:45:28Z</time>
      </trkpt>
      <trkpt lat="42.891" lon="-0.42847">
        <ele>1030.6706542969</ele>
        <time>2015-03-30T07:45:47Z</time>
      </trkpt>
      <trkpt lat="42.89111" lon="-0.42852">
        <ele>1029.7092285156</ele>
        <time>2015-03-30T07:46:01Z</time>
      </trkpt>
      <trkpt lat="42.89134" lon="-0.42864">
        <ele>1026.3447265625</ele>
        <time>2015-03-30T07:46:26Z</time>
      </trkpt>
      <trkpt lat="42.89137" lon="-0.42866">
        <ele>1027.7866210938</ele>
        <time>2015-03-30T07:46:48Z</time>
      </trkpt>
      <trkpt lat="42.8913" lon="-0.42869">
        <ele>1028.2673339844</ele>
        <time>2015-03-30T07:47:06Z</time>
      </trkpt>
      <trkpt lat="42.89129" lon="-0.4287">
        <ele>1028.2673339844</ele>
        <time>2015-03-30T07:47:36Z</time>
      </trkpt>
      <trkpt lat="42.89131" lon="-0.42868">
        <ele>1027.3061523438</ele>
        <time>2015-03-30T07:49:13Z</time>
      </trkpt>
      <trkpt lat="42.89138" lon="-0.42871">
        <ele>1027.7866210938</ele>
        <time>2015-03-30T07:49:58Z</time>
      </trkpt>
      <trkpt lat="42.8915" lon="-0.42876">
        <ele>1026.8254394531</ele>
        <time>2015-03-30T07:50:11Z</time>
      </trkpt>
      <trkpt lat="42.89155" lon="-0.42875">
        <ele>1026.8254394531</ele>
        <time>2015-03-30T07:50:15Z</time>
      </trkpt>
      <trkpt lat="42.89182" lon="-0.4289">
        <ele>1024.9028320312</ele>
        <time>2015-03-30T07:50:38Z</time>
      </trkpt>
      <trkpt lat="42.892" lon="-0.42908">
        <ele>1024.4221191406</ele>
        <time>2015-03-30T07:50:56Z</time>
      </trkpt>
      <trkpt lat="42.89206" lon="-0.42912">
        <ele>1024.4221191406</ele>
        <time>2015-03-30T07:51:07Z</time>
      </trkpt>
      <trkpt lat="42.89224" lon="-0.42935">
        <ele>1023.4609375</ele>
        <time>2015-03-30T07:51:26Z</time>
      </trkpt>
      <trkpt lat="42.8925" lon="-0.42953">
        <ele>1021.5380859375</ele>
        <time>2015-03-30T07:51:48Z</time>
      </trkpt>
      <trkpt lat="42.89261" lon="-0.42956">
        <ele>1020.0961914062</ele>
        <time>2015-03-30T07:51:56Z</time>
      </trkpt>
      <trkpt lat="42.89295" lon="-0.42963">
        <ele>1019.134765625</ele>
        <time>2015-03-30T07:52:21Z</time>
      </trkpt>
      <trkpt lat="42.8932" lon="-0.42959">
        <ele>1019.134765625</ele>
        <time>2015-03-30T07:52:40Z</time>
      </trkpt>
      <trkpt lat="42.89348" lon="-0.42957">
        <ele>1019.134765625</ele>
        <time>2015-03-30T07:53:02Z</time>
      </trkpt>
      <trkpt lat="42.8938" lon="-0.42963">
        <ele>1017.6926269531</ele>
        <time>2015-03-30T07:53:26Z</time>
      </trkpt>
      <trkpt lat="42.89391" lon="-0.42964">
        <ele>1017.2121582031</ele>
        <time>2015-03-30T07:53:35Z</time>
      </trkpt>
      <trkpt lat="42.89397" lon="-0.42965">
        <ele>1017.2121582031</ele>
        <time>2015-03-30T07:53:47Z</time>
      </trkpt>
      <trkpt lat="42.89415" lon="-0.42967">
        <ele>1017.2121582031</ele>
        <time>2015-03-30T07:54:03Z</time>
      </trkpt>
      <trkpt lat="42.89442" lon="-0.42974">
        <ele>1015.2895507812</ele>
        <time>2015-03-30T07:54:27Z</time>
      </trkpt>
      <trkpt lat="42.89445" lon="-0.42975">
        <ele>1015.2895507812</ele>
        <time>2015-03-30T07:54:41Z</time>
      </trkpt>
      <trkpt lat="42.89444" lon="-0.42975">
        <ele>1014.8088378906</ele>
        <time>2015-03-30T07:54:59Z</time>
      </trkpt>
      <trkpt lat="42.89443" lon="-0.42974">
        <ele>1016.7314453125</ele>
        <time>2015-03-30T07:56:43Z</time>
      </trkpt>
      <trkpt lat="42.8943" lon="-0.42973">
        <ele>1017.6926269531</ele>
        <time>2015-03-30T07:56:55Z</time>
      </trkpt>
      <trkpt lat="42.89428" lon="-0.42976">
        <ele>1017.6926269531</ele>
        <time>2015-03-30T07:56:58Z</time>
      </trkpt>
      <trkpt lat="42.89434" lon="-0.42979">
        <ele>1018.6540527344</ele>
        <time>2015-03-30T07:57:05Z</time>
      </trkpt>
      <trkpt lat="42.89437" lon="-0.4298">
        <ele>1019.134765625</ele>
        <time>2015-03-30T07:57:08Z</time>
      </trkpt>
      <trkpt lat="42.89447" lon="-0.42983">
        <ele>1019.134765625</ele>
        <time>2015-03-30T07:57:22Z</time>
      </trkpt>
      <trkpt lat="42.89454" lon="-0.42985">
        <ele>1019.134765625</ele>
        <time>2015-03-30T07:57:34Z</time>
      </trkpt>
      <trkpt lat="42.89465" lon="-0.42987">
        <ele>1018.1733398438</ele>
        <time>2015-03-30T07:57:49Z</time>
      </trkpt>
      <trkpt lat="42.89487" lon="-0.42991">
        <ele>1017.6926269531</ele>
        <time>2015-03-30T07:58:09Z</time>
      </trkpt>
      <trkpt lat="42.89508" lon="-0.42997">
        <ele>1018.1733398438</ele>
        <time>2015-03-30T07:58:28Z</time>
      </trkpt>
      <trkpt lat="42.89515" lon="-0.42997">
        <ele>1018.6540527344</ele>
        <time>2015-03-30T07:58:44Z</time>
      </trkpt>
      <trkpt lat="42.89517" lon="-0.42998">
        <ele>1018.6540527344</ele>
        <time>2015-03-30T07:58:47Z</time>
      </trkpt>
      <trkpt lat="42.89529" lon="-0.43003">
        <ele>1017.2121582031</ele>
        <time>2015-03-30T07:59:00Z</time>
      </trkpt>
      <trkpt lat="42.89534" lon="-0.43009">
        <ele>1016.7314453125</ele>
        <time>2015-03-30T07:59:25Z</time>
      </trkpt>
      <trkpt lat="42.8954" lon="-0.43022">
        <ele>1015.7702636719</ele>
        <time>2015-03-30T07:59:53Z</time>
      </trkpt>
      <trkpt lat="42.89542" lon="-0.43027">
        <ele>1014.8088378906</ele>
        <time>2015-03-30T08:00:07Z</time>
      </trkpt>
      <trkpt lat="42.89547" lon="-0.43035">
        <ele>1013.8474121094</ele>
        <time>2015-03-30T08:00:22Z</time>
      </trkpt>
      <trkpt lat="42.89546" lon="-0.43036">
        <ele>1013.3669433594</ele>
        <time>2015-03-30T08:01:11Z</time>
      </trkpt>
      <trkpt lat="42.89545" lon="-0.43035">
        <ele>1013.3669433594</ele>
        <time>2015-03-30T08:01:32Z</time>
      </trkpt>
      <trkpt lat="42.89545" lon="-0.43039">
        <ele>1012.4055175781</ele>
        <time>2015-03-30T08:01:51Z</time>
      </trkpt>
      <trkpt lat="42.89543" lon="-0.43038">
        <ele>1012.4055175781</ele>
        <time>2015-03-30T08:02:11Z</time>
      </trkpt>
      <trkpt lat="42.89542" lon="-0.43036">
        <ele>1012.8862304688</ele>
        <time>2015-03-30T08:02:34Z</time>
      </trkpt>
      <trkpt lat="42.89544" lon="-0.43038">
        <ele>1012.8862304688</ele>
        <time>2015-03-30T08:02:52Z</time>
      </trkpt>
      <trkpt lat="42.89546" lon="-0.43036">
        <ele>1013.3669433594</ele>
        <time>2015-03-30T08:03:14Z</time>
      </trkpt>
      <trkpt lat="42.89545" lon="-0.43033">
        <ele>1013.8474121094</ele>
        <time>2015-03-30T08:03:46Z</time>
      </trkpt>
      <trkpt lat="42.89547" lon="-0.43035">
        <ele>1014.328125</ele>
        <time>2015-03-30T08:04:03Z</time>
      </trkpt>
      <trkpt lat="42.89549" lon="-0.43036">
        <ele>1014.328125</ele>
        <time>2015-03-30T08:04:29Z</time>
      </trkpt>
      <trkpt lat="42.89549" lon="-0.43038">
        <ele>1014.328125</ele>
        <time>2015-03-30T08:04:56Z</time>
      </trkpt>
      <trkpt lat="42.89547" lon="-0.4304">
        <ele>1012.8862304688</ele>
        <time>2015-03-30T08:05:07Z</time>
      </trkpt>
      <trkpt lat="42.89547" lon="-0.43044">
        <ele>1010.4829101562</ele>
        <time>2015-03-30T08:05:29Z</time>
      </trkpt>
      <trkpt lat="42.89547" lon="-0.43044">
        <ele>1016.7314453125</ele>
        <time>2015-03-30T08:05:30Z</time>
      </trkpt>
      <trkpt lat="42.89547" lon="-0.43044">
        <ele>1014.328125</ele>
        <time>2015-03-30T08:05:31Z</time>
      </trkpt>
      <trkpt lat="42.89547" lon="-0.4304">
        <ele>1014.328125</ele>
        <time>2015-03-30T08:05:50Z</time>
      </trkpt>
      <trkpt lat="42.89551" lon="-0.43049">
        <ele>1012.8862304688</ele>
        <time>2015-03-30T08:06:02Z</time>
      </trkpt>
      <trkpt lat="42.89555" lon="-0.4305">
        <ele>1011.9250488281</ele>
        <time>2015-03-30T08:06:21Z</time>
      </trkpt>
      <trkpt lat="42.89558" lon="-0.43058">
        <ele>1010.4829101562</ele>
        <time>2015-03-30T08:06:34Z</time>
      </trkpt>
      <trkpt lat="42.89562" lon="-0.43071">
        <ele>1010.0021972656</ele>
        <time>2015-03-30T08:06:46Z</time>
      </trkpt>
      <trkpt lat="42.89566" lon="-0.4308">
        <ele>1009.5217285156</ele>
        <time>2015-03-30T08:06:54Z</time>
      </trkpt>
      <trkpt lat="42.89575" lon="-0.43092">
        <ele>1009.5217285156</ele>
        <time>2015-03-30T08:07:07Z</time>
      </trkpt>
      <trkpt lat="42.89586" lon="-0.43099">
        <ele>1008.0798339844</ele>
        <time>2015-03-30T08:07:23Z</time>
      </trkpt>
      <trkpt lat="42.89586" lon="-0.43101">
        <ele>1007.5991210938</ele>
        <time>2015-03-30T08:07:34Z</time>
      </trkpt>
      <trkpt lat="42.89594" lon="-0.43105">
        <ele>1007.1184082031</ele>
        <time>2015-03-30T08:07:47Z</time>
      </trkpt>
      <trkpt lat="42.89596" lon="-0.43106">
        <ele>1007.5991210938</ele>
        <time>2015-03-30T08:08:00Z</time>
      </trkpt>
      <trkpt lat="42.89598" lon="-0.43104">
        <ele>1008.0798339844</ele>
        <time>2015-03-30T08:08:17Z</time>
      </trkpt>
      <trkpt lat="42.89598" lon="-0.43104">
        <ele>1006.6376953125</ele>
        <time>2015-03-30T08:08:21Z</time>
      </trkpt>
      <trkpt lat="42.89598" lon="-0.43104">
        <ele>1008.0798339844</ele>
        <time>2015-03-30T08:08:23Z</time>
      </trkpt>
      <trkpt lat="42.89604" lon="-0.43109">
        <ele>1007.1184082031</ele>
        <time>2015-03-30T08:08:37Z</time>
      </trkpt>
      <trkpt lat="42.89609" lon="-0.43117">
        <ele>1006.6376953125</ele>
        <time>2015-03-30T08:08:44Z</time>
      </trkpt>
      <trkpt lat="42.89625" lon="-0.43126">
        <ele>1005.6765136719</ele>
        <time>2015-03-30T08:08:57Z</time>
      </trkpt>
      <trkpt lat="42.89633" lon="-0.43129">
        <ele>1004.2346191406</ele>
        <time>2015-03-30T08:09:04Z</time>
      </trkpt>
      <trkpt lat="42.8964" lon="-0.43133">
        <ele>1003.7536621094</ele>
        <time>2015-03-30T08:09:10Z</time>
      </trkpt>
      <trkpt lat="42.8965" lon="-0.43141">
        <ele>1000.8696289062</ele>
        <time>2015-03-30T08:09:22Z</time>
      </trkpt>
      <trkpt lat="42.89657" lon="-0.43146">
        <ele>1000.8696289062</ele>
        <time>2015-03-30T08:09:28Z</time>
      </trkpt>
      <trkpt lat="42.89663" lon="-0.43149">
        <ele>1000.3891601562</ele>
        <time>2015-03-30T08:09:33Z</time>
      </trkpt>
      <trkpt lat="42.89676" lon="-0.43157">
        <ele>997.98583984375</ele>
        <time>2015-03-30T08:09:47Z</time>
      </trkpt>
      <trkpt lat="42.89686" lon="-0.43161">
        <ele>995.58251953125</ele>
        <time>2015-03-30T08:10:01Z</time>
      </trkpt>
      <trkpt lat="42.89688" lon="-0.43162">
        <ele>994.62109375</ele>
        <time>2015-03-30T08:10:12Z</time>
      </trkpt>
      <trkpt lat="42.89694" lon="-0.43162">
        <ele>993.65991210938</ele>
        <time>2015-03-30T08:10:38Z</time>
      </trkpt>
      <trkpt lat="42.89707" lon="-0.43166">
        <ele>992.21801757812</ele>
        <time>2015-03-30T08:11:00Z</time>
      </trkpt>
      <trkpt lat="42.89713" lon="-0.43169">
        <ele>992.21801757812</ele>
        <time>2015-03-30T08:11:15Z</time>
      </trkpt>
      <trkpt lat="42.89719" lon="-0.43174">
        <ele>991.25659179688</ele>
        <time>2015-03-30T08:11:27Z</time>
      </trkpt>
      <trkpt lat="42.89719" lon="-0.43176">
        <ele>991.7373046875</ele>
        <time>2015-03-30T08:11:45Z</time>
      </trkpt>
      <trkpt lat="42.89719" lon="-0.43176">
        <ele>991.7373046875</ele>
        <time>2015-03-30T08:12:05Z</time>
      </trkpt>
      <trkpt lat="42.8972" lon="-0.43176">
        <ele>991.7373046875</ele>
        <time>2015-03-30T08:12:37Z</time>
      </trkpt>
      <trkpt lat="42.89726" lon="-0.43179">
        <ele>991.25659179688</ele>
        <time>2015-03-30T08:12:45Z</time>
      </trkpt>
      <trkpt lat="42.8973" lon="-0.43183">
        <ele>991.25659179688</ele>
        <time>2015-03-30T08:12:50Z</time>
      </trkpt>
      <trkpt lat="42.89748" lon="-0.43198">
        <ele>991.25659179688</ele>
        <time>2015-03-30T08:13:10Z</time>
      </trkpt>
      <trkpt lat="42.89759" lon="-0.4321">
        <ele>990.29541015625</ele>
        <time>2015-03-30T08:13:21Z</time>
      </trkpt>
      <trkpt lat="42.89761" lon="-0.43211">
        <ele>990.29541015625</ele>
        <time>2015-03-30T08:13:24Z</time>
      </trkpt>
      <trkpt lat="42.89766" lon="-0.43214">
        <ele>990.29541015625</ele>
        <time>2015-03-30T08:13:32Z</time>
      </trkpt>
      <trkpt lat="42.89773" lon="-0.43217">
        <ele>989.81469726562</ele>
        <time>2015-03-30T08:13:38Z</time>
      </trkpt>
      <trkpt lat="42.89793" lon="-0.43236">
        <ele>988.37280273438</ele>
        <time>2015-03-30T08:13:59Z</time>
      </trkpt>
      <trkpt lat="42.89802" lon="-0.43248">
        <ele>987.4111328125</ele>
        <time>2015-03-30T08:14:11Z</time>
      </trkpt>
      <trkpt lat="42.89814" lon="-0.43262">
        <ele>986.44995117188</ele>
        <time>2015-03-30T08:14:26Z</time>
      </trkpt>
      <trkpt lat="42.89813" lon="-0.4327">
        <ele>985.96923828125</ele>
        <time>2015-03-30T08:14:44Z</time>
      </trkpt>
      <trkpt lat="42.89813" lon="-0.43269">
        <ele>985.96923828125</ele>
        <time>2015-03-30T08:14:58Z</time>
      </trkpt>
      <trkpt lat="42.89814" lon="-0.43268">
        <ele>985.48852539062</ele>
        <time>2015-03-30T08:15:16Z</time>
      </trkpt>
      <trkpt lat="42.89814" lon="-0.43268">
        <ele>985.00805664062</ele>
        <time>2015-03-30T08:15:51Z</time>
      </trkpt>
      <trkpt lat="42.89812" lon="-0.43268">
        <ele>985.48852539062</ele>
        <time>2015-03-30T08:16:28Z</time>
      </trkpt>
      <trkpt lat="42.89811" lon="-0.43261">
        <ele>985.48852539062</ele>
        <time>2015-03-30T08:17:06Z</time>
      </trkpt>
      <trkpt lat="42.89814" lon="-0.43261">
        <ele>985.00805664062</ele>
        <time>2015-03-30T08:18:19Z</time>
      </trkpt>
      <trkpt lat="42.89815" lon="-0.43263">
        <ele>985.00805664062</ele>
        <time>2015-03-30T08:18:45Z</time>
      </trkpt>
      <trkpt lat="42.89813" lon="-0.43261">
        <ele>984.04663085938</ele>
        <time>2015-03-30T08:19:16Z</time>
      </trkpt>
      <trkpt lat="42.89814" lon="-0.43257">
        <ele>985.00805664062</ele>
        <time>2015-03-30T08:19:31Z</time>
      </trkpt>
      <trkpt lat="42.89824" lon="-0.43268">
        <ele>984.52734375</ele>
        <time>2015-03-30T08:19:42Z</time>
      </trkpt>
      <trkpt lat="42.89832" lon="-0.43276">
        <ele>984.52734375</ele>
        <time>2015-03-30T08:19:50Z</time>
      </trkpt>
      <trkpt lat="42.89835" lon="-0.43276">
        <ele>984.52734375</ele>
        <time>2015-03-30T08:19:53Z</time>
      </trkpt>
      <trkpt lat="42.89847" lon="-0.43285">
        <ele>983.56591796875</ele>
        <time>2015-03-30T08:20:03Z</time>
      </trkpt>
      <trkpt lat="42.89887" lon="-0.43298">
        <ele>981.64331054688</ele>
        <time>2015-03-30T08:20:35Z</time>
      </trkpt>
      <trkpt lat="42.89893" lon="-0.433">
        <ele>981.16284179688</ele>
        <time>2015-03-30T08:20:40Z</time>
      </trkpt>
      <trkpt lat="42.89894" lon="-0.43303">
        <ele>980.68212890625</ele>
        <time>2015-03-30T08:20:45Z</time>
      </trkpt>
      <trkpt lat="42.89893" lon="-0.43312">
        <ele>980.68212890625</ele>
        <time>2015-03-30T08:20:58Z</time>
      </trkpt>
      <trkpt lat="42.89894" lon="-0.43313">
        <ele>981.16284179688</ele>
        <time>2015-03-30T08:21:10Z</time>
      </trkpt>
      <trkpt lat="42.89894" lon="-0.43311">
        <ele>981.16284179688</ele>
        <time>2015-03-30T08:21:34Z</time>
      </trkpt>
      <trkpt lat="42.89893" lon="-0.43311">
        <ele>981.16284179688</ele>
        <time>2015-03-30T08:21:47Z</time>
      </trkpt>
      <trkpt lat="42.89895" lon="-0.43313">
        <ele>980.20141601562</ele>
        <time>2015-03-30T08:22:42Z</time>
      </trkpt>
      <trkpt lat="42.89898" lon="-0.43314">
        <ele>980.20141601562</ele>
        <time>2015-03-30T08:23:05Z</time>
      </trkpt>
      <trkpt lat="42.89895" lon="-0.43314">
        <ele>980.20141601562</ele>
        <time>2015-03-30T08:23:26Z</time>
      </trkpt>
      <trkpt lat="42.89898" lon="-0.43316">
        <ele>979.720703125</ele>
        <time>2015-03-30T08:24:01Z</time>
      </trkpt>
      <trkpt lat="42.89895" lon="-0.4331">
        <ele>979.720703125</ele>
        <time>2015-03-30T08:24:28Z</time>
      </trkpt>
      <trkpt lat="42.89896" lon="-0.43307">
        <ele>980.20141601562</ele>
        <time>2015-03-30T08:24:32Z</time>
      </trkpt>
      <trkpt lat="42.89897" lon="-0.43288">
        <ele>979.23999023438</ele>
        <time>2015-03-30T08:24:52Z</time>
      </trkpt>
      <trkpt lat="42.89889" lon="-0.43281">
        <ele>975.39477539062</ele>
        <time>2015-03-30T08:25:05Z</time>
      </trkpt>
      <trkpt lat="42.89889" lon="-0.43268">
        <ele>972.99169921875</ele>
        <time>2015-03-30T08:25:23Z</time>
      </trkpt>
      <trkpt lat="42.89899" lon="-0.43264">
        <ele>969.14624023438</ele>
        <time>2015-03-30T08:25:37Z</time>
      </trkpt>
      <trkpt lat="42.89906" lon="-0.4326">
        <ele>966.74291992188</ele>
        <time>2015-03-30T08:25:46Z</time>
      </trkpt>
      <trkpt lat="42.89909" lon="-0.4326">
        <ele>966.74291992188</ele>
        <time>2015-03-30T08:26:00Z</time>
      </trkpt>
      <trkpt lat="42.89905" lon="-0.4326">
        <ele>967.2236328125</ele>
        <time>2015-03-30T08:26:14Z</time>
      </trkpt>
      <trkpt lat="42.89914" lon="-0.43261">
        <ele>963.85888671875</ele>
        <time>2015-03-30T08:26:26Z</time>
      </trkpt>
      <trkpt lat="42.89926" lon="-0.43262">
        <ele>960.49438476562</ele>
        <time>2015-03-30T08:26:40Z</time>
      </trkpt>
      <trkpt lat="42.89937" lon="-0.43262">
        <ele>958.57177734375</ele>
        <time>2015-03-30T08:26:52Z</time>
      </trkpt>
      <trkpt lat="42.89949" lon="-0.43265">
        <ele>955.20703125</ele>
        <time>2015-03-30T08:27:09Z</time>
      </trkpt>
      <trkpt lat="42.89952" lon="-0.43272">
        <ele>954.24584960938</ele>
        <time>2015-03-30T08:27:22Z</time>
      </trkpt>
      <trkpt lat="42.89955" lon="-0.43279">
        <ele>953.28442382812</ele>
        <time>2015-03-30T08:27:34Z</time>
      </trkpt>
      <trkpt lat="42.89957" lon="-0.43281">
        <ele>952.8037109375</ele>
        <time>2015-03-30T08:27:41Z</time>
      </trkpt>
      <trkpt lat="42.89964" lon="-0.43284">
        <ele>952.8037109375</ele>
        <time>2015-03-30T08:27:52Z</time>
      </trkpt>
      <trkpt lat="42.89966" lon="-0.43285">
        <ele>952.8037109375</ele>
        <time>2015-03-30T08:27:54Z</time>
      </trkpt>
      <trkpt lat="42.89972" lon="-0.43288">
        <ele>952.8037109375</ele>
        <time>2015-03-30T08:28:07Z</time>
      </trkpt>
      <trkpt lat="42.89973" lon="-0.43288">
        <ele>952.8037109375</ele>
        <time>2015-03-30T08:28:08Z</time>
      </trkpt>
      <trkpt lat="42.89982" lon="-0.43291">
        <ele>951.84252929688</ele>
        <time>2015-03-30T08:28:24Z</time>
      </trkpt>
      <trkpt lat="42.89985" lon="-0.43291">
        <ele>951.36181640625</ele>
        <time>2015-03-30T08:28:46Z</time>
      </trkpt>
      <trkpt lat="42.89983" lon="-0.43291">
        <ele>950.88110351562</ele>
        <time>2015-03-30T08:29:57Z</time>
      </trkpt>
      <trkpt lat="42.89984" lon="-0.43291">
        <ele>951.36181640625</ele>
        <time>2015-03-30T08:31:17Z</time>
      </trkpt>
      <trkpt lat="42.89983" lon="-0.43291">
        <ele>951.84252929688</ele>
        <time>2015-03-30T08:31:32Z</time>
      </trkpt>
      <trkpt lat="42.8999" lon="-0.43291">
        <ele>950.40063476562</ele>
        <time>2015-03-30T08:31:47Z</time>
      </trkpt>
      <trkpt lat="42.89999" lon="-0.43289">
        <ele>946.55541992188</ele>
        <time>2015-03-30T08:31:59Z</time>
      </trkpt>
      <trkpt lat="42.9001" lon="-0.43282">
        <ele>945.59399414062</ele>
        <time>2015-03-30T08:32:15Z</time>
      </trkpt>
      <trkpt lat="42.90016" lon="-0.43279">
        <ele>944.63256835938</ele>
        <time>2015-03-30T08:32:28Z</time>
      </trkpt>
      <trkpt lat="42.90031" lon="-0.43282">
        <ele>944.63256835938</ele>
        <time>2015-03-30T08:32:46Z</time>
      </trkpt>
      <trkpt lat="42.90032" lon="-0.43281">
        <ele>944.63256835938</ele>
        <time>2015-03-30T08:33:13Z</time>
      </trkpt>
      <trkpt lat="42.90032" lon="-0.43284">
        <ele>944.63256835938</ele>
        <time>2015-03-30T08:33:28Z</time>
      </trkpt>
      <trkpt lat="42.90032" lon="-0.43284">
        <ele>943.67138671875</ele>
        <time>2015-03-30T08:33:46Z</time>
      </trkpt>
      <trkpt lat="42.90032" lon="-0.43282">
        <ele>944.63256835938</ele>
        <time>2015-03-30T08:33:58Z</time>
      </trkpt>
      <trkpt lat="42.90033" lon="-0.43284">
        <ele>944.63256835938</ele>
        <time>2015-03-30T08:34:11Z</time>
      </trkpt>
      <trkpt lat="42.90033" lon="-0.43286">
        <ele>944.63256835938</ele>
        <time>2015-03-30T08:34:26Z</time>
      </trkpt>
      <trkpt lat="42.90035" lon="-0.43284">
        <ele>944.15209960938</ele>
        <time>2015-03-30T08:34:50Z</time>
      </trkpt>
      <trkpt lat="42.90031" lon="-0.43286">
        <ele>944.15209960938</ele>
        <time>2015-03-30T08:35:14Z</time>
      </trkpt>
      <trkpt lat="42.90031" lon="-0.43286">
        <ele>944.15209960938</ele>
        <time>2015-03-30T08:35:52Z</time>
      </trkpt>
      <trkpt lat="42.9003" lon="-0.43287">
        <ele>943.19067382812</ele>
        <time>2015-03-30T08:36:21Z</time>
      </trkpt>
      <trkpt lat="42.90033" lon="-0.43282">
        <ele>943.19067382812</ele>
        <time>2015-03-30T08:36:31Z</time>
      </trkpt>
      <trkpt lat="42.90035" lon="-0.43281">
        <ele>943.19067382812</ele>
        <time>2015-03-30T08:36:34Z</time>
      </trkpt>
      <trkpt lat="42.90045" lon="-0.43272">
        <ele>942.2294921875</ele>
        <time>2015-03-30T08:36:46Z</time>
      </trkpt>
      <trkpt lat="42.90056" lon="-0.43258">
        <ele>940.30688476562</ele>
        <time>2015-03-30T08:36:59Z</time>
      </trkpt>
      <trkpt lat="42.90063" lon="-0.43249">
        <ele>938.86474609375</ele>
        <time>2015-03-30T08:37:07Z</time>
      </trkpt>
      <trkpt lat="42.90078" lon="-0.4323">
        <ele>936.46142578125</ele>
        <time>2015-03-30T08:37:23Z</time>
      </trkpt>
      <trkpt lat="42.9008" lon="-0.43225">
        <ele>936.94189453125</ele>
        <time>2015-03-30T08:37:27Z</time>
      </trkpt>
      <trkpt lat="42.90083" lon="-0.43221">
        <ele>935.98071289062</ele>
        <time>2015-03-30T08:37:31Z</time>
      </trkpt>
      <trkpt lat="42.90092" lon="-0.43213">
        <ele>934.05810546875</ele>
        <time>2015-03-30T08:37:41Z</time>
      </trkpt>
      <trkpt lat="42.90103" lon="-0.432">
        <ele>932.6162109375</ele>
        <time>2015-03-30T08:37:58Z</time>
      </trkpt>
      <trkpt lat="42.90111" lon="-0.43189">
        <ele>932.13549804688</ele>
        <time>2015-03-30T08:38:13Z</time>
      </trkpt>
      <trkpt lat="42.90113" lon="-0.43189">
        <ele>931.65478515625</ele>
        <time>2015-03-30T08:38:39Z</time>
      </trkpt>
      <trkpt lat="42.9012" lon="-0.43178">
        <ele>933.0966796875</ele>
        <time>2015-03-30T08:39:29Z</time>
      </trkpt>
      <trkpt lat="42.90117" lon="-0.43177">
        <ele>932.13549804688</ele>
        <time>2015-03-30T08:39:59Z</time>
      </trkpt>
      <trkpt lat="42.90117" lon="-0.43181">
        <ele>933.57739257812</ele>
        <time>2015-03-30T08:40:19Z</time>
      </trkpt>
      <trkpt lat="42.90115" lon="-0.43183">
        <ele>934.53881835938</ele>
        <time>2015-03-30T08:40:33Z</time>
      </trkpt>
      <trkpt lat="42.90115" lon="-0.43181">
        <ele>933.0966796875</ele>
        <time>2015-03-30T08:40:40Z</time>
      </trkpt>
      <trkpt lat="42.90114" lon="-0.43172">
        <ele>933.57739257812</ele>
        <time>2015-03-30T08:40:47Z</time>
      </trkpt>
      <trkpt lat="42.90109" lon="-0.43167">
        <ele>935.5</ele>
        <time>2015-03-30T08:41:01Z</time>
      </trkpt>
      <trkpt lat="42.9011" lon="-0.43167">
        <ele>936.46142578125</ele>
        <time>2015-03-30T08:41:22Z</time>
      </trkpt>
      <trkpt lat="42.90111" lon="-0.43165">
        <ele>935.5</ele>
        <time>2015-03-30T08:41:57Z</time>
      </trkpt>
      <trkpt lat="42.90109" lon="-0.43169">
        <ele>935.01953125</ele>
        <time>2015-03-30T08:42:29Z</time>
      </trkpt>
      <trkpt lat="42.90109" lon="-0.4317">
        <ele>936.46142578125</ele>
        <time>2015-03-30T08:43:14Z</time>
      </trkpt>
      <trkpt lat="42.90104" lon="-0.43176">
        <ele>936.94189453125</ele>
        <time>2015-03-30T08:43:36Z</time>
      </trkpt>
      <trkpt lat="42.90104" lon="-0.43175">
        <ele>936.94189453125</ele>
        <time>2015-03-30T08:43:54Z</time>
      </trkpt>
      <trkpt lat="42.90105" lon="-0.43168">
        <ele>939.34521484375</ele>
        <time>2015-03-30T08:44:17Z</time>
      </trkpt>
      <trkpt lat="42.90109" lon="-0.43163">
        <ele>939.82592773438</ele>
        <time>2015-03-30T08:44:30Z</time>
      </trkpt>
      <trkpt lat="42.90112" lon="-0.43163">
        <ele>938.38403320312</ele>
        <time>2015-03-30T08:44:48Z</time>
      </trkpt>
      <trkpt lat="42.90109" lon="-0.43168">
        <ele>937.42260742188</ele>
        <time>2015-03-30T08:45:16Z</time>
      </trkpt>
      <trkpt lat="42.90112" lon="-0.43165">
        <ele>938.86474609375</ele>
        <time>2015-03-30T08:45:58Z</time>
      </trkpt>
      <trkpt lat="42.90115" lon="-0.43162">
        <ele>941.26806640625</ele>
        <time>2015-03-30T08:46:25Z</time>
      </trkpt>
      <trkpt lat="42.90111" lon="-0.43158">
        <ele>942.2294921875</ele>
        <time>2015-03-30T08:46:38Z</time>
      </trkpt>
      <trkpt lat="42.90113" lon="-0.43153">
        <ele>944.15209960938</ele>
        <time>2015-03-30T08:46:51Z</time>
      </trkpt>
      <trkpt lat="42.90122" lon="-0.43143">
        <ele>945.59399414062</ele>
        <time>2015-03-30T08:47:06Z</time>
      </trkpt>
      <trkpt lat="42.90122" lon="-0.43141">
        <ele>949.43920898438</ele>
        <time>2015-03-30T08:47:13Z</time>
      </trkpt>
      <trkpt lat="42.90131" lon="-0.4313">
        <ele>948.47778320312</ele>
        <time>2015-03-30T08:47:28Z</time>
      </trkpt>
      <trkpt lat="42.90136" lon="-0.4313">
        <ele>950.40063476562</ele>
        <time>2015-03-30T08:47:44Z</time>
      </trkpt>
      <trkpt lat="42.90144" lon="-0.43121">
        <ele>951.84252929688</ele>
        <time>2015-03-30T08:47:58Z</time>
      </trkpt>
      <trkpt lat="42.90151" lon="-0.43116">
        <ele>950.88110351562</ele>
        <time>2015-03-30T08:48:11Z</time>
      </trkpt>
      <trkpt lat="42.90153" lon="-0.43111">
        <ele>952.8037109375</ele>
        <time>2015-03-30T08:48:23Z</time>
      </trkpt>
      <trkpt lat="42.90147" lon="-0.43111">
        <ele>954.72631835938</ele>
        <time>2015-03-30T08:48:39Z</time>
      </trkpt>
      <trkpt lat="42.90151" lon="-0.43105">
        <ele>956.64916992188</ele>
        <time>2015-03-30T08:48:51Z</time>
      </trkpt>
      <trkpt lat="42.90151" lon="-0.43101">
        <ele>957.61059570312</ele>
        <time>2015-03-30T08:49:09Z</time>
      </trkpt>
      <trkpt lat="42.90154" lon="-0.43097">
        <ele>958.57177734375</ele>
        <time>2015-03-30T08:49:23Z</time>
      </trkpt>
      <trkpt lat="42.90154" lon="-0.43094">
        <ele>960.013671875</ele>
        <time>2015-03-30T08:49:28Z</time>
      </trkpt>
      <trkpt lat="42.90158" lon="-0.43086">
        <ele>961.9365234375</ele>
        <time>2015-03-30T08:49:42Z</time>
      </trkpt>
      <trkpt lat="42.90166" lon="-0.4307">
        <ele>965.30102539062</ele>
        <time>2015-03-30T08:50:00Z</time>
      </trkpt>
      <trkpt lat="42.90167" lon="-0.43065">
        <ele>966.26220703125</ele>
        <time>2015-03-30T08:50:04Z</time>
      </trkpt>
      <trkpt lat="42.90168" lon="-0.4306">
        <ele>966.74291992188</ele>
        <time>2015-03-30T08:50:09Z</time>
      </trkpt>
      <trkpt lat="42.90172" lon="-0.43049">
        <ele>966.74291992188</ele>
        <time>2015-03-30T08:50:24Z</time>
      </trkpt>
      <trkpt lat="42.90174" lon="-0.43044">
        <ele>966.74291992188</ele>
        <time>2015-03-30T08:50:37Z</time>
      </trkpt>
      <trkpt lat="42.90172" lon="-0.43042">
        <ele>966.26220703125</ele>
        <time>2015-03-30T08:50:52Z</time>
      </trkpt>
      <trkpt lat="42.90175" lon="-0.43032">
        <ele>966.74291992188</ele>
        <time>2015-03-30T08:51:09Z</time>
      </trkpt>
      <trkpt lat="42.90177" lon="-0.43032">
        <ele>966.74291992188</ele>
        <time>2015-03-30T08:51:36Z</time>
      </trkpt>
      <trkpt lat="42.90178" lon="-0.43034">
        <ele>966.26220703125</ele>
        <time>2015-03-30T08:51:58Z</time>
      </trkpt>
      <trkpt lat="42.90175" lon="-0.43043">
        <ele>966.74291992188</ele>
        <time>2015-03-30T08:52:10Z</time>
      </trkpt>
      <trkpt lat="42.9017" lon="-0.43054">
        <ele>966.74291992188</ele>
        <time>2015-03-30T08:52:21Z</time>
      </trkpt>
      <trkpt lat="42.90174" lon="-0.43049">
        <ele>965.78173828125</ele>
        <time>2015-03-30T08:52:39Z</time>
      </trkpt>
      <trkpt lat="42.90175" lon="-0.43041">
        <ele>966.74291992188</ele>
        <time>2015-03-30T08:52:58Z</time>
      </trkpt>
      <trkpt lat="42.90174" lon="-0.43039">
        <ele>966.26220703125</ele>
        <time>2015-03-30T08:53:07Z</time>
      </trkpt>
      <trkpt lat="42.90172" lon="-0.43047">
        <ele>966.26220703125</ele>
        <time>2015-03-30T08:53:20Z</time>
      </trkpt>
      <trkpt lat="42.90174" lon="-0.43046">
        <ele>965.78173828125</ele>
        <time>2015-03-30T08:53:39Z</time>
      </trkpt>
      <trkpt lat="42.90174" lon="-0.43043">
        <ele>966.26220703125</ele>
        <time>2015-03-30T08:53:53Z</time>
      </trkpt>
      <trkpt lat="42.90175" lon="-0.43043">
        <ele>965.78173828125</ele>
        <time>2015-03-30T08:53:54Z</time>
      </trkpt>
      <trkpt lat="42.90179" lon="-0.4304">
        <ele>965.78173828125</ele>
        <time>2015-03-30T08:53:59Z</time>
      </trkpt>
      <trkpt lat="42.90198" lon="-0.43026">
        <ele>964.33959960938</ele>
        <time>2015-03-30T08:54:15Z</time>
      </trkpt>
      <trkpt lat="42.90208" lon="-0.43017">
        <ele>963.85888671875</ele>
        <time>2015-03-30T08:54:28Z</time>
      </trkpt>
      <trkpt lat="42.90214" lon="-0.4301">
        <ele>964.33959960938</ele>
        <time>2015-03-30T08:54:38Z</time>
      </trkpt>
      <trkpt lat="42.9022" lon="-0.43009">
        <ele>963.85888671875</ele>
        <time>2015-03-30T08:54:43Z</time>
      </trkpt>
      <trkpt lat="42.90226" lon="-0.43005">
        <ele>963.85888671875</ele>
        <time>2015-03-30T08:54:49Z</time>
      </trkpt>
      <trkpt lat="42.9023" lon="-0.43">
        <ele>963.85888671875</ele>
        <time>2015-03-30T08:54:54Z</time>
      </trkpt>
      <trkpt lat="42.90234" lon="-0.42988">
        <ele>966.74291992188</ele>
        <time>2015-03-30T08:55:06Z</time>
      </trkpt>
      <trkpt lat="42.90234" lon="-0.42988">
        <ele>966.74291992188</ele>
        <time>2015-03-30T08:55:07Z</time>
      </trkpt>
      <trkpt lat="42.9024" lon="-0.42983">
        <ele>968.66552734375</ele>
        <time>2015-03-30T08:55:17Z</time>
      </trkpt>
      <trkpt lat="42.90244" lon="-0.42984">
        <ele>968.66552734375</ele>
        <time>2015-03-30T08:55:22Z</time>
      </trkpt>
      <trkpt lat="42.90249" lon="-0.42974">
        <ele>971.06884765625</ele>
        <time>2015-03-30T08:55:36Z</time>
      </trkpt>
      <trkpt lat="42.9025" lon="-0.42973">
        <ele>971.06884765625</ele>
        <time>2015-03-30T08:55:37Z</time>
      </trkpt>
      <trkpt lat="42.90261" lon="-0.42956">
        <ele>970.58813476562</ele>
        <time>2015-03-30T08:55:54Z</time>
      </trkpt>
      <trkpt lat="42.90264" lon="-0.42945">
        <ele>972.51098632812</ele>
        <time>2015-03-30T08:56:10Z</time>
      </trkpt>
      <trkpt lat="42.9027" lon="-0.42936">
        <ele>975.39477539062</ele>
        <time>2015-03-30T08:56:22Z</time>
      </trkpt>
      <trkpt lat="42.90275" lon="-0.42925">
        <ele>977.31762695312</ele>
        <time>2015-03-30T08:56:38Z</time>
      </trkpt>
      <trkpt lat="42.90282" lon="-0.4292">
        <ele>979.23999023438</ele>
        <time>2015-03-30T08:56:51Z</time>
      </trkpt>
      <trkpt lat="42.90287" lon="-0.42912">
        <ele>979.23999023438</ele>
        <time>2015-03-30T08:57:02Z</time>
      </trkpt>
      <trkpt lat="42.9029" lon="-0.42907">
        <ele>980.20141601562</ele>
        <time>2015-03-30T08:57:18Z</time>
      </trkpt>
      <trkpt lat="42.90295" lon="-0.42902">
        <ele>979.720703125</ele>
        <time>2015-03-30T08:57:47Z</time>
      </trkpt>
      <trkpt lat="42.90308" lon="-0.42895">
        <ele>981.64331054688</ele>
        <time>2015-03-30T08:58:05Z</time>
      </trkpt>
      <trkpt lat="42.90307" lon="-0.42901">
        <ele>982.60473632812</ele>
        <time>2015-03-30T08:58:20Z</time>
      </trkpt>
      <trkpt lat="42.90304" lon="-0.42902">
        <ele>983.08520507812</ele>
        <time>2015-03-30T08:58:37Z</time>
      </trkpt>
      <trkpt lat="42.90303" lon="-0.429">
        <ele>982.1240234375</ele>
        <time>2015-03-30T08:58:54Z</time>
      </trkpt>
      <trkpt lat="42.90305" lon="-0.42903">
        <ele>982.60473632812</ele>
        <time>2015-03-30T08:59:27Z</time>
      </trkpt>
      <trkpt lat="42.90307" lon="-0.42906">
        <ele>982.60473632812</ele>
        <time>2015-03-30T08:59:30Z</time>
      </trkpt>
      <trkpt lat="42.90319" lon="-0.42906">
        <ele>984.52734375</ele>
        <time>2015-03-30T08:59:43Z</time>
      </trkpt>
      <trkpt lat="42.90322" lon="-0.42906">
        <ele>985.00805664062</ele>
        <time>2015-03-30T08:59:46Z</time>
      </trkpt>
      <trkpt lat="42.90337" lon="-0.42905">
        <ele>988.37280273438</ele>
        <time>2015-03-30T09:00:00Z</time>
      </trkpt>
      <trkpt lat="42.90344" lon="-0.42903">
        <ele>988.37280273438</ele>
        <time>2015-03-30T09:00:14Z</time>
      </trkpt>
      <trkpt lat="42.90355" lon="-0.42904">
        <ele>986.93041992188</ele>
        <time>2015-03-30T09:00:30Z</time>
      </trkpt>
      <trkpt lat="42.90356" lon="-0.429">
        <ele>987.4111328125</ele>
        <time>2015-03-30T09:01:00Z</time>
      </trkpt>
      <trkpt lat="42.90361" lon="-0.42901">
        <ele>986.44995117188</ele>
        <time>2015-03-30T09:01:20Z</time>
      </trkpt>
      <trkpt lat="42.90368" lon="-0.42902">
        <ele>984.04663085938</ele>
        <time>2015-03-30T09:01:33Z</time>
      </trkpt>
      <trkpt lat="42.90377" lon="-0.42904">
        <ele>980.68212890625</ele>
        <time>2015-03-30T09:01:45Z</time>
      </trkpt>
      <trkpt lat="42.90378" lon="-0.42904">
        <ele>980.68212890625</ele>
        <time>2015-03-30T09:01:46Z</time>
      </trkpt>
      <trkpt lat="42.9038" lon="-0.42904">
        <ele>980.68212890625</ele>
        <time>2015-03-30T09:01:48Z</time>
      </trkpt>
      <trkpt lat="42.90388" lon="-0.42904">
        <ele>980.20141601562</ele>
        <time>2015-03-30T09:01:55Z</time>
      </trkpt>
      <trkpt lat="42.90397" lon="-0.42904">
        <ele>978.75952148438</ele>
        <time>2015-03-30T09:02:07Z</time>
      </trkpt>
      <trkpt lat="42.90399" lon="-0.42903">
        <ele>978.75952148438</ele>
        <time>2015-03-30T09:02:17Z</time>
      </trkpt>
      <trkpt lat="42.90406" lon="-0.42903">
        <ele>976.35620117188</ele>
        <time>2015-03-30T09:02:29Z</time>
      </trkpt>
      <trkpt lat="42.9041" lon="-0.42902">
        <ele>974.43359375</ele>
        <time>2015-03-30T09:02:43Z</time>
      </trkpt>
      <trkpt lat="42.90412" lon="-0.42901">
        <ele>973.47241210938</ele>
        <time>2015-03-30T09:02:57Z</time>
      </trkpt>
      <trkpt lat="42.90415" lon="-0.42901">
        <ele>972.0302734375</ele>
        <time>2015-03-30T09:03:09Z</time>
      </trkpt>
      <trkpt lat="42.9042" lon="-0.42901">
        <ele>969.14624023438</ele>
        <time>2015-03-30T09:03:22Z</time>
      </trkpt>
      <trkpt lat="42.90426" lon="-0.42898">
        <ele>967.7041015625</ele>
        <time>2015-03-30T09:03:34Z</time>
      </trkpt>
      <trkpt lat="42.90428" lon="-0.42898">
        <ele>966.74291992188</ele>
        <time>2015-03-30T09:03:36Z</time>
      </trkpt>
      <trkpt lat="42.90435" lon="-0.42894">
        <ele>965.78173828125</ele>
        <time>2015-03-30T09:03:48Z</time>
      </trkpt>
      <trkpt lat="42.90447" lon="-0.42889">
        <ele>967.7041015625</ele>
        <time>2015-03-30T09:04:06Z</time>
      </trkpt>
      <trkpt lat="42.90458" lon="-0.42884">
        <ele>969.626953125</ele>
        <time>2015-03-30T09:04:23Z</time>
      </trkpt>
      <trkpt lat="42.90469" lon="-0.42879">
        <ele>971.06884765625</ele>
        <time>2015-03-30T09:04:38Z</time>
      </trkpt>
      <trkpt lat="42.9048" lon="-0.42875">
        <ele>972.99169921875</ele>
        <time>2015-03-30T09:04:52Z</time>
      </trkpt>
      <trkpt lat="42.90491" lon="-0.42864">
        <ele>972.51098632812</ele>
        <time>2015-03-30T09:05:06Z</time>
      </trkpt>
      <trkpt lat="42.90493" lon="-0.42863">
        <ele>972.0302734375</ele>
        <time>2015-03-30T09:05:08Z</time>
      </trkpt>
      <trkpt lat="42.90512" lon="-0.42863">
        <ele>972.99169921875</ele>
        <time>2015-03-30T09:05:27Z</time>
      </trkpt>
      <trkpt lat="42.90525" lon="-0.42865">
        <ele>971.54931640625</ele>
        <time>2015-03-30T09:05:44Z</time>
      </trkpt>
      <trkpt lat="42.9053" lon="-0.42859">
        <ele>972.51098632812</ele>
        <time>2015-03-30T09:06:00Z</time>
      </trkpt>
      <trkpt lat="42.90534" lon="-0.4285">
        <ele>972.0302734375</ele>
        <time>2015-03-30T09:06:26Z</time>
      </trkpt>
      <trkpt lat="42.90538" lon="-0.42845">
        <ele>972.99169921875</ele>
        <time>2015-03-30T09:06:49Z</time>
      </trkpt>
      <trkpt lat="42.90538" lon="-0.42848">
        <ele>972.51098632812</ele>
        <time>2015-03-30T09:07:06Z</time>
      </trkpt>
      <trkpt lat="42.9054" lon="-0.42854">
        <ele>972.0302734375</ele>
        <time>2015-03-30T09:07:15Z</time>
      </trkpt>
      <trkpt lat="42.90548" lon="-0.42859">
        <ele>969.626953125</ele>
        <time>2015-03-30T09:07:31Z</time>
      </trkpt>
      <trkpt lat="42.90547" lon="-0.42861">
        <ele>970.107421875</ele>
        <time>2015-03-30T09:07:45Z</time>
      </trkpt>
      <trkpt lat="42.90545" lon="-0.42861">
        <ele>971.06884765625</ele>
        <time>2015-03-30T09:07:57Z</time>
      </trkpt>
      <trkpt lat="42.90547" lon="-0.42855">
        <ele>970.58813476562</ele>
        <time>2015-03-30T09:08:23Z</time>
      </trkpt>
      <trkpt lat="42.90546" lon="-0.42861">
        <ele>970.58813476562</ele>
        <time>2015-03-30T09:08:33Z</time>
      </trkpt>
      <trkpt lat="42.90549" lon="-0.42859">
        <ele>969.626953125</ele>
        <time>2015-03-30T09:08:45Z</time>
      </trkpt>
      <trkpt lat="42.90557" lon="-0.42859">
        <ele>968.66552734375</ele>
        <time>2015-03-30T09:08:55Z</time>
      </trkpt>
      <trkpt lat="42.90567" lon="-0.42858">
        <ele>971.06884765625</ele>
        <time>2015-03-30T09:09:07Z</time>
      </trkpt>
      <trkpt lat="42.90575" lon="-0.42858">
        <ele>971.06884765625</ele>
        <time>2015-03-30T09:09:20Z</time>
      </trkpt>
      <trkpt lat="42.90589" lon="-0.42861">
        <ele>970.58813476562</ele>
        <time>2015-03-30T09:09:35Z</time>
      </trkpt>
      <trkpt lat="42.90593" lon="-0.42861">
        <ele>971.06884765625</ele>
        <time>2015-03-30T09:09:46Z</time>
      </trkpt>
      <trkpt lat="42.90598" lon="-0.42853">
        <ele>971.06884765625</ele>
        <time>2015-03-30T09:10:09Z</time>
      </trkpt>
      <trkpt lat="42.90602" lon="-0.42845">
        <ele>970.58813476562</ele>
        <time>2015-03-30T09:11:01Z</time>
      </trkpt>
      <trkpt lat="42.90606" lon="-0.42846">
        <ele>970.58813476562</ele>
        <time>2015-03-30T09:11:26Z</time>
      </trkpt>
      <trkpt lat="42.90606" lon="-0.4285">
        <ele>968.18481445312</ele>
        <time>2015-03-30T09:11:41Z</time>
      </trkpt>
      <trkpt lat="42.90609" lon="-0.42854">
        <ele>965.78173828125</ele>
        <time>2015-03-30T09:11:56Z</time>
      </trkpt>
      <trkpt lat="42.90611" lon="-0.42854">
        <ele>964.8203125</ele>
        <time>2015-03-30T09:12:08Z</time>
      </trkpt>
      <trkpt lat="42.9062" lon="-0.42857">
        <ele>962.89770507812</ele>
        <time>2015-03-30T09:12:20Z</time>
      </trkpt>
      <trkpt lat="42.9063" lon="-0.42857">
        <ele>962.89770507812</ele>
        <time>2015-03-30T09:12:36Z</time>
      </trkpt>
      <trkpt lat="42.90632" lon="-0.42856">
        <ele>964.33959960938</ele>
        <time>2015-03-30T09:12:40Z</time>
      </trkpt>
      <trkpt lat="42.90642" lon="-0.42856">
        <ele>962.89770507812</ele>
        <time>2015-03-30T09:12:53Z</time>
      </trkpt>
      <trkpt lat="42.90654" lon="-0.42858">
        <ele>964.33959960938</ele>
        <time>2015-03-30T09:13:06Z</time>
      </trkpt>
      <trkpt lat="42.90668" lon="-0.42863">
        <ele>965.30102539062</ele>
        <time>2015-03-30T09:13:22Z</time>
      </trkpt>
      <trkpt lat="42.90684" lon="-0.42865">
        <ele>964.33959960938</ele>
        <time>2015-03-30T09:13:37Z</time>
      </trkpt>
      <trkpt lat="42.90693" lon="-0.42866">
        <ele>962.89770507812</ele>
        <time>2015-03-30T09:13:48Z</time>
      </trkpt>
      <trkpt lat="42.90708" lon="-0.42858">
        <ele>964.8203125</ele>
        <time>2015-03-30T09:14:05Z</time>
      </trkpt>
      <trkpt lat="42.90712" lon="-0.42854">
        <ele>964.33959960938</ele>
        <time>2015-03-30T09:14:11Z</time>
      </trkpt>
      <trkpt lat="42.90724" lon="-0.42849">
        <ele>960.97509765625</ele>
        <time>2015-03-30T09:14:26Z</time>
      </trkpt>
      <trkpt lat="42.90729" lon="-0.42848">
        <ele>959.533203125</ele>
        <time>2015-03-30T09:14:32Z</time>
      </trkpt>
      <trkpt lat="42.90739" lon="-0.42849">
        <ele>958.57177734375</ele>
        <time>2015-03-30T09:14:44Z</time>
      </trkpt>
      <trkpt lat="42.90747" lon="-0.42848">
        <ele>956.64916992188</ele>
        <time>2015-03-30T09:14:54Z</time>
      </trkpt>
      <trkpt lat="42.90752" lon="-0.42847">
        <ele>955.20703125</ele>
        <time>2015-03-30T09:15:00Z</time>
      </trkpt>
      <trkpt lat="42.90762" lon="-0.42844">
        <ele>952.32299804688</ele>
        <time>2015-03-30T09:15:14Z</time>
      </trkpt>
      <trkpt lat="42.90774" lon="-0.42841">
        <ele>948.95849609375</ele>
        <time>2015-03-30T09:15:28Z</time>
      </trkpt>
      <trkpt lat="42.90785" lon="-0.4284">
        <ele>947.99731445312</ele>
        <time>2015-03-30T09:15:42Z</time>
      </trkpt>
      <trkpt lat="42.90791" lon="-0.42839">
        <ele>947.99731445312</ele>
        <time>2015-03-30T09:15:48Z</time>
      </trkpt>
      <trkpt lat="42.90809" lon="-0.4283">
        <ele>948.95849609375</ele>
        <time>2015-03-30T09:16:07Z</time>
      </trkpt>
      <trkpt lat="42.90813" lon="-0.42827">
        <ele>948.95849609375</ele>
        <time>2015-03-30T09:16:19Z</time>
      </trkpt>
      <trkpt lat="42.90816" lon="-0.42825">
        <ele>949.43920898438</ele>
        <time>2015-03-30T09:16:34Z</time>
      </trkpt>
      <trkpt lat="42.90821" lon="-0.42822">
        <ele>948.95849609375</ele>
        <time>2015-03-30T09:16:56Z</time>
      </trkpt>
      <trkpt lat="42.90824" lon="-0.42822">
        <ele>948.95849609375</ele>
        <time>2015-03-30T09:17:00Z</time>
      </trkpt>
      <trkpt lat="42.90845" lon="-0.42818">
        <ele>948.95849609375</ele>
        <time>2015-03-30T09:17:19Z</time>
      </trkpt>
      <trkpt lat="42.90848" lon="-0.42819">
        <ele>948.95849609375</ele>
        <time>2015-03-30T09:17:23Z</time>
      </trkpt>
      <trkpt lat="42.9086" lon="-0.42831">
        <ele>948.95849609375</ele>
        <time>2015-03-30T09:17:38Z</time>
      </trkpt>
      <trkpt lat="42.90871" lon="-0.42838">
        <ele>947.99731445312</ele>
        <time>2015-03-30T09:17:50Z</time>
      </trkpt>
      <trkpt lat="42.90889" lon="-0.42848">
        <ele>947.5166015625</ele>
        <time>2015-03-30T09:18:06Z</time>
      </trkpt>
      <trkpt lat="42.90894" lon="-0.42853">
        <ele>947.99731445312</ele>
        <time>2015-03-30T09:18:13Z</time>
      </trkpt>
      <trkpt lat="42.90897" lon="-0.42855">
        <ele>947.99731445312</ele>
        <time>2015-03-30T09:18:16Z</time>
      </trkpt>
      <trkpt lat="42.9091" lon="-0.42868">
        <ele>947.99731445312</ele>
        <time>2015-03-30T09:18:29Z</time>
      </trkpt>
      <trkpt lat="42.90923" lon="-0.42879">
        <ele>948.95849609375</ele>
        <time>2015-03-30T09:18:42Z</time>
      </trkpt>
      <trkpt lat="42.90938" lon="-0.42894">
        <ele>947.99731445312</ele>
        <time>2015-03-30T09:18:58Z</time>
      </trkpt>
      <trkpt lat="42.90945" lon="-0.42899">
        <ele>947.03588867188</ele>
        <time>2015-03-30T09:19:12Z</time>
      </trkpt>
      <trkpt lat="42.90945" lon="-0.42899">
        <ele>947.5166015625</ele>
        <time>2015-03-30T09:19:29Z</time>
      </trkpt>
      <trkpt lat="42.90945" lon="-0.42902">
        <ele>945.59399414062</ele>
        <time>2015-03-30T09:19:47Z</time>
      </trkpt>
      <trkpt lat="42.90944" lon="-0.42901">
        <ele>945.11328125</ele>
        <time>2015-03-30T09:20:15Z</time>
      </trkpt>
      <trkpt lat="42.90946" lon="-0.42903">
        <ele>945.11328125</ele>
        <time>2015-03-30T09:21:03Z</time>
      </trkpt>
      <trkpt lat="42.90949" lon="-0.42902">
        <ele>945.11328125</ele>
        <time>2015-03-30T09:22:07Z</time>
      </trkpt>
      <trkpt lat="42.90947" lon="-0.42907">
        <ele>942.2294921875</ele>
        <time>2015-03-30T09:22:21Z</time>
      </trkpt>
      <trkpt lat="42.90941" lon="-0.42912">
        <ele>940.30688476562</ele>
        <time>2015-03-30T09:22:34Z</time>
      </trkpt>
      <trkpt lat="42.90942" lon="-0.42914">
        <ele>938.86474609375</ele>
        <time>2015-03-30T09:22:37Z</time>
      </trkpt>
      <trkpt lat="42.9094" lon="-0.42921">
        <ele>936.46142578125</ele>
        <time>2015-03-30T09:22:48Z</time>
      </trkpt>
      <trkpt lat="42.90935" lon="-0.42928">
        <ele>933.57739257812</ele>
        <time>2015-03-30T09:23:02Z</time>
      </trkpt>
      <trkpt lat="42.90934" lon="-0.42937">
        <ele>931.17431640625</ele>
        <time>2015-03-30T09:23:15Z</time>
      </trkpt>
      <trkpt lat="42.90931" lon="-0.4295">
        <ele>927.8095703125</ele>
        <time>2015-03-30T09:23:27Z</time>
      </trkpt>
      <trkpt lat="42.90931" lon="-0.42956">
        <ele>927.8095703125</ele>
        <time>2015-03-30T09:23:31Z</time>
      </trkpt>
      <trkpt lat="42.90927" lon="-0.42977">
        <ele>926.36767578125</ele>
        <time>2015-03-30T09:23:46Z</time>
      </trkpt>
      <trkpt lat="42.90929" lon="-0.4299">
        <ele>926.84838867188</ele>
        <time>2015-03-30T09:24:01Z</time>
      </trkpt>
      <trkpt lat="42.9093" lon="-0.42993">
        <ele>925.88696289062</ele>
        <time>2015-03-30T09:24:19Z</time>
      </trkpt>
      <trkpt lat="42.90932" lon="-0.43">
        <ele>924.44506835938</ele>
        <time>2015-03-30T09:25:19Z</time>
      </trkpt>
      <trkpt lat="42.90934" lon="-0.43002">
        <ele>923.48364257812</ele>
        <time>2015-03-30T09:25:42Z</time>
      </trkpt>
      <trkpt lat="42.90934" lon="-0.43003">
        <ele>923.96411132812</ele>
        <time>2015-03-30T09:25:50Z</time>
      </trkpt>
      <trkpt lat="42.90937" lon="-0.43008">
        <ele>922.52221679688</ele>
        <time>2015-03-30T09:26:02Z</time>
      </trkpt>
      <trkpt lat="42.90937" lon="-0.43015">
        <ele>920.11889648438</ele>
        <time>2015-03-30T09:26:16Z</time>
      </trkpt>
      <trkpt lat="42.90941" lon="-0.43017">
        <ele>918.1962890625</ele>
        <time>2015-03-30T09:26:30Z</time>
      </trkpt>
      <trkpt lat="42.90937" lon="-0.43029">
        <ele>916.27368164062</ele>
        <time>2015-03-30T09:26:45Z</time>
      </trkpt>
      <trkpt lat="42.90934" lon="-0.43044">
        <ele>913.38989257812</ele>
        <time>2015-03-30T09:27:01Z</time>
      </trkpt>
      <trkpt lat="42.90932" lon="-0.43058">
        <ele>911.46728515625</ele>
        <time>2015-03-30T09:27:14Z</time>
      </trkpt>
      <trkpt lat="42.90928" lon="-0.43075">
        <ele>909.54467773438</ele>
        <time>2015-03-30T09:27:31Z</time>
      </trkpt>
      <trkpt lat="42.90925" lon="-0.43089">
        <ele>906.1796875</ele>
        <time>2015-03-30T09:27:43Z</time>
      </trkpt>
      <trkpt lat="42.90926" lon="-0.431">
        <ele>904.73779296875</ele>
        <time>2015-03-30T09:27:54Z</time>
      </trkpt>
      <trkpt lat="42.90926" lon="-0.43093">
        <ele>906.1796875</ele>
        <time>2015-03-30T09:28:01Z</time>
      </trkpt>
      <trkpt lat="42.90925" lon="-0.43082">
        <ele>908.58325195312</ele>
        <time>2015-03-30T09:28:18Z</time>
      </trkpt>
      <trkpt lat="42.90925" lon="-0.43081">
        <ele>907.62182617188</ele>
        <time>2015-03-30T09:28:36Z</time>
      </trkpt>
      <trkpt lat="42.90924" lon="-0.43081">
        <ele>908.10278320312</ele>
        <time>2015-03-30T09:28:59Z</time>
      </trkpt>
      <trkpt lat="42.90923" lon="-0.43082">
        <ele>907.14111328125</ele>
        <time>2015-03-30T09:29:24Z</time>
      </trkpt>
      <trkpt lat="42.90922" lon="-0.43086">
        <ele>905.69921875</ele>
        <time>2015-03-30T09:29:44Z</time>
      </trkpt>
      <trkpt lat="42.90925" lon="-0.43105">
        <ele>903.2958984375</ele>
        <time>2015-03-30T09:30:00Z</time>
      </trkpt>
      <trkpt lat="42.9093" lon="-0.43118">
        <ele>899.93139648438</ele>
        <time>2015-03-30T09:30:15Z</time>
      </trkpt>
      <trkpt lat="42.90934" lon="-0.43128">
        <ele>898.4892578125</ele>
        <time>2015-03-30T09:30:28Z</time>
      </trkpt>
      <trkpt lat="42.90938" lon="-0.43142">
        <ele>894.64404296875</ele>
        <time>2015-03-30T09:30:41Z</time>
      </trkpt>
      <trkpt lat="42.9094" lon="-0.43159">
        <ele>893.2021484375</ele>
        <time>2015-03-30T09:30:58Z</time>
      </trkpt>
      <trkpt lat="42.90942" lon="-0.43167">
        <ele>892.24096679688</ele>
        <time>2015-03-30T09:31:10Z</time>
      </trkpt>
      <trkpt lat="42.90943" lon="-0.43186">
        <ele>889.83740234375</ele>
        <time>2015-03-30T09:31:25Z</time>
      </trkpt>
      <trkpt lat="42.90942" lon="-0.43207">
        <ele>886.95336914062</ele>
        <time>2015-03-30T09:31:42Z</time>
      </trkpt>
      <trkpt lat="42.90942" lon="-0.43221">
        <ele>884.55029296875</ele>
        <time>2015-03-30T09:31:54Z</time>
      </trkpt>
      <trkpt lat="42.90944" lon="-0.43241">
        <ele>881.66625976562</ele>
        <time>2015-03-30T09:32:10Z</time>
      </trkpt>
      <trkpt lat="42.90944" lon="-0.43252">
        <ele>879.74365234375</ele>
        <time>2015-03-30T09:32:26Z</time>
      </trkpt>
      <trkpt lat="42.90942" lon="-0.43256">
        <ele>879.26293945312</ele>
        <time>2015-03-30T09:34:03Z</time>
      </trkpt>
      <trkpt lat="42.90941" lon="-0.43258">
        <ele>879.26293945312</ele>
        <time>2015-03-30T09:34:58Z</time>
      </trkpt>
      <trkpt lat="42.90942" lon="-0.43261">
        <ele>878.78247070312</ele>
        <time>2015-03-30T09:35:01Z</time>
      </trkpt>
      <trkpt lat="42.90943" lon="-0.43265">
        <ele>879.26293945312</ele>
        <time>2015-03-30T09:35:04Z</time>
      </trkpt>
      <trkpt lat="42.90942" lon="-0.43281">
        <ele>876.85986328125</ele>
        <time>2015-03-30T09:35:21Z</time>
      </trkpt>
      <trkpt lat="42.90943" lon="-0.43281">
        <ele>877.34057617188</ele>
        <time>2015-03-30T09:35:40Z</time>
      </trkpt>
      <trkpt lat="42.90945" lon="-0.4328">
        <ele>877.34057617188</ele>
        <time>2015-03-30T09:36:00Z</time>
      </trkpt>
      <trkpt lat="42.90945" lon="-0.43281">
        <ele>876.85986328125</ele>
        <time>2015-03-30T09:36:35Z</time>
      </trkpt>
      <trkpt lat="42.90939" lon="-0.43277">
        <ele>876.85986328125</ele>
        <time>2015-03-30T09:37:05Z</time>
      </trkpt>
      <trkpt lat="42.90941" lon="-0.4328">
        <ele>875.41748046875</ele>
        <time>2015-03-30T09:37:32Z</time>
      </trkpt>
      <trkpt lat="42.90943" lon="-0.43288">
        <ele>873.4951171875</ele>
        <time>2015-03-30T09:37:37Z</time>
      </trkpt>
      <trkpt lat="42.90944" lon="-0.43291">
        <ele>872.53369140625</ele>
        <time>2015-03-30T09:37:39Z</time>
      </trkpt>
      <trkpt lat="42.90944" lon="-0.43309">
        <ele>871.572265625</ele>
        <time>2015-03-30T09:37:51Z</time>
      </trkpt>
      <trkpt lat="42.90945" lon="-0.43326">
        <ele>868.6884765625</ele>
        <time>2015-03-30T09:38:04Z</time>
      </trkpt>
      <trkpt lat="42.90947" lon="-0.43331">
        <ele>868.20776367188</ele>
        <time>2015-03-30T09:38:09Z</time>
      </trkpt>
      <trkpt lat="42.90952" lon="-0.43345">
        <ele>865.8046875</ele>
        <time>2015-03-30T09:38:23Z</time>
      </trkpt>
      <trkpt lat="42.90957" lon="-0.43358">
        <ele>862.92065429688</ele>
        <time>2015-03-30T09:38:35Z</time>
      </trkpt>
      <trkpt lat="42.90962" lon="-0.43368">
        <ele>860.03662109375</ele>
        <time>2015-03-30T09:38:45Z</time>
      </trkpt>
      <trkpt lat="42.90969" lon="-0.43382">
        <ele>857.63330078125</ele>
        <time>2015-03-30T09:39:00Z</time>
      </trkpt>
      <trkpt lat="42.90972" lon="-0.4339">
        <ele>857.15258789062</ele>
        <time>2015-03-30T09:39:08Z</time>
      </trkpt>
      <trkpt lat="42.90976" lon="-0.4341">
        <ele>853.7880859375</ele>
        <time>2015-03-30T09:39:24Z</time>
      </trkpt>
      <trkpt lat="42.90976" lon="-0.43413">
        <ele>854.26879882812</ele>
        <time>2015-03-30T09:39:26Z</time>
      </trkpt>
      <trkpt lat="42.9098" lon="-0.43429">
        <ele>851.86547851562</ele>
        <time>2015-03-30T09:39:37Z</time>
      </trkpt>
      <trkpt lat="42.90989" lon="-0.43453">
        <ele>848.9814453125</ele>
        <time>2015-03-30T09:39:55Z</time>
      </trkpt>
      <trkpt lat="42.91004" lon="-0.43465">
        <ele>846.57836914062</ele>
        <time>2015-03-30T09:40:09Z</time>
      </trkpt>
      <trkpt lat="42.9101" lon="-0.43472">
        <ele>846.09765625</ele>
        <time>2015-03-30T09:40:17Z</time>
      </trkpt>
      <trkpt lat="42.91018" lon="-0.43487">
        <ele>843.21337890625</ele>
        <time>2015-03-30T09:40:32Z</time>
      </trkpt>
      <trkpt lat="42.91024" lon="-0.43498">
        <ele>840.32958984375</ele>
        <time>2015-03-30T09:40:45Z</time>
      </trkpt>
      <trkpt lat="42.91032" lon="-0.43509">
        <ele>836.96484375</ele>
        <time>2015-03-30T09:40:58Z</time>
      </trkpt>
      <trkpt lat="42.91039" lon="-0.43519">
        <ele>833.60034179688</ele>
        <time>2015-03-30T09:41:12Z</time>
      </trkpt>
      <trkpt lat="42.91046" lon="-0.43527">
        <ele>832.15844726562</ele>
        <time>2015-03-30T09:41:22Z</time>
      </trkpt>
      <trkpt lat="42.91058" lon="-0.43539">
        <ele>830.23583984375</ele>
        <time>2015-03-30T09:41:39Z</time>
      </trkpt>
      <trkpt lat="42.91065" lon="-0.43545">
        <ele>830.23583984375</ele>
        <time>2015-03-30T09:41:54Z</time>
      </trkpt>
      <trkpt lat="42.91066" lon="-0.43546">
        <ele>829.2744140625</ele>
        <time>2015-03-30T09:42:19Z</time>
      </trkpt>
      <trkpt lat="42.91068" lon="-0.43547">
        <ele>829.2744140625</ele>
        <time>2015-03-30T09:42:38Z</time>
      </trkpt>
      <trkpt lat="42.91068" lon="-0.43547">
        <ele>828.7939453125</ele>
        <time>2015-03-30T09:43:43Z</time>
      </trkpt>
      <trkpt lat="42.91067" lon="-0.43547">
        <ele>829.2744140625</ele>
        <time>2015-03-30T09:44:01Z</time>
      </trkpt>
      <trkpt lat="42.91066" lon="-0.43548">
        <ele>829.2744140625</ele>
        <time>2015-03-30T09:44:36Z</time>
      </trkpt>
      <trkpt lat="42.91065" lon="-0.43548">
        <ele>829.2744140625</ele>
        <time>2015-03-30T09:44:47Z</time>
      </trkpt>
      <trkpt lat="42.91066" lon="-0.43547">
        <ele>828.7939453125</ele>
        <time>2015-03-30T09:45:00Z</time>
      </trkpt>
      <trkpt lat="42.91069" lon="-0.43549">
        <ele>829.2744140625</ele>
        <time>2015-03-30T09:45:35Z</time>
      </trkpt>
      <trkpt lat="42.91073" lon="-0.43553">
        <ele>828.31323242188</ele>
        <time>2015-03-30T09:45:40Z</time>
      </trkpt>
      <trkpt lat="42.9109" lon="-0.43569">
        <ele>824.94848632812</ele>
        <time>2015-03-30T09:45:56Z</time>
      </trkpt>
      <trkpt lat="42.91113" lon="-0.43586">
        <ele>823.02587890625</ele>
        <time>2015-03-30T09:46:17Z</time>
      </trkpt>
      <trkpt lat="42.91115" lon="-0.43588">
        <ele>822.54516601562</ele>
        <time>2015-03-30T09:46:19Z</time>
      </trkpt>
      <trkpt lat="42.91117" lon="-0.43589">
        <ele>822.064453125</ele>
        <time>2015-03-30T09:46:21Z</time>
      </trkpt>
      <trkpt lat="42.91135" lon="-0.43593">
        <ele>820.62255859375</ele>
        <time>2015-03-30T09:46:35Z</time>
      </trkpt>
      <trkpt lat="42.91156" lon="-0.43603">
        <ele>818.21923828125</ele>
        <time>2015-03-30T09:46:55Z</time>
      </trkpt>
      <trkpt lat="42.91163" lon="-0.43605">
        <ele>817.73852539062</ele>
        <time>2015-03-30T09:47:06Z</time>
      </trkpt>
      <trkpt lat="42.91157" lon="-0.43607">
        <ele>817.25805664062</ele>
        <time>2015-03-30T09:47:25Z</time>
      </trkpt>
      <trkpt lat="42.91159" lon="-0.43606">
        <ele>818.21923828125</ele>
        <time>2015-03-30T09:47:59Z</time>
      </trkpt>
      <trkpt lat="42.91159" lon="-0.43608">
        <ele>817.25805664062</ele>
        <time>2015-03-30T09:48:16Z</time>
      </trkpt>
      <trkpt lat="42.91158" lon="-0.43607">
        <ele>817.73852539062</ele>
        <time>2015-03-30T09:48:38Z</time>
      </trkpt>
      <trkpt lat="42.91162" lon="-0.43616">
        <ele>817.73852539062</ele>
        <time>2015-03-30T09:48:54Z</time>
      </trkpt>
      <trkpt lat="42.91161" lon="-0.43633">
        <ele>816.77734375</ele>
        <time>2015-03-30T09:49:13Z</time>
      </trkpt>
      <trkpt lat="42.91165" lon="-0.4362">
        <ele>817.73852539062</ele>
        <time>2015-03-30T09:49:27Z</time>
      </trkpt>
      <trkpt lat="42.91162" lon="-0.43612">
        <ele>819.1806640625</ele>
        <time>2015-03-30T09:49:43Z</time>
      </trkpt>
      <trkpt lat="42.91165" lon="-0.43616">
        <ele>819.66137695312</ele>
        <time>2015-03-30T09:50:00Z</time>
      </trkpt>
      <trkpt lat="42.9116" lon="-0.43608">
        <ele>819.66137695312</ele>
        <time>2015-03-30T09:50:26Z</time>
      </trkpt>
      <trkpt lat="42.91163" lon="-0.43606">
        <ele>819.66137695312</ele>
        <time>2015-03-30T09:50:46Z</time>
      </trkpt>
      <trkpt lat="42.91162" lon="-0.43608">
        <ele>819.1806640625</ele>
        <time>2015-03-30T09:51:39Z</time>
      </trkpt>
      <trkpt lat="42.91166" lon="-0.43608">
        <ele>819.1806640625</ele>
        <time>2015-03-30T09:52:04Z</time>
      </trkpt>
      <trkpt lat="42.91166" lon="-0.4361">
        <ele>818.69995117188</ele>
        <time>2015-03-30T09:52:32Z</time>
      </trkpt>
      <trkpt lat="42.91167" lon="-0.43608">
        <ele>819.66137695312</ele>
        <time>2015-03-30T09:52:53Z</time>
      </trkpt>
      <trkpt lat="42.91182" lon="-0.43596">
        <ele>822.064453125</ele>
        <time>2015-03-30T09:53:13Z</time>
      </trkpt>
      <trkpt lat="42.91184" lon="-0.43594">
        <ele>822.54516601562</ele>
        <time>2015-03-30T09:53:16Z</time>
      </trkpt>
      <trkpt lat="42.91188" lon="-0.43573">
        <ele>824.4677734375</ele>
        <time>2015-03-30T09:53:34Z</time>
      </trkpt>
      <trkpt lat="42.91187" lon="-0.43569">
        <ele>824.94848632812</ele>
        <time>2015-03-30T09:53:37Z</time>
      </trkpt>
      <trkpt lat="42.91186" lon="-0.43563">
        <ele>825.42895507812</ele>
        <time>2015-03-30T09:53:41Z</time>
      </trkpt>
      <trkpt lat="42.91193" lon="-0.43538">
        <ele>827.83227539062</ele>
        <time>2015-03-30T09:53:59Z</time>
      </trkpt>
      <trkpt lat="42.91202" lon="-0.43526">
        <ele>827.83227539062</ele>
        <time>2015-03-30T09:54:10Z</time>
      </trkpt>
      <trkpt lat="42.9121" lon="-0.43497">
        <ele>828.7939453125</ele>
        <time>2015-03-30T09:54:29Z</time>
      </trkpt>
      <trkpt lat="42.9121" lon="-0.43469">
        <ele>830.23583984375</ele>
        <time>2015-03-30T09:54:48Z</time>
      </trkpt>
      <trkpt lat="42.91221" lon="-0.43446">
        <ele>831.197265625</ele>
        <time>2015-03-30T09:55:06Z</time>
      </trkpt>
      <trkpt lat="42.91222" lon="-0.43443">
        <ele>831.197265625</ele>
        <time>2015-03-30T09:55:08Z</time>
      </trkpt>
      <trkpt lat="42.91236" lon="-0.43429">
        <ele>833.60034179688</ele>
        <time>2015-03-30T09:55:27Z</time>
      </trkpt>
      <trkpt lat="42.9124" lon="-0.43427">
        <ele>835.04248046875</ele>
        <time>2015-03-30T09:55:32Z</time>
      </trkpt>
      <trkpt lat="42.91258" lon="-0.43428">
        <ele>837.44555664062</ele>
        <time>2015-03-30T09:55:51Z</time>
      </trkpt>
      <trkpt lat="42.91259" lon="-0.43428">
        <ele>837.44555664062</ele>
        <time>2015-03-30T09:56:11Z</time>
      </trkpt>
      <trkpt lat="42.91262" lon="-0.43431">
        <ele>837.44555664062</ele>
        <time>2015-03-30T09:56:32Z</time>
      </trkpt>
      <trkpt lat="42.9126" lon="-0.43429">
        <ele>836.96484375</ele>
        <time>2015-03-30T09:56:37Z</time>
      </trkpt>
      <trkpt lat="42.91248" lon="-0.43423">
        <ele>836.484375</ele>
        <time>2015-03-30T09:56:55Z</time>
      </trkpt>
      <trkpt lat="42.91247" lon="-0.4342">
        <ele>836.484375</ele>
        <time>2015-03-30T09:57:08Z</time>
      </trkpt>
      <trkpt lat="42.91247" lon="-0.43422">
        <ele>836.96484375</ele>
        <time>2015-03-30T09:57:37Z</time>
      </trkpt>
      <trkpt lat="42.91248" lon="-0.43427">
        <ele>836.00366210938</ele>
        <time>2015-03-30T09:57:50Z</time>
      </trkpt>
      <trkpt lat="42.91249" lon="-0.43426">
        <ele>836.484375</ele>
        <time>2015-03-30T09:58:02Z</time>
      </trkpt>
      <trkpt lat="42.91257" lon="-0.43429">
        <ele>836.96484375</ele>
        <time>2015-03-30T09:58:18Z</time>
      </trkpt>
      <trkpt lat="42.91258" lon="-0.4343">
        <ele>836.96484375</ele>
        <time>2015-03-30T09:58:20Z</time>
      </trkpt>
      <trkpt lat="42.91269" lon="-0.43436">
        <ele>836.00366210938</ele>
        <time>2015-03-30T09:58:36Z</time>
      </trkpt>
      <trkpt lat="42.91273" lon="-0.43439">
        <ele>836.484375</ele>
        <time>2015-03-30T09:59:09Z</time>
      </trkpt>
      <trkpt lat="42.91286" lon="-0.43449">
        <ele>836.484375</ele>
        <time>2015-03-30T09:59:25Z</time>
      </trkpt>
      <trkpt lat="42.91291" lon="-0.43453">
        <ele>835.52294921875</ele>
        <time>2015-03-30T09:59:31Z</time>
      </trkpt>
      <trkpt lat="42.913" lon="-0.43458">
        <ele>836.00366210938</ele>
        <time>2015-03-30T09:59:40Z</time>
      </trkpt>
      <trkpt lat="42.91314" lon="-0.43468">
        <ele>837.44555664062</ele>
        <time>2015-03-30T09:59:54Z</time>
      </trkpt>
      <trkpt lat="42.91319" lon="-0.43472">
        <ele>837.44555664062</ele>
        <time>2015-03-30T10:00:01Z</time>
      </trkpt>
      <trkpt lat="42.91336" lon="-0.43484">
        <ele>836.484375</ele>
        <time>2015-03-30T10:00:18Z</time>
      </trkpt>
      <trkpt lat="42.91349" lon="-0.43484">
        <ele>838.40698242188</ele>
        <time>2015-03-30T10:00:36Z</time>
      </trkpt>
      <trkpt lat="42.9135" lon="-0.43483">
        <ele>838.40698242188</ele>
        <time>2015-03-30T10:00:58Z</time>
      </trkpt>
      <trkpt lat="42.91351" lon="-0.43486">
        <ele>839.3681640625</ele>
        <time>2015-03-30T10:01:26Z</time>
      </trkpt>
      <trkpt lat="42.91352" lon="-0.43485">
        <ele>839.84887695312</ele>
        <time>2015-03-30T10:01:54Z</time>
      </trkpt>
      <trkpt lat="42.91353" lon="-0.43485">
        <ele>839.3681640625</ele>
        <time>2015-03-30T10:02:10Z</time>
      </trkpt>
      <trkpt lat="42.91357" lon="-0.43487">
        <ele>839.3681640625</ele>
        <time>2015-03-30T10:02:31Z</time>
      </trkpt>
      <trkpt lat="42.91356" lon="-0.43487">
        <ele>838.8876953125</ele>
        <time>2015-03-30T10:02:42Z</time>
      </trkpt>
      <trkpt lat="42.91354" lon="-0.43484">
        <ele>839.3681640625</ele>
        <time>2015-03-30T10:02:59Z</time>
      </trkpt>
      <trkpt lat="42.91354" lon="-0.43484">
        <ele>837.92626953125</ele>
        <time>2015-03-30T10:03:10Z</time>
      </trkpt>
      <trkpt lat="42.91356" lon="-0.43484">
        <ele>838.40698242188</ele>
        <time>2015-03-30T10:03:21Z</time>
      </trkpt>
      <trkpt lat="42.91353" lon="-0.43482">
        <ele>838.40698242188</ele>
        <time>2015-03-30T10:03:33Z</time>
      </trkpt>
      <trkpt lat="42.91354" lon="-0.43482">
        <ele>838.8876953125</ele>
        <time>2015-03-30T10:04:11Z</time>
      </trkpt>
      <trkpt lat="42.91355" lon="-0.43488">
        <ele>838.40698242188</ele>
        <time>2015-03-30T10:05:00Z</time>
      </trkpt>
      <trkpt lat="42.91353" lon="-0.43486">
        <ele>838.40698242188</ele>
        <time>2015-03-30T10:05:16Z</time>
      </trkpt>
      <trkpt lat="42.91353" lon="-0.43488">
        <ele>838.8876953125</ele>
        <time>2015-03-30T10:05:29Z</time>
      </trkpt>
      <trkpt lat="42.91351" lon="-0.43486">
        <ele>838.40698242188</ele>
        <time>2015-03-30T10:05:44Z</time>
      </trkpt>
      <trkpt lat="42.91357" lon="-0.43488">
        <ele>839.3681640625</ele>
        <time>2015-03-30T10:06:56Z</time>
      </trkpt>
      <trkpt lat="42.91357" lon="-0.43485">
        <ele>837.92626953125</ele>
        <time>2015-03-30T10:07:19Z</time>
      </trkpt>
      <trkpt lat="42.9136" lon="-0.43489">
        <ele>837.92626953125</ele>
        <time>2015-03-30T10:08:08Z</time>
      </trkpt>
      <trkpt lat="42.91359" lon="-0.43495">
        <ele>838.40698242188</ele>
        <time>2015-03-30T10:08:50Z</time>
      </trkpt>
      <trkpt lat="42.91362" lon="-0.43493">
        <ele>838.8876953125</ele>
        <time>2015-03-30T10:09:08Z</time>
      </trkpt>
      <trkpt lat="42.9137" lon="-0.43496">
        <ele>837.44555664062</ele>
        <time>2015-03-30T10:09:20Z</time>
      </trkpt>
      <trkpt lat="42.91377" lon="-0.43498">
        <ele>836.96484375</ele>
        <time>2015-03-30T10:09:27Z</time>
      </trkpt>
      <trkpt lat="42.9138" lon="-0.43499">
        <ele>836.96484375</ele>
        <time>2015-03-30T10:09:34Z</time>
      </trkpt>
      <trkpt lat="42.91391" lon="-0.4351">
        <ele>836.00366210938</ele>
        <time>2015-03-30T10:09:52Z</time>
      </trkpt>
      <trkpt lat="42.91391" lon="-0.4351">
        <ele>836.96484375</ele>
        <time>2015-03-30T10:09:58Z</time>
      </trkpt>
      <trkpt lat="42.91377" lon="-0.435">
        <ele>836.00366210938</ele>
        <time>2015-03-30T10:10:16Z</time>
      </trkpt>
      <trkpt lat="42.91372" lon="-0.43497">
        <ele>836.96484375</ele>
        <time>2015-03-30T10:10:20Z</time>
      </trkpt>
      <trkpt lat="42.91365" lon="-0.43493">
        <ele>837.92626953125</ele>
        <time>2015-03-30T10:10:33Z</time>
      </trkpt>
      <trkpt lat="42.91359" lon="-0.43492">
        <ele>839.84887695312</ele>
        <time>2015-03-30T10:10:47Z</time>
      </trkpt>
      <trkpt lat="42.91362" lon="-0.43494">
        <ele>839.3681640625</ele>
        <time>2015-03-30T10:11:05Z</time>
      </trkpt>
      <trkpt lat="42.91358" lon="-0.43491">
        <ele>839.3681640625</ele>
        <time>2015-03-30T10:11:17Z</time>
      </trkpt>
      <trkpt lat="42.91358" lon="-0.43485">
        <ele>838.8876953125</ele>
        <time>2015-03-30T10:11:59Z</time>
      </trkpt>
      <trkpt lat="42.91355" lon="-0.43485">
        <ele>840.32958984375</ele>
        <time>2015-03-30T10:13:01Z</time>
      </trkpt>
      <trkpt lat="42.91363" lon="-0.43487">
        <ele>840.32958984375</ele>
        <time>2015-03-30T10:13:14Z</time>
      </trkpt>
      <trkpt lat="42.91369" lon="-0.43488">
        <ele>839.3681640625</ele>
        <time>2015-03-30T10:13:27Z</time>
      </trkpt>
      <trkpt lat="42.91369" lon="-0.43488">
        <ele>838.8876953125</ele>
        <time>2015-03-30T10:13:40Z</time>
      </trkpt>
      <trkpt lat="42.91369" lon="-0.43488">
        <ele>838.8876953125</ele>
        <time>2015-03-30T10:14:00Z</time>
      </trkpt>
      <trkpt lat="42.91372" lon="-0.43488">
        <ele>839.3681640625</ele>
        <time>2015-03-30T10:14:21Z</time>
      </trkpt>
      <trkpt lat="42.91371" lon="-0.43489">
        <ele>839.84887695312</ele>
        <time>2015-03-30T10:14:32Z</time>
      </trkpt>
      <trkpt lat="42.91371" lon="-0.43489">
        <ele>839.3681640625</ele>
        <time>2015-03-30T10:14:57Z</time>
      </trkpt>
      <trkpt lat="42.91372" lon="-0.4349">
        <ele>839.3681640625</ele>
        <time>2015-03-30T10:14:58Z</time>
      </trkpt>
      <trkpt lat="42.91376" lon="-0.4349">
        <ele>838.8876953125</ele>
        <time>2015-03-30T10:15:05Z</time>
      </trkpt>
      <trkpt lat="42.9137" lon="-0.43489">
        <ele>838.8876953125</ele>
        <time>2015-03-30T10:15:17Z</time>
      </trkpt>
      <trkpt lat="42.91371" lon="-0.43489">
        <ele>839.3681640625</ele>
        <time>2015-03-30T10:15:26Z</time>
      </trkpt>
      <trkpt lat="42.91375" lon="-0.43489">
        <ele>839.3681640625</ele>
        <time>2015-03-30T10:15:31Z</time>
      </trkpt>
      <trkpt lat="42.91368" lon="-0.43487">
        <ele>839.3681640625</ele>
        <time>2015-03-30T10:15:46Z</time>
      </trkpt>
      <trkpt lat="42.9137" lon="-0.4349">
        <ele>839.3681640625</ele>
        <time>2015-03-30T10:16:02Z</time>
      </trkpt>
      <trkpt lat="42.91372" lon="-0.43492">
        <ele>840.32958984375</ele>
        <time>2015-03-30T10:16:27Z</time>
      </trkpt>
      <trkpt lat="42.91376" lon="-0.43494">
        <ele>839.3681640625</ele>
        <time>2015-03-30T10:16:38Z</time>
      </trkpt>
      <trkpt lat="42.91377" lon="-0.43494">
        <ele>839.84887695312</ele>
        <time>2015-03-30T10:16:46Z</time>
      </trkpt>
      <trkpt lat="42.91363" lon="-0.43486">
        <ele>842.25219726562</ele>
        <time>2015-03-30T10:17:02Z</time>
      </trkpt>
      <trkpt lat="42.9136" lon="-0.43485">
        <ele>842.25219726562</ele>
        <time>2015-03-30T10:17:05Z</time>
      </trkpt>
      <trkpt lat="42.91351" lon="-0.43464">
        <ele>845.61694335938</ele>
        <time>2015-03-30T10:17:22Z</time>
      </trkpt>
      <trkpt lat="42.91348" lon="-0.43457">
        <ele>846.57836914062</ele>
        <time>2015-03-30T10:17:33Z</time>
      </trkpt>
      <trkpt lat="42.91351" lon="-0.43462">
        <ele>845.13623046875</ele>
        <time>2015-03-30T10:17:38Z</time>
      </trkpt>
      <trkpt lat="42.91355" lon="-0.43483">
        <ele>842.25219726562</ele>
        <time>2015-03-30T10:17:54Z</time>
      </trkpt>
      <trkpt lat="42.91356" lon="-0.43487">
        <ele>843.21337890625</ele>
        <time>2015-03-30T10:18:03Z</time>
      </trkpt>
      <trkpt lat="42.9137" lon="-0.43494">
        <ele>840.81005859375</ele>
        <time>2015-03-30T10:18:18Z</time>
      </trkpt>
      <trkpt lat="42.9137" lon="-0.43494">
        <ele>840.81005859375</ele>
        <time>2015-03-30T10:18:37Z</time>
      </trkpt>
      <trkpt lat="42.91372" lon="-0.43493">
        <ele>840.81005859375</ele>
        <time>2015-03-30T10:18:50Z</time>
      </trkpt>
      <trkpt lat="42.91371" lon="-0.43494">
        <ele>840.81005859375</ele>
        <time>2015-03-30T10:19:11Z</time>
      </trkpt>
      <trkpt lat="42.91371" lon="-0.43493">
        <ele>841.771484375</ele>
        <time>2015-03-30T10:19:33Z</time>
      </trkpt>
      <trkpt lat="42.91372" lon="-0.43494">
        <ele>841.771484375</ele>
        <time>2015-03-30T10:19:43Z</time>
      </trkpt>
      <trkpt lat="42.91371" lon="-0.43492">
        <ele>841.771484375</ele>
        <time>2015-03-30T10:19:56Z</time>
      </trkpt>
      <trkpt lat="42.9137" lon="-0.43492">
        <ele>842.25219726562</ele>
        <time>2015-03-30T10:20:07Z</time>
      </trkpt>
      <trkpt lat="42.91372" lon="-0.4349">
        <ele>841.771484375</ele>
        <time>2015-03-30T10:20:48Z</time>
      </trkpt>
      <trkpt lat="42.91373" lon="-0.43489">
        <ele>842.25219726562</ele>
        <time>2015-03-30T10:20:58Z</time>
      </trkpt>
      <trkpt lat="42.91373" lon="-0.43489">
        <ele>842.25219726562</ele>
        <time>2015-03-30T10:21:08Z</time>
      </trkpt>
      <trkpt lat="42.91372" lon="-0.43491">
        <ele>842.25219726562</ele>
        <time>2015-03-30T10:21:15Z</time>
      </trkpt>
      <trkpt lat="42.91377" lon="-0.43494">
        <ele>841.29077148438</ele>
        <time>2015-03-30T10:21:26Z</time>
      </trkpt>
      <trkpt lat="42.91374" lon="-0.43493">
        <ele>841.29077148438</ele>
        <time>2015-03-30T10:21:32Z</time>
      </trkpt>
      <trkpt lat="42.91372" lon="-0.43493">
        <ele>841.29077148438</ele>
        <time>2015-03-30T10:21:48Z</time>
      </trkpt>
      <trkpt lat="42.91372" lon="-0.43493">
        <ele>841.771484375</ele>
        <time>2015-03-30T10:21:58Z</time>
      </trkpt>
      <trkpt lat="42.91378" lon="-0.43495">
        <ele>840.81005859375</ele>
        <time>2015-03-30T10:22:08Z</time>
      </trkpt>
      <trkpt lat="42.91373" lon="-0.43493">
        <ele>841.771484375</ele>
        <time>2015-03-30T10:22:24Z</time>
      </trkpt>
      <trkpt lat="42.91372" lon="-0.43493">
        <ele>840.81005859375</ele>
        <time>2015-03-30T10:22:36Z</time>
      </trkpt>
      <trkpt lat="42.91372" lon="-0.43495">
        <ele>841.29077148438</ele>
        <time>2015-03-30T10:22:49Z</time>
      </trkpt>
      <trkpt lat="42.91373" lon="-0.43494">
        <ele>840.32958984375</ele>
        <time>2015-03-30T10:23:04Z</time>
      </trkpt>
      <trkpt lat="42.91373" lon="-0.43495">
        <ele>840.32958984375</ele>
        <time>2015-03-30T10:23:34Z</time>
      </trkpt>
      <trkpt lat="42.91372" lon="-0.43495">
        <ele>840.81005859375</ele>
        <time>2015-03-30T10:24:28Z</time>
      </trkpt>
      <trkpt lat="42.91373" lon="-0.43494">
        <ele>841.771484375</ele>
        <time>2015-03-30T10:25:05Z</time>
      </trkpt>
      <trkpt lat="42.91374" lon="-0.43493">
        <ele>840.81005859375</ele>
        <time>2015-03-30T10:25:06Z</time>
      </trkpt>
      <trkpt lat="42.91372" lon="-0.43495">
        <ele>841.771484375</ele>
        <time>2015-03-30T10:25:17Z</time>
      </trkpt>
      <trkpt lat="42.91374" lon="-0.43495">
        <ele>840.81005859375</ele>
        <time>2015-03-30T10:25:59Z</time>
      </trkpt>
      <trkpt lat="42.91378" lon="-0.43496">
        <ele>840.81005859375</ele>
        <time>2015-03-30T10:26:08Z</time>
      </trkpt>
      <trkpt lat="42.91367" lon="-0.43494">
        <ele>842.25219726562</ele>
        <time>2015-03-30T10:26:26Z</time>
      </trkpt>
      <trkpt lat="42.91365" lon="-0.43492">
        <ele>842.25219726562</ele>
        <time>2015-03-30T10:26:50Z</time>
      </trkpt>
      <trkpt lat="42.91364" lon="-0.43492">
        <ele>842.25219726562</ele>
        <time>2015-03-30T10:26:54Z</time>
      </trkpt>
      <trkpt lat="42.9137" lon="-0.43494">
        <ele>840.81005859375</ele>
        <time>2015-03-30T10:27:11Z</time>
      </trkpt>
      <trkpt lat="42.91369" lon="-0.43494">
        <ele>841.29077148438</ele>
        <time>2015-03-30T10:27:13Z</time>
      </trkpt>
      <trkpt lat="42.91365" lon="-0.43493">
        <ele>841.771484375</ele>
        <time>2015-03-30T10:27:29Z</time>
      </trkpt>
      <trkpt lat="42.9137" lon="-0.43492">
        <ele>841.29077148438</ele>
        <time>2015-03-30T10:27:43Z</time>
      </trkpt>
      <trkpt lat="42.9137" lon="-0.43493">
        <ele>840.81005859375</ele>
        <time>2015-03-30T10:27:58Z</time>
      </trkpt>
      <trkpt lat="42.91366" lon="-0.43492">
        <ele>842.25219726562</ele>
        <time>2015-03-30T10:28:09Z</time>
      </trkpt>
      <trkpt lat="42.91366" lon="-0.43492">
        <ele>842.25219726562</ele>
        <time>2015-03-30T10:28:10Z</time>
      </trkpt>
      <trkpt lat="42.91366" lon="-0.43492">
        <ele>841.771484375</ele>
        <time>2015-03-30T10:28:25Z</time>
      </trkpt>
      <trkpt lat="42.91365" lon="-0.4349">
        <ele>842.25219726562</ele>
        <time>2015-03-30T10:28:50Z</time>
      </trkpt>
      <trkpt lat="42.91366" lon="-0.43491">
        <ele>842.25219726562</ele>
        <time>2015-03-30T10:28:51Z</time>
      </trkpt>
      <trkpt lat="42.91371" lon="-0.43494">
        <ele>841.29077148438</ele>
        <time>2015-03-30T10:29:07Z</time>
      </trkpt>
      <trkpt lat="42.91372" lon="-0.43494">
        <ele>841.29077148438</ele>
        <time>2015-03-30T10:29:42Z</time>
      </trkpt>
      <trkpt lat="42.91368" lon="-0.43491">
        <ele>842.25219726562</ele>
        <time>2015-03-30T10:30:00Z</time>
      </trkpt>
      <trkpt lat="42.91368" lon="-0.43491">
        <ele>841.771484375</ele>
        <time>2015-03-30T10:30:17Z</time>
      </trkpt>
      <trkpt lat="42.91364" lon="-0.4349">
        <ele>842.25219726562</ele>
        <time>2015-03-30T10:30:34Z</time>
      </trkpt>
      <trkpt lat="42.91356" lon="-0.43483">
        <ele>843.69409179688</ele>
        <time>2015-03-30T10:30:49Z</time>
      </trkpt>
      <trkpt lat="42.91354" lon="-0.43481">
        <ele>843.69409179688</ele>
        <time>2015-03-30T10:30:55Z</time>
      </trkpt>
      <trkpt lat="42.91347" lon="-0.43464">
        <ele>846.57836914062</ele>
        <time>2015-03-30T10:31:12Z</time>
      </trkpt>
      <trkpt lat="42.91334" lon="-0.43445">
        <ele>848.9814453125</ele>
        <time>2015-03-30T10:31:31Z</time>
      </trkpt>
      <trkpt lat="42.91331" lon="-0.43437">
        <ele>848.9814453125</ele>
        <time>2015-03-30T10:31:37Z</time>
      </trkpt>
      <trkpt lat="42.91324" lon="-0.43422">
        <ele>849.46215820312</ele>
        <time>2015-03-30T10:31:50Z</time>
      </trkpt>
      <trkpt lat="42.91318" lon="-0.43416">
        <ele>851.384765625</ele>
        <time>2015-03-30T10:31:57Z</time>
      </trkpt>
      <trkpt lat="42.91308" lon="-0.43395">
        <ele>853.30737304688</ele>
        <time>2015-03-30T10:32:17Z</time>
      </trkpt>
      <trkpt lat="42.91306" lon="-0.43378">
        <ele>854.26879882812</ele>
        <time>2015-03-30T10:32:32Z</time>
      </trkpt>
      <trkpt lat="42.91303" lon="-0.4336">
        <ele>856.671875</ele>
        <time>2015-03-30T10:32:48Z</time>
      </trkpt>
      <trkpt lat="42.913" lon="-0.4335">
        <ele>857.63330078125</ele>
        <time>2015-03-30T10:32:55Z</time>
      </trkpt>
      <trkpt lat="42.91288" lon="-0.43338">
        <ele>859.55590820312</ele>
        <time>2015-03-30T10:33:13Z</time>
      </trkpt>
      <trkpt lat="42.91283" lon="-0.43327">
        <ele>860.998046875</ele>
        <time>2015-03-30T10:33:28Z</time>
      </trkpt>
      <trkpt lat="42.91282" lon="-0.43316">
        <ele>861.95947265625</ele>
        <time>2015-03-30T10:33:42Z</time>
      </trkpt>
      <trkpt lat="42.91281" lon="-0.43318">
        <ele>861.95947265625</ele>
        <time>2015-03-30T10:34:00Z</time>
      </trkpt>
      <trkpt lat="42.91279" lon="-0.4332">
        <ele>861.95947265625</ele>
        <time>2015-03-30T10:34:16Z</time>
      </trkpt>
      <trkpt lat="42.91274" lon="-0.43324">
        <ele>861.95947265625</ele>
        <time>2015-03-30T10:34:44Z</time>
      </trkpt>
      <trkpt lat="42.9127" lon="-0.43328">
        <ele>861.95947265625</ele>
        <time>2015-03-30T10:35:13Z</time>
      </trkpt>
      <trkpt lat="42.91277" lon="-0.43322">
        <ele>861.47875976562</ele>
        <time>2015-03-30T10:35:33Z</time>
      </trkpt>
      <trkpt lat="42.91274" lon="-0.43324">
        <ele>862.92065429688</ele>
        <time>2015-03-30T10:36:20Z</time>
      </trkpt>
      <trkpt lat="42.91276" lon="-0.43321">
        <ele>862.92065429688</ele>
        <time>2015-03-30T10:36:40Z</time>
      </trkpt>
      <trkpt lat="42.91273" lon="-0.43323">
        <ele>862.92065429688</ele>
        <time>2015-03-30T10:36:53Z</time>
      </trkpt>
      <trkpt lat="42.91273" lon="-0.43323">
        <ele>863.4013671875</ele>
        <time>2015-03-30T10:37:07Z</time>
      </trkpt>
      <trkpt lat="42.91274" lon="-0.43322">
        <ele>863.4013671875</ele>
        <time>2015-03-30T10:37:26Z</time>
      </trkpt>
      <trkpt lat="42.91278" lon="-0.4332">
        <ele>862.92065429688</ele>
        <time>2015-03-30T10:37:41Z</time>
      </trkpt>
      <trkpt lat="42.91279" lon="-0.4332">
        <ele>863.4013671875</ele>
        <time>2015-03-30T10:38:01Z</time>
      </trkpt>
      <trkpt lat="42.91278" lon="-0.43321">
        <ele>862.92065429688</ele>
        <time>2015-03-30T10:38:16Z</time>
      </trkpt>
      <trkpt lat="42.91278" lon="-0.43328">
        <ele>862.92065429688</ele>
        <time>2015-03-30T10:38:30Z</time>
      </trkpt>
      <trkpt lat="42.91277" lon="-0.43328">
        <ele>862.92065429688</ele>
        <time>2015-03-30T10:38:59Z</time>
      </trkpt>
      <trkpt lat="42.91277" lon="-0.43329">
        <ele>862.92065429688</ele>
        <time>2015-03-30T10:39:12Z</time>
      </trkpt>
      <trkpt lat="42.91283" lon="-0.43336">
        <ele>862.92065429688</ele>
        <time>2015-03-30T10:39:21Z</time>
      </trkpt>
      <trkpt lat="42.91288" lon="-0.43335">
        <ele>862.92065429688</ele>
        <time>2015-03-30T10:39:35Z</time>
      </trkpt>
      <trkpt lat="42.91289" lon="-0.4334">
        <ele>862.92065429688</ele>
        <time>2015-03-30T10:39:48Z</time>
      </trkpt>
      <trkpt lat="42.91284" lon="-0.43344">
        <ele>862.43994140625</ele>
        <time>2015-03-30T10:40:02Z</time>
      </trkpt>
      <trkpt lat="42.91285" lon="-0.43342">
        <ele>862.92065429688</ele>
        <time>2015-03-30T10:40:14Z</time>
      </trkpt>
      <trkpt lat="42.91286" lon="-0.43341">
        <ele>862.43994140625</ele>
        <time>2015-03-30T10:40:34Z</time>
      </trkpt>
      <trkpt lat="42.91286" lon="-0.43342">
        <ele>862.92065429688</ele>
        <time>2015-03-30T10:40:52Z</time>
      </trkpt>
      <trkpt lat="42.91284" lon="-0.4334">
        <ele>862.92065429688</ele>
        <time>2015-03-30T10:40:59Z</time>
      </trkpt>
      <trkpt lat="42.91286" lon="-0.43339">
        <ele>862.43994140625</ele>
        <time>2015-03-30T10:41:08Z</time>
      </trkpt>
      <trkpt lat="42.91287" lon="-0.4334">
        <ele>862.92065429688</ele>
        <time>2015-03-30T10:41:25Z</time>
      </trkpt>
      <trkpt lat="42.91289" lon="-0.43338">
        <ele>862.92065429688</ele>
        <time>2015-03-30T10:41:48Z</time>
      </trkpt>
      <trkpt lat="42.91287" lon="-0.43339">
        <ele>862.43994140625</ele>
        <time>2015-03-30T10:42:26Z</time>
      </trkpt>
      <trkpt lat="42.91288" lon="-0.43339">
        <ele>863.4013671875</ele>
        <time>2015-03-30T10:42:48Z</time>
      </trkpt>
      <trkpt lat="42.91288" lon="-0.43335">
        <ele>863.4013671875</ele>
        <time>2015-03-30T10:43:15Z</time>
      </trkpt>
      <trkpt lat="42.9129" lon="-0.43337">
        <ele>862.92065429688</ele>
        <time>2015-03-30T10:43:29Z</time>
      </trkpt>
      <trkpt lat="42.91285" lon="-0.4333">
        <ele>863.8818359375</ele>
        <time>2015-03-30T10:43:46Z</time>
      </trkpt>
      <trkpt lat="42.91284" lon="-0.4333">
        <ele>864.36254882812</ele>
        <time>2015-03-30T10:43:47Z</time>
      </trkpt>
      <trkpt lat="42.9128" lon="-0.43328">
        <ele>863.8818359375</ele>
        <time>2015-03-30T10:43:54Z</time>
      </trkpt>
      <trkpt lat="42.91275" lon="-0.43332">
        <ele>860.998046875</ele>
        <time>2015-03-30T10:44:06Z</time>
      </trkpt>
      <trkpt lat="42.91271" lon="-0.43339">
        <ele>859.55590820312</ele>
        <time>2015-03-30T10:44:23Z</time>
      </trkpt>
      <trkpt lat="42.91272" lon="-0.43343">
        <ele>860.51733398438</ele>
        <time>2015-03-30T10:44:41Z</time>
      </trkpt>
      <trkpt lat="42.91273" lon="-0.43336">
        <ele>861.95947265625</ele>
        <time>2015-03-30T10:44:53Z</time>
      </trkpt>
      <trkpt lat="42.91274" lon="-0.43331">
        <ele>861.47875976562</ele>
        <time>2015-03-30T10:45:13Z</time>
      </trkpt>
      <trkpt lat="42.91271" lon="-0.43339">
        <ele>859.55590820312</ele>
        <time>2015-03-30T10:45:27Z</time>
      </trkpt>
      <trkpt lat="42.91269" lon="-0.43349">
        <ele>859.0751953125</ele>
        <time>2015-03-30T10:45:42Z</time>
      </trkpt>
      <trkpt lat="42.91272" lon="-0.43346">
        <ele>858.59448242188</ele>
        <time>2015-03-30T10:45:57Z</time>
      </trkpt>
      <trkpt lat="42.91269" lon="-0.43347">
        <ele>859.0751953125</ele>
        <time>2015-03-30T10:46:20Z</time>
      </trkpt>
      <trkpt lat="42.91269" lon="-0.43349">
        <ele>858.59448242188</ele>
        <time>2015-03-30T10:46:34Z</time>
      </trkpt>
      <trkpt lat="42.91267" lon="-0.43356">
        <ele>855.71069335938</ele>
        <time>2015-03-30T10:46:47Z</time>
      </trkpt>
      <trkpt lat="42.91267" lon="-0.43352">
        <ele>856.19116210938</ele>
        <time>2015-03-30T10:47:06Z</time>
      </trkpt>
      <trkpt lat="42.91269" lon="-0.43345">
        <ele>859.0751953125</ele>
        <time>2015-03-30T10:47:14Z</time>
      </trkpt>
      <trkpt lat="42.91268" lon="-0.43351">
        <ele>857.15258789062</ele>
        <time>2015-03-30T10:47:27Z</time>
      </trkpt>
      <trkpt lat="42.91269" lon="-0.43354">
        <ele>855.71069335938</ele>
        <time>2015-03-30T10:47:39Z</time>
      </trkpt>
      <trkpt lat="42.91269" lon="-0.43358">
        <ele>856.19116210938</ele>
        <time>2015-03-30T10:47:56Z</time>
      </trkpt>
      <trkpt lat="42.91268" lon="-0.4336">
        <ele>856.19116210938</ele>
        <time>2015-03-30T10:48:13Z</time>
      </trkpt>
      <trkpt lat="42.91267" lon="-0.43358">
        <ele>855.71069335938</ele>
        <time>2015-03-30T10:48:27Z</time>
      </trkpt>
      <trkpt lat="42.91264" lon="-0.43362">
        <ele>855.71069335938</ele>
        <time>2015-03-30T10:48:41Z</time>
      </trkpt>
      <trkpt lat="42.91264" lon="-0.4336">
        <ele>856.19116210938</ele>
        <time>2015-03-30T10:48:52Z</time>
      </trkpt>
      <trkpt lat="42.91264" lon="-0.4336">
        <ele>856.671875</ele>
        <time>2015-03-30T10:49:27Z</time>
      </trkpt>
      <trkpt lat="42.91263" lon="-0.43362">
        <ele>857.15258789062</ele>
        <time>2015-03-30T10:50:04Z</time>
      </trkpt>
      <trkpt lat="42.91263" lon="-0.4336">
        <ele>857.15258789062</ele>
        <time>2015-03-30T10:50:27Z</time>
      </trkpt>
      <trkpt lat="42.91265" lon="-0.43357">
        <ele>857.15258789062</ele>
        <time>2015-03-30T10:50:44Z</time>
      </trkpt>
      <trkpt lat="42.91269" lon="-0.43356">
        <ele>857.63330078125</ele>
        <time>2015-03-30T10:51:03Z</time>
      </trkpt>
      <trkpt lat="42.91265" lon="-0.43362">
        <ele>857.15258789062</ele>
        <time>2015-03-30T10:51:27Z</time>
      </trkpt>
      <trkpt lat="42.91262" lon="-0.43369">
        <ele>856.19116210938</ele>
        <time>2015-03-30T10:51:39Z</time>
      </trkpt>
      <trkpt lat="42.91264" lon="-0.4337">
        <ele>856.19116210938</ele>
        <time>2015-03-30T10:51:49Z</time>
      </trkpt>
      <trkpt lat="42.91265" lon="-0.43372">
        <ele>855.71069335938</ele>
        <time>2015-03-30T10:52:13Z</time>
      </trkpt>
      <trkpt lat="42.91265" lon="-0.43373">
        <ele>856.19116210938</ele>
        <time>2015-03-30T10:52:34Z</time>
      </trkpt>
      <trkpt lat="42.91265" lon="-0.43375">
        <ele>856.19116210938</ele>
        <time>2015-03-30T10:52:50Z</time>
      </trkpt>
      <trkpt lat="42.9126" lon="-0.43375">
        <ele>855.71069335938</ele>
        <time>2015-03-30T10:53:04Z</time>
      </trkpt>
      <trkpt lat="42.91261" lon="-0.43373">
        <ele>856.19116210938</ele>
        <time>2015-03-30T10:53:44Z</time>
      </trkpt>
      <trkpt lat="42.91263" lon="-0.43374">
        <ele>856.671875</ele>
        <time>2015-03-30T10:54:05Z</time>
      </trkpt>
      <trkpt lat="42.91263" lon="-0.43374">
        <ele>856.671875</ele>
        <time>2015-03-30T10:54:47Z</time>
      </trkpt>
      <trkpt lat="42.91261" lon="-0.43383">
        <ele>854.26879882812</ele>
        <time>2015-03-30T10:54:59Z</time>
      </trkpt>
      <trkpt lat="42.91259" lon="-0.43391">
        <ele>852.82666015625</ele>
        <time>2015-03-30T10:55:08Z</time>
      </trkpt>
      <trkpt lat="42.91256" lon="-0.43401">
        <ele>850.90405273438</ele>
        <time>2015-03-30T10:55:21Z</time>
      </trkpt>
      <trkpt lat="42.91257" lon="-0.43405">
        <ele>849.94287109375</ele>
        <time>2015-03-30T10:55:41Z</time>
      </trkpt>
      <trkpt lat="42.91257" lon="-0.43406">
        <ele>850.42358398438</ele>
        <time>2015-03-30T10:55:59Z</time>
      </trkpt>
      <trkpt lat="42.91252" lon="-0.43417">
        <ele>848.50073242188</ele>
        <time>2015-03-30T10:56:17Z</time>
      </trkpt>
      <trkpt lat="42.91255" lon="-0.43417">
        <ele>848.50073242188</ele>
        <time>2015-03-30T10:56:38Z</time>
      </trkpt>
      <trkpt lat="42.91253" lon="-0.4342">
        <ele>848.9814453125</ele>
        <time>2015-03-30T10:56:55Z</time>
      </trkpt>
      <trkpt lat="42.9125" lon="-0.43422">
        <ele>846.57836914062</ele>
        <time>2015-03-30T10:57:06Z</time>
      </trkpt>
      <trkpt lat="42.91251" lon="-0.43421">
        <ele>847.53955078125</ele>
        <time>2015-03-30T10:57:35Z</time>
      </trkpt>
      <trkpt lat="42.91245" lon="-0.43422">
        <ele>848.02026367188</ele>
        <time>2015-03-30T10:58:10Z</time>
      </trkpt>
      <trkpt lat="42.9125" lon="-0.43429">
        <ele>848.02026367188</ele>
        <time>2015-03-30T10:58:24Z</time>
      </trkpt>
      <trkpt lat="42.91256" lon="-0.43429">
        <ele>848.02026367188</ele>
        <time>2015-03-30T10:58:37Z</time>
      </trkpt>
      <trkpt lat="42.91255" lon="-0.43425">
        <ele>848.50073242188</ele>
        <time>2015-03-30T10:58:50Z</time>
      </trkpt>
      <trkpt lat="42.91251" lon="-0.43421">
        <ele>848.02026367188</ele>
        <time>2015-03-30T10:59:04Z</time>
      </trkpt>
      <trkpt lat="42.91251" lon="-0.43422">
        <ele>847.05883789062</ele>
        <time>2015-03-30T10:59:15Z</time>
      </trkpt>
      <trkpt lat="42.91252" lon="-0.43422">
        <ele>847.53955078125</ele>
        <time>2015-03-30T10:59:29Z</time>
      </trkpt>
      <trkpt lat="42.91251" lon="-0.43421">
        <ele>848.02026367188</ele>
        <time>2015-03-30T11:00:11Z</time>
      </trkpt>
      <trkpt lat="42.91251" lon="-0.43417">
        <ele>847.53955078125</ele>
        <time>2015-03-30T11:00:35Z</time>
      </trkpt>
      <trkpt lat="42.91251" lon="-0.4342">
        <ele>847.53955078125</ele>
        <time>2015-03-30T11:00:57Z</time>
      </trkpt>
      <trkpt lat="42.91248" lon="-0.43428">
        <ele>847.53955078125</ele>
        <time>2015-03-30T11:01:27Z</time>
      </trkpt>
      <trkpt lat="42.91248" lon="-0.43425">
        <ele>846.57836914062</ele>
        <time>2015-03-30T11:01:45Z</time>
      </trkpt>
      <trkpt lat="42.91244" lon="-0.43426">
        <ele>845.13623046875</ele>
        <time>2015-03-30T11:02:02Z</time>
      </trkpt>
      <trkpt lat="42.91241" lon="-0.43427">
        <ele>844.65551757812</ele>
        <time>2015-03-30T11:02:09Z</time>
      </trkpt>
      <trkpt lat="42.91248" lon="-0.43425">
        <ele>846.57836914062</ele>
        <time>2015-03-30T11:02:23Z</time>
      </trkpt>
      <trkpt lat="42.91253" lon="-0.43427">
        <ele>847.53955078125</ele>
        <time>2015-03-30T11:02:36Z</time>
      </trkpt>
      <trkpt lat="42.91256" lon="-0.43429">
        <ele>847.53955078125</ele>
        <time>2015-03-30T11:02:54Z</time>
      </trkpt>
      <trkpt lat="42.91259" lon="-0.43428">
        <ele>847.53955078125</ele>
        <time>2015-03-30T11:03:14Z</time>
      </trkpt>
      <trkpt lat="42.91259" lon="-0.4343">
        <ele>848.02026367188</ele>
        <time>2015-03-30T11:03:31Z</time>
      </trkpt>
      <trkpt lat="42.91264" lon="-0.43434">
        <ele>847.53955078125</ele>
        <time>2015-03-30T11:03:39Z</time>
      </trkpt>
      <trkpt lat="42.9125" lon="-0.43423">
        <ele>847.05883789062</ele>
        <time>2015-03-30T11:03:56Z</time>
      </trkpt>
      <trkpt lat="42.9125" lon="-0.43424">
        <ele>847.05883789062</ele>
        <time>2015-03-30T11:04:05Z</time>
      </trkpt>
      <trkpt lat="42.91252" lon="-0.43426">
        <ele>846.57836914062</ele>
        <time>2015-03-30T11:04:07Z</time>
      </trkpt>
      <trkpt lat="42.91272" lon="-0.43438">
        <ele>848.02026367188</ele>
        <time>2015-03-30T11:04:28Z</time>
      </trkpt>
      <trkpt lat="42.91273" lon="-0.43437">
        <ele>847.05883789062</ele>
        <time>2015-03-30T11:04:43Z</time>
      </trkpt>
      <trkpt lat="42.91271" lon="-0.43439">
        <ele>847.53955078125</ele>
        <time>2015-03-30T11:05:12Z</time>
      </trkpt>
      <trkpt lat="42.9127" lon="-0.4344">
        <ele>847.53955078125</ele>
        <time>2015-03-30T11:05:24Z</time>
      </trkpt>
      <trkpt lat="42.91269" lon="-0.4344">
        <ele>848.02026367188</ele>
        <time>2015-03-30T11:05:41Z</time>
      </trkpt>
      <trkpt lat="42.9127" lon="-0.43439">
        <ele>848.02026367188</ele>
        <time>2015-03-30T11:05:54Z</time>
      </trkpt>
      <trkpt lat="42.91268" lon="-0.43442">
        <ele>848.50073242188</ele>
        <time>2015-03-30T11:06:36Z</time>
      </trkpt>
      <trkpt lat="42.91268" lon="-0.4344">
        <ele>848.50073242188</ele>
        <time>2015-03-30T11:06:57Z</time>
      </trkpt>
      <trkpt lat="42.91268" lon="-0.4344">
        <ele>848.50073242188</ele>
        <time>2015-03-30T11:07:21Z</time>
      </trkpt>
      <trkpt lat="42.91268" lon="-0.43437">
        <ele>848.50073242188</ele>
        <time>2015-03-30T11:07:28Z</time>
      </trkpt>
      <trkpt lat="42.91259" lon="-0.43431">
        <ele>848.50073242188</ele>
        <time>2015-03-30T11:07:44Z</time>
      </trkpt>
      <trkpt lat="42.91259" lon="-0.43429">
        <ele>848.9814453125</ele>
        <time>2015-03-30T11:07:55Z</time>
      </trkpt>
      <trkpt lat="42.91256" lon="-0.43433">
        <ele>848.9814453125</ele>
        <time>2015-03-30T11:08:09Z</time>
      </trkpt>
      <trkpt lat="42.91255" lon="-0.43437">
        <ele>848.50073242188</ele>
        <time>2015-03-30T11:08:19Z</time>
      </trkpt>
      <trkpt lat="42.9125" lon="-0.43443">
        <ele>848.9814453125</ele>
        <time>2015-03-30T11:08:40Z</time>
      </trkpt>
      <trkpt lat="42.91256" lon="-0.43433">
        <ele>848.50073242188</ele>
        <time>2015-03-30T11:09:02Z</time>
      </trkpt>
      <trkpt lat="42.91255" lon="-0.43434">
        <ele>848.9814453125</ele>
        <time>2015-03-30T11:09:25Z</time>
      </trkpt>
      <trkpt lat="42.91256" lon="-0.4343">
        <ele>848.9814453125</ele>
        <time>2015-03-30T11:09:41Z</time>
      </trkpt>
      <trkpt lat="42.91255" lon="-0.4343">
        <ele>848.50073242188</ele>
        <time>2015-03-30T11:10:06Z</time>
      </trkpt>
      <trkpt lat="42.91255" lon="-0.43429">
        <ele>848.02026367188</ele>
        <time>2015-03-30T11:10:24Z</time>
      </trkpt>
      <trkpt lat="42.9125" lon="-0.43428">
        <ele>848.50073242188</ele>
        <time>2015-03-30T11:10:46Z</time>
      </trkpt>
      <trkpt lat="42.91242" lon="-0.43426">
        <ele>846.09765625</ele>
        <time>2015-03-30T11:10:59Z</time>
      </trkpt>
      <trkpt lat="42.91237" lon="-0.43426">
        <ele>845.61694335938</ele>
        <time>2015-03-30T11:11:10Z</time>
      </trkpt>
      <trkpt lat="42.91244" lon="-0.43423">
        <ele>847.05883789062</ele>
        <time>2015-03-30T11:11:19Z</time>
      </trkpt>
      <trkpt lat="42.9125" lon="-0.43418">
        <ele>850.42358398438</ele>
        <time>2015-03-30T11:11:32Z</time>
      </trkpt>
      <trkpt lat="42.91257" lon="-0.43409">
        <ele>852.34594726562</ele>
        <time>2015-03-30T11:11:48Z</time>
      </trkpt>
      <trkpt lat="42.91258" lon="-0.43401">
        <ele>853.30737304688</ele>
        <time>2015-03-30T11:11:58Z</time>
      </trkpt>
      <trkpt lat="42.91257" lon="-0.43396">
        <ele>853.7880859375</ele>
        <time>2015-03-30T11:12:14Z</time>
      </trkpt>
      <trkpt lat="42.91261" lon="-0.43381">
        <ele>856.19116210938</ele>
        <time>2015-03-30T11:12:30Z</time>
      </trkpt>
      <trkpt lat="42.91262" lon="-0.43378">
        <ele>857.15258789062</ele>
        <time>2015-03-30T11:12:35Z</time>
      </trkpt>
      <trkpt lat="42.91266" lon="-0.43368">
        <ele>858.59448242188</ele>
        <time>2015-03-30T11:12:46Z</time>
      </trkpt>
      <trkpt lat="42.91267" lon="-0.43362">
        <ele>860.998046875</ele>
        <time>2015-03-30T11:12:58Z</time>
      </trkpt>
      <trkpt lat="42.91267" lon="-0.43354">
        <ele>863.8818359375</ele>
        <time>2015-03-30T11:13:22Z</time>
      </trkpt>
      <trkpt lat="42.91274" lon="-0.43338">
        <ele>865.32397460938</ele>
        <time>2015-03-30T11:13:35Z</time>
      </trkpt>
      <trkpt lat="42.91279" lon="-0.43334">
        <ele>866.28515625</ele>
        <time>2015-03-30T11:13:46Z</time>
      </trkpt>
      <trkpt lat="42.91277" lon="-0.43339">
        <ele>863.4013671875</ele>
        <time>2015-03-30T11:14:03Z</time>
      </trkpt>
      <trkpt lat="42.91277" lon="-0.43338">
        <ele>867.24658203125</ele>
        <time>2015-03-30T11:14:04Z</time>
      </trkpt>
      <trkpt lat="42.91279" lon="-0.43334">
        <ele>866.28515625</ele>
        <time>2015-03-30T11:14:17Z</time>
      </trkpt>
      <trkpt lat="42.91286" lon="-0.43343">
        <ele>865.32397460938</ele>
        <time>2015-03-30T11:14:36Z</time>
      </trkpt>
      <trkpt lat="42.91299" lon="-0.43357">
        <ele>864.36254882812</ele>
        <time>2015-03-30T11:14:54Z</time>
      </trkpt>
      <trkpt lat="42.91302" lon="-0.43363">
        <ele>862.92065429688</ele>
        <time>2015-03-30T11:15:00Z</time>
      </trkpt>
      <trkpt lat="42.91305" lon="-0.4338">
        <ele>861.47875976562</ele>
        <time>2015-03-30T11:15:13Z</time>
      </trkpt>
      <trkpt lat="42.91307" lon="-0.43399">
        <ele>858.11401367188</ele>
        <time>2015-03-30T11:15:28Z</time>
      </trkpt>
      <trkpt lat="42.91317" lon="-0.43418">
        <ele>856.19116210938</ele>
        <time>2015-03-30T11:15:44Z</time>
      </trkpt>
      <trkpt lat="42.91326" lon="-0.43431">
        <ele>854.74926757812</ele>
        <time>2015-03-30T11:15:56Z</time>
      </trkpt>
      <trkpt lat="42.91337" lon="-0.43453">
        <ele>853.30737304688</ele>
        <time>2015-03-30T11:16:16Z</time>
      </trkpt>
      <trkpt lat="42.91347" lon="-0.43471">
        <ele>851.86547851562</ele>
        <time>2015-03-30T11:16:34Z</time>
      </trkpt>
      <trkpt lat="42.91353" lon="-0.43484">
        <ele>850.90405273438</ele>
        <time>2015-03-30T11:16:49Z</time>
      </trkpt>
      <trkpt lat="42.91359" lon="-0.43492">
        <ele>850.42358398438</ele>
        <time>2015-03-30T11:17:01Z</time>
      </trkpt>
      <trkpt lat="42.91365" lon="-0.43494">
        <ele>849.46215820312</ele>
        <time>2015-03-30T11:17:08Z</time>
      </trkpt>
      <trkpt lat="42.91377" lon="-0.43499">
        <ele>848.9814453125</ele>
        <time>2015-03-30T11:17:23Z</time>
      </trkpt>
      <trkpt lat="42.91387" lon="-0.43509">
        <ele>848.50073242188</ele>
        <time>2015-03-30T11:17:37Z</time>
      </trkpt>
      <trkpt lat="42.91395" lon="-0.43516">
        <ele>846.57836914062</ele>
        <time>2015-03-30T11:17:47Z</time>
      </trkpt>
      <trkpt lat="42.91406" lon="-0.4352">
        <ele>847.05883789062</ele>
        <time>2015-03-30T11:18:05Z</time>
      </trkpt>
      <trkpt lat="42.91411" lon="-0.43526">
        <ele>848.02026367188</ele>
        <time>2015-03-30T11:18:19Z</time>
      </trkpt>
      <trkpt lat="42.91414" lon="-0.43527">
        <ele>848.02026367188</ele>
        <time>2015-03-30T11:18:38Z</time>
      </trkpt>
      <trkpt lat="42.91425" lon="-0.43536">
        <ele>846.57836914062</ele>
        <time>2015-03-30T11:18:50Z</time>
      </trkpt>
      <trkpt lat="42.9144" lon="-0.43551">
        <ele>845.13623046875</ele>
        <time>2015-03-30T11:19:07Z</time>
      </trkpt>
      <trkpt lat="42.91441" lon="-0.43552">
        <ele>845.13623046875</ele>
        <time>2015-03-30T11:19:08Z</time>
      </trkpt>
      <trkpt lat="42.91447" lon="-0.43559">
        <ele>843.21337890625</ele>
        <time>2015-03-30T11:19:21Z</time>
      </trkpt>
      <trkpt lat="42.91453" lon="-0.43564">
        <ele>842.25219726562</ele>
        <time>2015-03-30T11:19:35Z</time>
      </trkpt>
      <trkpt lat="42.91455" lon="-0.4357">
        <ele>840.81005859375</ele>
        <time>2015-03-30T11:19:40Z</time>
      </trkpt>
      <trkpt lat="42.91465" lon="-0.43583">
        <ele>840.81005859375</ele>
        <time>2015-03-30T11:19:55Z</time>
      </trkpt>
      <trkpt lat="42.9147" lon="-0.43587">
        <ele>840.32958984375</ele>
        <time>2015-03-30T11:20:09Z</time>
      </trkpt>
      <trkpt lat="42.91474" lon="-0.4359">
        <ele>840.32958984375</ele>
        <time>2015-03-30T11:20:16Z</time>
      </trkpt>
      <trkpt lat="42.91483" lon="-0.43598">
        <ele>839.84887695312</ele>
        <time>2015-03-30T11:20:27Z</time>
      </trkpt>
      <trkpt lat="42.91484" lon="-0.43601">
        <ele>839.84887695312</ele>
        <time>2015-03-30T11:20:42Z</time>
      </trkpt>
      <trkpt lat="42.91476" lon="-0.43594">
        <ele>840.32958984375</ele>
        <time>2015-03-30T11:21:08Z</time>
      </trkpt>
      <trkpt lat="42.91478" lon="-0.43591">
        <ele>839.84887695312</ele>
        <time>2015-03-30T11:21:23Z</time>
      </trkpt>
      <trkpt lat="42.91487" lon="-0.43597">
        <ele>839.84887695312</ele>
        <time>2015-03-30T11:21:37Z</time>
      </trkpt>
      <trkpt lat="42.91505" lon="-0.43607">
        <ele>839.3681640625</ele>
        <time>2015-03-30T11:21:55Z</time>
      </trkpt>
      <trkpt lat="42.91513" lon="-0.4361">
        <ele>839.84887695312</ele>
        <time>2015-03-30T11:22:11Z</time>
      </trkpt>
      <trkpt lat="42.91532" lon="-0.43618">
        <ele>839.3681640625</ele>
        <time>2015-03-30T11:22:31Z</time>
      </trkpt>
      <trkpt lat="42.91538" lon="-0.43619">
        <ele>839.84887695312</ele>
        <time>2015-03-30T11:22:37Z</time>
      </trkpt>
      <trkpt lat="42.91542" lon="-0.43618">
        <ele>839.84887695312</ele>
        <time>2015-03-30T11:22:41Z</time>
      </trkpt>
      <trkpt lat="42.91548" lon="-0.4362">
        <ele>839.3681640625</ele>
        <time>2015-03-30T11:22:47Z</time>
      </trkpt>
      <trkpt lat="42.91566" lon="-0.43632">
        <ele>839.3681640625</ele>
        <time>2015-03-30T11:23:04Z</time>
      </trkpt>
      <trkpt lat="42.91574" lon="-0.43639">
        <ele>839.3681640625</ele>
        <time>2015-03-30T11:23:14Z</time>
      </trkpt>
      <trkpt lat="42.91579" lon="-0.43642">
        <ele>839.3681640625</ele>
        <time>2015-03-30T11:23:18Z</time>
      </trkpt>
      <trkpt lat="42.91591" lon="-0.43652">
        <ele>838.8876953125</ele>
        <time>2015-03-30T11:23:32Z</time>
      </trkpt>
      <trkpt lat="42.91598" lon="-0.43656">
        <ele>836.484375</ele>
        <time>2015-03-30T11:23:39Z</time>
      </trkpt>
      <trkpt lat="42.91606" lon="-0.43667">
        <ele>835.52294921875</ele>
        <time>2015-03-30T11:23:51Z</time>
      </trkpt>
      <trkpt lat="42.91612" lon="-0.43672">
        <ele>834.56176757812</ele>
        <time>2015-03-30T11:23:57Z</time>
      </trkpt>
      <trkpt lat="42.91627" lon="-0.43689">
        <ele>833.11962890625</ele>
        <time>2015-03-30T11:24:14Z</time>
      </trkpt>
      <trkpt lat="42.91638" lon="-0.43701">
        <ele>831.677734375</ele>
        <time>2015-03-30T11:24:27Z</time>
      </trkpt>
      <trkpt lat="42.91649" lon="-0.43714">
        <ele>830.23583984375</ele>
        <time>2015-03-30T11:24:42Z</time>
      </trkpt>
      <trkpt lat="42.91658" lon="-0.43724">
        <ele>827.35180664062</ele>
        <time>2015-03-30T11:24:54Z</time>
      </trkpt>
      <trkpt lat="42.91662" lon="-0.43729">
        <ele>826.39038085938</ele>
        <time>2015-03-30T11:24:59Z</time>
      </trkpt>
      <trkpt lat="42.91664" lon="-0.43731">
        <ele>826.39038085938</ele>
        <time>2015-03-30T11:25:01Z</time>
      </trkpt>
      <trkpt lat="42.9168" lon="-0.43749">
        <ele>824.94848632812</ele>
        <time>2015-03-30T11:25:19Z</time>
      </trkpt>
      <trkpt lat="42.91682" lon="-0.43751">
        <ele>825.42895507812</ele>
        <time>2015-03-30T11:25:21Z</time>
      </trkpt>
      <trkpt lat="42.91692" lon="-0.43761">
        <ele>825.42895507812</ele>
        <time>2015-03-30T11:25:37Z</time>
      </trkpt>
      <trkpt lat="42.91691" lon="-0.43761">
        <ele>826.39038085938</ele>
        <time>2015-03-30T11:25:38Z</time>
      </trkpt>
      <trkpt lat="42.91689" lon="-0.43762">
        <ele>825.42895507812</ele>
        <time>2015-03-30T11:25:50Z</time>
      </trkpt>
      <trkpt lat="42.91694" lon="-0.43765">
        <ele>824.94848632812</ele>
        <time>2015-03-30T11:26:36Z</time>
      </trkpt>
      <trkpt lat="42.91697" lon="-0.43765">
        <ele>825.90966796875</ele>
        <time>2015-03-30T11:26:57Z</time>
      </trkpt>
      <trkpt lat="42.917" lon="-0.43761">
        <ele>825.42895507812</ele>
        <time>2015-03-30T11:27:37Z</time>
      </trkpt>
      <trkpt lat="42.91705" lon="-0.43763">
        <ele>824.94848632812</ele>
        <time>2015-03-30T11:27:42Z</time>
      </trkpt>
      <trkpt lat="42.9171" lon="-0.43766">
        <ele>823.98706054688</ele>
        <time>2015-03-30T11:27:49Z</time>
      </trkpt>
      <trkpt lat="42.91724" lon="-0.43769">
        <ele>825.90966796875</ele>
        <time>2015-03-30T11:28:05Z</time>
      </trkpt>
      <trkpt lat="42.91729" lon="-0.43776">
        <ele>823.02587890625</ele>
        <time>2015-03-30T11:28:18Z</time>
      </trkpt>
      <trkpt lat="42.91729" lon="-0.43777">
        <ele>823.02587890625</ele>
        <time>2015-03-30T11:28:19Z</time>
      </trkpt>
      <trkpt lat="42.91731" lon="-0.43781">
        <ele>821.10327148438</ele>
        <time>2015-03-30T11:28:25Z</time>
      </trkpt>
      <trkpt lat="42.91737" lon="-0.4379">
        <ele>820.62255859375</ele>
        <time>2015-03-30T11:28:34Z</time>
      </trkpt>
      <trkpt lat="42.91743" lon="-0.438">
        <ele>819.1806640625</ele>
        <time>2015-03-30T11:28:42Z</time>
      </trkpt>
      <trkpt lat="42.91756" lon="-0.43822">
        <ele>818.69995117188</ele>
        <time>2015-03-30T11:29:00Z</time>
      </trkpt>
      <trkpt lat="42.91761" lon="-0.43833">
        <ele>818.69995117188</ele>
        <time>2015-03-30T11:29:11Z</time>
      </trkpt>
      <trkpt lat="42.91762" lon="-0.43837">
        <ele>818.21923828125</ele>
        <time>2015-03-30T11:29:22Z</time>
      </trkpt>
      <trkpt lat="42.91764" lon="-0.43841">
        <ele>817.73852539062</ele>
        <time>2015-03-30T11:29:38Z</time>
      </trkpt>
      <trkpt lat="42.91769" lon="-0.43846">
        <ele>816.77734375</ele>
        <time>2015-03-30T11:29:57Z</time>
      </trkpt>
      <trkpt lat="42.91769" lon="-0.43845">
        <ele>816.29663085938</ele>
        <time>2015-03-30T11:30:08Z</time>
      </trkpt>
      <trkpt lat="42.91766" lon="-0.43847">
        <ele>817.25805664062</ele>
        <time>2015-03-30T11:30:22Z</time>
      </trkpt>
      <trkpt lat="42.91766" lon="-0.43851">
        <ele>816.77734375</ele>
        <time>2015-03-30T11:30:45Z</time>
      </trkpt>
      <trkpt lat="42.91766" lon="-0.43852">
        <ele>816.77734375</ele>
        <time>2015-03-30T11:31:02Z</time>
      </trkpt>
      <trkpt lat="42.9177" lon="-0.43851">
        <ele>815.33544921875</ele>
        <time>2015-03-30T11:31:18Z</time>
      </trkpt>
      <trkpt lat="42.91777" lon="-0.43849">
        <ele>815.33544921875</ele>
        <time>2015-03-30T11:31:32Z</time>
      </trkpt>
      <trkpt lat="42.91781" lon="-0.4385">
        <ele>816.29663085938</ele>
        <time>2015-03-30T11:31:50Z</time>
      </trkpt>
      <trkpt lat="42.9178" lon="-0.43852">
        <ele>814.85473632812</ele>
        <time>2015-03-30T11:32:07Z</time>
      </trkpt>
      <trkpt lat="42.91781" lon="-0.43851">
        <ele>813.41284179688</ele>
        <time>2015-03-30T11:32:21Z</time>
      </trkpt>
      <trkpt lat="42.91779" lon="-0.43853">
        <ele>811.970703125</ele>
        <time>2015-03-30T11:32:36Z</time>
      </trkpt>
      <trkpt lat="42.91779" lon="-0.43858">
        <ele>810.52856445312</ele>
        <time>2015-03-30T11:32:52Z</time>
      </trkpt>
      <trkpt lat="42.91782" lon="-0.43866">
        <ele>808.12548828125</ele>
        <time>2015-03-30T11:33:06Z</time>
      </trkpt>
      <trkpt lat="42.91783" lon="-0.43879">
        <ele>806.68334960938</ele>
        <time>2015-03-30T11:33:21Z</time>
      </trkpt>
      <trkpt lat="42.91782" lon="-0.43891">
        <ele>805.72216796875</ele>
        <time>2015-03-30T11:33:32Z</time>
      </trkpt>
      <trkpt lat="42.91784" lon="-0.43903">
        <ele>805.72216796875</ele>
        <time>2015-03-30T11:33:46Z</time>
      </trkpt>
      <trkpt lat="42.91788" lon="-0.43913">
        <ele>805.72216796875</ele>
        <time>2015-03-30T11:33:57Z</time>
      </trkpt>
      <trkpt lat="42.9179" lon="-0.43925">
        <ele>805.24145507812</ele>
        <time>2015-03-30T11:34:09Z</time>
      </trkpt>
      <trkpt lat="42.91792" lon="-0.43935">
        <ele>805.24145507812</ele>
        <time>2015-03-30T11:34:18Z</time>
      </trkpt>
      <trkpt lat="42.91798" lon="-0.4396">
        <ele>805.24145507812</ele>
        <time>2015-03-30T11:34:35Z</time>
      </trkpt>
      <trkpt lat="42.91808" lon="-0.43976">
        <ele>805.72216796875</ele>
        <time>2015-03-30T11:34:50Z</time>
      </trkpt>
      <trkpt lat="42.91811" lon="-0.43985">
        <ele>805.24145507812</ele>
        <time>2015-03-30T11:35:05Z</time>
      </trkpt>
      <trkpt lat="42.91811" lon="-0.43993">
        <ele>805.72216796875</ele>
        <time>2015-03-30T11:35:16Z</time>
      </trkpt>
      <trkpt lat="42.91813" lon="-0.44004">
        <ele>805.72216796875</ele>
        <time>2015-03-30T11:35:27Z</time>
      </trkpt>
      <trkpt lat="42.91816" lon="-0.44015">
        <ele>806.20263671875</ele>
        <time>2015-03-30T11:35:42Z</time>
      </trkpt>
      <trkpt lat="42.91819" lon="-0.44023">
        <ele>806.20263671875</ele>
        <time>2015-03-30T11:35:59Z</time>
      </trkpt>
      <trkpt lat="42.91819" lon="-0.44032">
        <ele>806.20263671875</ele>
        <time>2015-03-30T11:36:13Z</time>
      </trkpt>
      <trkpt lat="42.91823" lon="-0.4404">
        <ele>805.72216796875</ele>
        <time>2015-03-30T11:36:27Z</time>
      </trkpt>
      <trkpt lat="42.91828" lon="-0.44054">
        <ele>806.20263671875</ele>
        <time>2015-03-30T11:36:40Z</time>
      </trkpt>
      <trkpt lat="42.91833" lon="-0.44063">
        <ele>806.20263671875</ele>
        <time>2015-03-30T11:36:47Z</time>
      </trkpt>
      <trkpt lat="42.91836" lon="-0.4407">
        <ele>805.72216796875</ele>
        <time>2015-03-30T11:36:54Z</time>
      </trkpt>
      <trkpt lat="42.91843" lon="-0.44081">
        <ele>805.72216796875</ele>
        <time>2015-03-30T11:37:13Z</time>
      </trkpt>
      <trkpt lat="42.91845" lon="-0.44085">
        <ele>805.72216796875</ele>
        <time>2015-03-30T11:37:33Z</time>
      </trkpt>
      <trkpt lat="42.91845" lon="-0.4408">
        <ele>805.72216796875</ele>
        <time>2015-03-30T11:37:43Z</time>
      </trkpt>
      <trkpt lat="42.91843" lon="-0.44082">
        <ele>805.72216796875</ele>
        <time>2015-03-30T11:37:55Z</time>
      </trkpt>
      <trkpt lat="42.91845" lon="-0.44088">
        <ele>804.7607421875</ele>
        <time>2015-03-30T11:38:09Z</time>
      </trkpt>
      <trkpt lat="42.91854" lon="-0.44101">
        <ele>803.31884765625</ele>
        <time>2015-03-30T11:38:24Z</time>
      </trkpt>
      <trkpt lat="42.91862" lon="-0.44109">
        <ele>802.83813476562</ele>
        <time>2015-03-30T11:38:40Z</time>
      </trkpt>
      <trkpt lat="42.91869" lon="-0.44124">
        <ele>801.876953125</ele>
        <time>2015-03-30T11:39:14Z</time>
      </trkpt>
      <trkpt lat="42.91873" lon="-0.44134">
        <ele>801.876953125</ele>
        <time>2015-03-30T11:39:24Z</time>
      </trkpt>
      <trkpt lat="42.91879" lon="-0.44147">
        <ele>801.876953125</ele>
        <time>2015-03-30T11:39:38Z</time>
      </trkpt>
      <trkpt lat="42.91885" lon="-0.44156">
        <ele>801.876953125</ele>
        <time>2015-03-30T11:39:52Z</time>
      </trkpt>
      <trkpt lat="42.91887" lon="-0.4416">
        <ele>801.876953125</ele>
        <time>2015-03-30T11:40:10Z</time>
      </trkpt>
      <trkpt lat="42.91882" lon="-0.4416">
        <ele>801.876953125</ele>
        <time>2015-03-30T11:40:40Z</time>
      </trkpt>
      <trkpt lat="42.91887" lon="-0.44154">
        <ele>801.876953125</ele>
        <time>2015-03-30T11:41:07Z</time>
      </trkpt>
      <trkpt lat="42.9189" lon="-0.44156">
        <ele>802.357421875</ele>
        <time>2015-03-30T11:41:49Z</time>
      </trkpt>
      <trkpt lat="42.91892" lon="-0.44154">
        <ele>801.876953125</ele>
        <time>2015-03-30T11:42:07Z</time>
      </trkpt>
      <trkpt lat="42.9189" lon="-0.44156">
        <ele>802.357421875</ele>
        <time>2015-03-30T11:42:39Z</time>
      </trkpt>
      <trkpt lat="42.91892" lon="-0.44161">
        <ele>801.876953125</ele>
        <time>2015-03-30T11:42:56Z</time>
      </trkpt>
      <trkpt lat="42.91893" lon="-0.44168">
        <ele>801.876953125</ele>
        <time>2015-03-30T11:43:14Z</time>
      </trkpt>
      <trkpt lat="42.91893" lon="-0.4417">
        <ele>801.876953125</ele>
        <time>2015-03-30T11:43:35Z</time>
      </trkpt>
      <trkpt lat="42.91894" lon="-0.44174">
        <ele>801.876953125</ele>
        <time>2015-03-30T11:43:45Z</time>
      </trkpt>
      <trkpt lat="42.91892" lon="-0.44176">
        <ele>801.876953125</ele>
        <time>2015-03-30T11:43:47Z</time>
      </trkpt>
      <trkpt lat="42.91891" lon="-0.44184">
        <ele>801.39624023438</ele>
        <time>2015-03-30T11:43:56Z</time>
      </trkpt>
      <trkpt lat="42.91895" lon="-0.44192">
        <ele>801.39624023438</ele>
        <time>2015-03-30T11:44:10Z</time>
      </trkpt>
      <trkpt lat="42.91898" lon="-0.4419">
        <ele>801.876953125</ele>
        <time>2015-03-30T11:44:28Z</time>
      </trkpt>
      <trkpt lat="42.91901" lon="-0.44187">
        <ele>801.876953125</ele>
        <time>2015-03-30T11:44:58Z</time>
      </trkpt>
      <trkpt lat="42.9191" lon="-0.44194">
        <ele>802.357421875</ele>
        <time>2015-03-30T11:45:11Z</time>
      </trkpt>
      <trkpt lat="42.91915" lon="-0.44197">
        <ele>802.357421875</ele>
        <time>2015-03-30T11:45:21Z</time>
      </trkpt>
      <trkpt lat="42.91913" lon="-0.44196">
        <ele>802.357421875</ele>
        <time>2015-03-30T11:45:48Z</time>
      </trkpt>
      <trkpt lat="42.91914" lon="-0.44199">
        <ele>802.357421875</ele>
        <time>2015-03-30T11:46:11Z</time>
      </trkpt>
      <trkpt lat="42.91914" lon="-0.44202">
        <ele>802.83813476562</ele>
        <time>2015-03-30T11:46:33Z</time>
      </trkpt>
      <trkpt lat="42.91919" lon="-0.44195">
        <ele>802.357421875</ele>
        <time>2015-03-30T11:46:55Z</time>
      </trkpt>
      <trkpt lat="42.91928" lon="-0.44195">
        <ele>803.31884765625</ele>
        <time>2015-03-30T11:47:08Z</time>
      </trkpt>
      <trkpt lat="42.91935" lon="-0.44196">
        <ele>803.31884765625</ele>
        <time>2015-03-30T11:47:19Z</time>
      </trkpt>
      <trkpt lat="42.91942" lon="-0.442">
        <ele>802.83813476562</ele>
        <time>2015-03-30T11:47:31Z</time>
      </trkpt>
      <trkpt lat="42.91947" lon="-0.44208">
        <ele>802.83813476562</ele>
        <time>2015-03-30T11:48:06Z</time>
      </trkpt>
      <trkpt lat="42.91949" lon="-0.44203">
        <ele>802.83813476562</ele>
        <time>2015-03-30T11:48:19Z</time>
      </trkpt>
      <trkpt lat="42.91948" lon="-0.44211">
        <ele>801.876953125</ele>
        <time>2015-03-30T11:48:45Z</time>
      </trkpt>
      <trkpt lat="42.91949" lon="-0.44212">
        <ele>802.357421875</ele>
        <time>2015-03-30T11:48:47Z</time>
      </trkpt>
      <trkpt lat="42.91935" lon="-0.44219">
        <ele>802.83813476562</ele>
        <time>2015-03-30T11:49:01Z</time>
      </trkpt>
      <trkpt lat="42.91941" lon="-0.44217">
        <ele>802.83813476562</ele>
        <time>2015-03-30T11:49:12Z</time>
      </trkpt>
      <trkpt lat="42.9195" lon="-0.44211">
        <ele>802.357421875</ele>
        <time>2015-03-30T11:49:33Z</time>
      </trkpt>
      <trkpt lat="42.9196" lon="-0.44214">
        <ele>803.31884765625</ele>
        <time>2015-03-30T11:49:57Z</time>
      </trkpt>
      <trkpt lat="42.91968" lon="-0.44217">
        <ele>802.357421875</ele>
        <time>2015-03-30T11:50:14Z</time>
      </trkpt>
      <trkpt lat="42.91968" lon="-0.44221">
        <ele>801.39624023438</ele>
        <time>2015-03-30T11:50:17Z</time>
      </trkpt>
      <trkpt lat="42.91974" lon="-0.44226">
        <ele>801.39624023438</ele>
        <time>2015-03-30T11:50:27Z</time>
      </trkpt>
      <trkpt lat="42.91982" lon="-0.44229">
        <ele>804.2802734375</ele>
        <time>2015-03-30T11:50:44Z</time>
      </trkpt>
      <trkpt lat="42.91992" lon="-0.44229">
        <ele>804.7607421875</ele>
        <time>2015-03-30T11:51:04Z</time>
      </trkpt>
      <trkpt lat="42.91998" lon="-0.44232">
        <ele>803.79956054688</ele>
        <time>2015-03-30T11:51:25Z</time>
      </trkpt>
      <trkpt lat="42.92002" lon="-0.44234">
        <ele>801.39624023438</ele>
        <time>2015-03-30T11:51:44Z</time>
      </trkpt>
      <trkpt lat="42.92009" lon="-0.4424">
        <ele>800.43505859375</ele>
        <time>2015-03-30T11:51:59Z</time>
      </trkpt>
      <trkpt lat="42.92017" lon="-0.44246">
        <ele>800.91552734375</ele>
        <time>2015-03-30T11:52:11Z</time>
      </trkpt>
      <trkpt lat="42.92024" lon="-0.44251">
        <ele>802.357421875</ele>
        <time>2015-03-30T11:52:21Z</time>
      </trkpt>
      <trkpt lat="42.9203" lon="-0.44256">
        <ele>804.2802734375</ele>
        <time>2015-03-30T11:52:31Z</time>
      </trkpt>
      <trkpt lat="42.92038" lon="-0.44264">
        <ele>804.7607421875</ele>
        <time>2015-03-30T11:52:41Z</time>
      </trkpt>
      <trkpt lat="42.92045" lon="-0.44274">
        <ele>802.357421875</ele>
        <time>2015-03-30T11:52:58Z</time>
      </trkpt>
      <trkpt lat="42.9204" lon="-0.44285">
        <ele>798.99291992188</ele>
        <time>2015-03-30T11:53:18Z</time>
      </trkpt>
      <trkpt lat="42.9205" lon="-0.44301">
        <ele>799.95434570312</ele>
        <time>2015-03-30T11:53:43Z</time>
      </trkpt>
      <trkpt lat="42.92054" lon="-0.44303">
        <ele>800.43505859375</ele>
        <time>2015-03-30T11:53:46Z</time>
      </trkpt>
      <trkpt lat="42.92062" lon="-0.44308">
        <ele>800.43505859375</ele>
        <time>2015-03-30T11:53:58Z</time>
      </trkpt>
      <trkpt lat="42.92063" lon="-0.4431">
        <ele>799.95434570312</ele>
        <time>2015-03-30T11:54:00Z</time>
      </trkpt>
      <trkpt lat="42.92058" lon="-0.44316">
        <ele>799.95434570312</ele>
        <time>2015-03-30T11:54:07Z</time>
      </trkpt>
      <trkpt lat="42.9206" lon="-0.44321">
        <ele>799.95434570312</ele>
        <time>2015-03-30T11:54:10Z</time>
      </trkpt>
      <trkpt lat="42.92074" lon="-0.44338">
        <ele>799.95434570312</ele>
        <time>2015-03-30T11:54:25Z</time>
      </trkpt>
      <trkpt lat="42.92079" lon="-0.44344">
        <ele>799.95434570312</ele>
        <time>2015-03-30T11:54:30Z</time>
      </trkpt>
      <trkpt lat="42.92089" lon="-0.44352">
        <ele>799.95434570312</ele>
        <time>2015-03-30T11:54:44Z</time>
      </trkpt>
      <trkpt lat="42.92097" lon="-0.44359">
        <ele>799.4736328125</ele>
        <time>2015-03-30T11:54:53Z</time>
      </trkpt>
      <trkpt lat="42.92101" lon="-0.44365">
        <ele>799.4736328125</ele>
        <time>2015-03-30T11:55:07Z</time>
      </trkpt>
      <trkpt lat="42.92104" lon="-0.44372">
        <ele>798.51220703125</ele>
        <time>2015-03-30T11:55:18Z</time>
      </trkpt>
      <trkpt lat="42.92112" lon="-0.44382">
        <ele>798.03173828125</ele>
        <time>2015-03-30T11:55:30Z</time>
      </trkpt>
      <trkpt lat="42.92121" lon="-0.4439">
        <ele>798.51220703125</ele>
        <time>2015-03-30T11:55:42Z</time>
      </trkpt>
      <trkpt lat="42.92124" lon="-0.44391">
        <ele>798.99291992188</ele>
        <time>2015-03-30T11:55:45Z</time>
      </trkpt>
      <trkpt lat="42.92131" lon="-0.44395">
        <ele>798.51220703125</ele>
        <time>2015-03-30T11:55:52Z</time>
      </trkpt>
      <trkpt lat="42.92144" lon="-0.44407">
        <ele>798.99291992188</ele>
        <time>2015-03-30T11:56:05Z</time>
      </trkpt>
      <trkpt lat="42.92152" lon="-0.44418">
        <ele>798.03173828125</ele>
        <time>2015-03-30T11:56:16Z</time>
      </trkpt>
      <trkpt lat="42.92161" lon="-0.44426">
        <ele>797.0703125</ele>
        <time>2015-03-30T11:56:25Z</time>
      </trkpt>
      <trkpt lat="42.92168" lon="-0.44426">
        <ele>797.0703125</ele>
        <time>2015-03-30T11:56:32Z</time>
      </trkpt>
      <trkpt lat="42.92175" lon="-0.44429">
        <ele>796.58984375</ele>
        <time>2015-03-30T11:56:38Z</time>
      </trkpt>
      <trkpt lat="42.92178" lon="-0.44432">
        <ele>796.58984375</ele>
        <time>2015-03-30T11:56:41Z</time>
      </trkpt>
      <trkpt lat="42.9218" lon="-0.44434">
        <ele>796.10913085938</ele>
        <time>2015-03-30T11:56:43Z</time>
      </trkpt>
      <trkpt lat="42.92181" lon="-0.44438">
        <ele>796.10913085938</ele>
        <time>2015-03-30T11:56:46Z</time>
      </trkpt>
      <trkpt lat="42.92195" lon="-0.44444">
        <ele>796.10913085938</ele>
        <time>2015-03-30T11:56:58Z</time>
      </trkpt>
      <trkpt lat="42.92207" lon="-0.44452">
        <ele>795.62817382812</ele>
        <time>2015-03-30T11:57:10Z</time>
      </trkpt>
      <trkpt lat="42.92213" lon="-0.4446">
        <ele>795.1474609375</ele>
        <time>2015-03-30T11:57:19Z</time>
      </trkpt>
      <trkpt lat="42.92223" lon="-0.44464">
        <ele>794.18627929688</ele>
        <time>2015-03-30T11:57:30Z</time>
      </trkpt>
      <trkpt lat="42.92234" lon="-0.44471">
        <ele>794.18627929688</ele>
        <time>2015-03-30T11:57:42Z</time>
      </trkpt>
      <trkpt lat="42.92235" lon="-0.44472">
        <ele>794.18627929688</ele>
        <time>2015-03-30T11:57:44Z</time>
      </trkpt>
      <trkpt lat="42.92249" lon="-0.44475">
        <ele>795.1474609375</ele>
        <time>2015-03-30T11:57:56Z</time>
      </trkpt>
      <trkpt lat="42.92261" lon="-0.44484">
        <ele>795.1474609375</ele>
        <time>2015-03-30T11:58:09Z</time>
      </trkpt>
      <trkpt lat="42.92273" lon="-0.44488">
        <ele>796.10913085938</ele>
        <time>2015-03-30T11:58:21Z</time>
      </trkpt>
      <trkpt lat="42.92283" lon="-0.44491">
        <ele>796.58984375</ele>
        <time>2015-03-30T11:58:34Z</time>
      </trkpt>
      <trkpt lat="42.92289" lon="-0.44492">
        <ele>796.58984375</ele>
        <time>2015-03-30T11:58:41Z</time>
      </trkpt>
      <trkpt lat="42.92297" lon="-0.44498">
        <ele>796.58984375</ele>
        <time>2015-03-30T11:58:52Z</time>
      </trkpt>
      <trkpt lat="42.92301" lon="-0.44499">
        <ele>795.62817382812</ele>
        <time>2015-03-30T11:59:09Z</time>
      </trkpt>
      <trkpt lat="42.92309" lon="-0.44504">
        <ele>793.70556640625</ele>
        <time>2015-03-30T11:59:47Z</time>
      </trkpt>
      <trkpt lat="42.92312" lon="-0.44512">
        <ele>791.30224609375</ele>
        <time>2015-03-30T12:00:00Z</time>
      </trkpt>
      <trkpt lat="42.92317" lon="-0.4452">
        <ele>790.34106445312</ele>
        <time>2015-03-30T12:00:14Z</time>
      </trkpt>
      <trkpt lat="42.92319" lon="-0.44519">
        <ele>790.82153320312</ele>
        <time>2015-03-30T12:00:17Z</time>
      </trkpt>
      <trkpt lat="42.9233" lon="-0.44526">
        <ele>790.34106445312</ele>
        <time>2015-03-30T12:00:30Z</time>
      </trkpt>
      <trkpt lat="42.92337" lon="-0.44533">
        <ele>789.37963867188</ele>
        <time>2015-03-30T12:00:43Z</time>
      </trkpt>
      <trkpt lat="42.9235" lon="-0.4454">
        <ele>790.34106445312</ele>
        <time>2015-03-30T12:00:56Z</time>
      </trkpt>
      <trkpt lat="42.92354" lon="-0.44532">
        <ele>791.78295898438</ele>
        <time>2015-03-30T12:01:08Z</time>
      </trkpt>
      <trkpt lat="42.92366" lon="-0.44536">
        <ele>793.70556640625</ele>
        <time>2015-03-30T12:01:22Z</time>
      </trkpt>
      <trkpt lat="42.92367" lon="-0.4454">
        <ele>792.74438476562</ele>
        <time>2015-03-30T12:01:27Z</time>
      </trkpt>
      <trkpt lat="42.92377" lon="-0.44549">
        <ele>791.78295898438</ele>
        <time>2015-03-30T12:01:38Z</time>
      </trkpt>
      <trkpt lat="42.92388" lon="-0.44551">
        <ele>791.30224609375</ele>
        <time>2015-03-30T12:01:49Z</time>
      </trkpt>
      <trkpt lat="42.92396" lon="-0.44557">
        <ele>790.82153320312</ele>
        <time>2015-03-30T12:02:00Z</time>
      </trkpt>
      <trkpt lat="42.92406" lon="-0.44559">
        <ele>790.34106445312</ele>
        <time>2015-03-30T12:02:11Z</time>
      </trkpt>
      <trkpt lat="42.92413" lon="-0.44559">
        <ele>789.8603515625</ele>
        <time>2015-03-30T12:02:21Z</time>
      </trkpt>
      <trkpt lat="42.92418" lon="-0.44556">
        <ele>789.8603515625</ele>
        <time>2015-03-30T12:02:35Z</time>
      </trkpt>
      <trkpt lat="42.92427" lon="-0.44552">
        <ele>789.8603515625</ele>
        <time>2015-03-30T12:02:50Z</time>
      </trkpt>
      <trkpt lat="42.92433" lon="-0.44551">
        <ele>789.37963867188</ele>
        <time>2015-03-30T12:03:02Z</time>
      </trkpt>
      <trkpt lat="42.92444" lon="-0.44558">
        <ele>789.8603515625</ele>
        <time>2015-03-30T12:03:20Z</time>
      </trkpt>
      <trkpt lat="42.92449" lon="-0.44557">
        <ele>788.89916992188</ele>
        <time>2015-03-30T12:03:34Z</time>
      </trkpt>
      <trkpt lat="42.92456" lon="-0.44561">
        <ele>788.89916992188</ele>
        <time>2015-03-30T12:05:26Z</time>
      </trkpt>
      <trkpt lat="42.92458" lon="-0.44561">
        <ele>788.41845703125</ele>
        <time>2015-03-30T12:05:44Z</time>
      </trkpt>
      <trkpt lat="42.9246" lon="-0.44565">
        <ele>786.49584960938</ele>
        <time>2015-03-30T12:05:53Z</time>
      </trkpt>
      <trkpt lat="42.92469" lon="-0.44583">
        <ele>783.61181640625</ele>
        <time>2015-03-30T12:07:19Z</time>
      </trkpt>
      <trkpt lat="42.92472" lon="-0.44591">
        <ele>783.13110351562</ele>
        <time>2015-03-30T12:07:30Z</time>
      </trkpt>
      <trkpt lat="42.9248" lon="-0.44595">
        <ele>783.61181640625</ele>
        <time>2015-03-30T12:07:40Z</time>
      </trkpt>
      <trkpt lat="42.92485" lon="-0.44602">
        <ele>783.61181640625</ele>
        <time>2015-03-30T12:07:46Z</time>
      </trkpt>
      <trkpt lat="42.92489" lon="-0.44604">
        <ele>783.13110351562</ele>
        <time>2015-03-30T12:07:49Z</time>
      </trkpt>
      <trkpt lat="42.925" lon="-0.44612">
        <ele>783.13110351562</ele>
        <time>2015-03-30T12:08:03Z</time>
      </trkpt>
      <trkpt lat="42.92505" lon="-0.4462">
        <ele>783.13110351562</ele>
        <time>2015-03-30T12:08:09Z</time>
      </trkpt>
      <trkpt lat="42.92508" lon="-0.44624">
        <ele>783.13110351562</ele>
        <time>2015-03-30T12:08:13Z</time>
      </trkpt>
      <trkpt lat="42.92518" lon="-0.44628">
        <ele>784.09252929688</ele>
        <time>2015-03-30T12:08:28Z</time>
      </trkpt>
      <trkpt lat="42.92523" lon="-0.44633">
        <ele>785.53442382812</ele>
        <time>2015-03-30T12:08:40Z</time>
      </trkpt>
      <trkpt lat="42.92525" lon="-0.44631">
        <ele>788.41845703125</ele>
        <time>2015-03-30T12:08:52Z</time>
      </trkpt>
      <trkpt lat="42.92534" lon="-0.44635">
        <ele>790.82153320312</ele>
        <time>2015-03-30T12:09:04Z</time>
      </trkpt>
      <trkpt lat="42.92548" lon="-0.44638">
        <ele>792.74438476562</ele>
        <time>2015-03-30T12:09:20Z</time>
      </trkpt>
      <trkpt lat="42.92551" lon="-0.44638">
        <ele>794.66674804688</ele>
        <time>2015-03-30T12:09:24Z</time>
      </trkpt>
      <trkpt lat="42.92559" lon="-0.44645">
        <ele>796.10913085938</ele>
        <time>2015-03-30T12:09:37Z</time>
      </trkpt>
      <trkpt lat="42.92561" lon="-0.44652">
        <ele>798.99291992188</ele>
        <time>2015-03-30T12:09:56Z</time>
      </trkpt>
      <trkpt lat="42.92564" lon="-0.44653">
        <ele>802.357421875</ele>
        <time>2015-03-30T12:10:09Z</time>
      </trkpt>
      <trkpt lat="42.92579" lon="-0.44647">
        <ele>804.7607421875</ele>
        <time>2015-03-30T12:10:24Z</time>
      </trkpt>
      <trkpt lat="42.92593" lon="-0.44641">
        <ele>807.64477539062</ele>
        <time>2015-03-30T12:10:38Z</time>
      </trkpt>
      <trkpt lat="42.92596" lon="-0.44637">
        <ele>808.12548828125</ele>
        <time>2015-03-30T12:10:42Z</time>
      </trkpt>
      <trkpt lat="42.92604" lon="-0.44625">
        <ele>808.60595703125</ele>
        <time>2015-03-30T12:10:57Z</time>
      </trkpt>
      <trkpt lat="42.92609" lon="-0.44618">
        <ele>810.52856445312</ele>
        <time>2015-03-30T12:11:13Z</time>
      </trkpt>
      <trkpt lat="42.92609" lon="-0.44616">
        <ele>811.48999023438</ele>
        <time>2015-03-30T12:11:32Z</time>
      </trkpt>
      <trkpt lat="42.92609" lon="-0.44613">
        <ele>811.48999023438</ele>
        <time>2015-03-30T12:12:27Z</time>
      </trkpt>
      <trkpt lat="42.92611" lon="-0.44613">
        <ele>811.00927734375</ele>
        <time>2015-03-30T12:12:46Z</time>
      </trkpt>
      <trkpt lat="42.92611" lon="-0.44618">
        <ele>810.52856445312</ele>
        <time>2015-03-30T12:13:33Z</time>
      </trkpt>
      <trkpt lat="42.92615" lon="-0.44606">
        <ele>812.45141601562</ele>
        <time>2015-03-30T12:13:53Z</time>
      </trkpt>
      <trkpt lat="42.92622" lon="-0.446">
        <ele>813.89331054688</ele>
        <time>2015-03-30T12:14:06Z</time>
      </trkpt>
      <trkpt lat="42.92629" lon="-0.44595">
        <ele>815.33544921875</ele>
        <time>2015-03-30T12:14:18Z</time>
      </trkpt>
      <trkpt lat="42.92633" lon="-0.44591">
        <ele>818.69995117188</ele>
        <time>2015-03-30T12:14:30Z</time>
      </trkpt>
      <trkpt lat="42.92644" lon="-0.44587">
        <ele>819.66137695312</ele>
        <time>2015-03-30T12:14:44Z</time>
      </trkpt>
      <trkpt lat="42.9266" lon="-0.44578">
        <ele>819.66137695312</ele>
        <time>2015-03-30T12:15:02Z</time>
      </trkpt>
      <trkpt lat="42.92669" lon="-0.44571">
        <ele>822.064453125</ele>
        <time>2015-03-30T12:15:13Z</time>
      </trkpt>
      <trkpt lat="42.92676" lon="-0.44565">
        <ele>822.54516601562</ele>
        <time>2015-03-30T12:15:23Z</time>
      </trkpt>
      <trkpt lat="42.92683" lon="-0.44564">
        <ele>823.98706054688</ele>
        <time>2015-03-30T12:15:30Z</time>
      </trkpt>
      <trkpt lat="42.92696" lon="-0.44559">
        <ele>824.4677734375</ele>
        <time>2015-03-30T12:15:44Z</time>
      </trkpt>
      <trkpt lat="42.92703" lon="-0.44563">
        <ele>825.90966796875</ele>
        <time>2015-03-30T12:15:54Z</time>
      </trkpt>
      <trkpt lat="42.92705" lon="-0.44563">
        <ele>824.94848632812</ele>
        <time>2015-03-30T12:15:56Z</time>
      </trkpt>
      <trkpt lat="42.92717" lon="-0.44572">
        <ele>825.90966796875</ele>
        <time>2015-03-30T12:16:11Z</time>
      </trkpt>
      <trkpt lat="42.92733" lon="-0.44577">
        <ele>823.98706054688</ele>
        <time>2015-03-30T12:16:28Z</time>
      </trkpt>
      <trkpt lat="42.9274" lon="-0.44578">
        <ele>820.62255859375</ele>
        <time>2015-03-30T12:16:37Z</time>
      </trkpt>
      <trkpt lat="42.92745" lon="-0.4458">
        <ele>816.77734375</ele>
        <time>2015-03-30T12:16:44Z</time>
      </trkpt>
      <trkpt lat="42.92756" lon="-0.4458">
        <ele>814.3740234375</ele>
        <time>2015-03-30T12:16:57Z</time>
      </trkpt>
      <trkpt lat="42.92766" lon="-0.44582">
        <ele>813.41284179688</ele>
        <time>2015-03-30T12:17:08Z</time>
      </trkpt>
      <trkpt lat="42.92775" lon="-0.4457">
        <ele>811.970703125</ele>
        <time>2015-03-30T12:17:20Z</time>
      </trkpt>
      <trkpt lat="42.92786" lon="-0.44554">
        <ele>810.52856445312</ele>
        <time>2015-03-30T12:17:34Z</time>
      </trkpt>
      <trkpt lat="42.92801" lon="-0.44552">
        <ele>811.48999023438</ele>
        <time>2015-03-30T12:17:48Z</time>
      </trkpt>
      <trkpt lat="42.92817" lon="-0.44565">
        <ele>811.48999023438</ele>
        <time>2015-03-30T12:18:05Z</time>
      </trkpt>
      <trkpt lat="42.92832" lon="-0.44566">
        <ele>811.00927734375</ele>
        <time>2015-03-30T12:18:19Z</time>
      </trkpt>
      <trkpt lat="42.92842" lon="-0.44574">
        <ele>809.08666992188</ele>
        <time>2015-03-30T12:18:32Z</time>
      </trkpt>
      <trkpt lat="42.92848" lon="-0.44579">
        <ele>805.72216796875</ele>
        <time>2015-03-30T12:18:42Z</time>
      </trkpt>
      <trkpt lat="42.92852" lon="-0.44584">
        <ele>803.31884765625</ele>
        <time>2015-03-30T12:18:48Z</time>
      </trkpt>
      <trkpt lat="42.92858" lon="-0.44597">
        <ele>801.39624023438</ele>
        <time>2015-03-30T12:19:02Z</time>
      </trkpt>
      <trkpt lat="42.92865" lon="-0.44605">
        <ele>799.4736328125</ele>
        <time>2015-03-30T12:19:13Z</time>
      </trkpt>
      <trkpt lat="42.92873" lon="-0.44617">
        <ele>798.51220703125</ele>
        <time>2015-03-30T12:19:24Z</time>
      </trkpt>
      <trkpt lat="42.92877" lon="-0.4462">
        <ele>798.03173828125</ele>
        <time>2015-03-30T12:19:35Z</time>
      </trkpt>
      <trkpt lat="42.92891" lon="-0.44626">
        <ele>801.39624023438</ele>
        <time>2015-03-30T12:19:49Z</time>
      </trkpt>
      <trkpt lat="42.92899" lon="-0.44624">
        <ele>802.357421875</ele>
        <time>2015-03-30T12:19:57Z</time>
      </trkpt>
      <trkpt lat="42.92911" lon="-0.44625">
        <ele>802.357421875</ele>
        <time>2015-03-30T12:20:09Z</time>
      </trkpt>
      <trkpt lat="42.92922" lon="-0.44628">
        <ele>799.4736328125</ele>
        <time>2015-03-30T12:20:22Z</time>
      </trkpt>
      <trkpt lat="42.92935" lon="-0.4463">
        <ele>798.03173828125</ele>
        <time>2015-03-30T12:20:35Z</time>
      </trkpt>
      <trkpt lat="42.92946" lon="-0.44629">
        <ele>795.62817382812</ele>
        <time>2015-03-30T12:20:47Z</time>
      </trkpt>
      <trkpt lat="42.92959" lon="-0.44627">
        <ele>797.0703125</ele>
        <time>2015-03-30T12:20:57Z</time>
      </trkpt>
      <trkpt lat="42.9297" lon="-0.44631">
        <ele>795.62817382812</ele>
        <time>2015-03-30T12:21:08Z</time>
      </trkpt>
      <trkpt lat="42.9298" lon="-0.44629">
        <ele>793.70556640625</ele>
        <time>2015-03-30T12:21:20Z</time>
      </trkpt>
      <trkpt lat="42.92987" lon="-0.44627">
        <ele>790.82153320312</ele>
        <time>2015-03-30T12:21:34Z</time>
      </trkpt>
      <trkpt lat="42.92998" lon="-0.44625">
        <ele>788.89916992188</ele>
        <time>2015-03-30T12:21:46Z</time>
      </trkpt>
      <trkpt lat="42.93003" lon="-0.44628">
        <ele>786.97631835938</ele>
        <time>2015-03-30T12:22:00Z</time>
      </trkpt>
      <trkpt lat="42.93002" lon="-0.44631">
        <ele>786.01513671875</ele>
        <time>2015-03-30T12:22:02Z</time>
      </trkpt>
      <trkpt lat="42.93003" lon="-0.44637">
        <ele>784.09252929688</ele>
        <time>2015-03-30T12:22:15Z</time>
      </trkpt>
      <trkpt lat="42.93009" lon="-0.44637">
        <ele>781.68920898438</ele>
        <time>2015-03-30T12:22:25Z</time>
      </trkpt>
      <trkpt lat="42.93009" lon="-0.4464">
        <ele>778.80517578125</ele>
        <time>2015-03-30T12:22:37Z</time>
      </trkpt>
      <trkpt lat="42.93012" lon="-0.44653">
        <ele>775.92114257812</ele>
        <time>2015-03-30T12:22:52Z</time>
      </trkpt>
      <trkpt lat="42.93016" lon="-0.44653">
        <ele>773.51806640625</ele>
        <time>2015-03-30T12:22:59Z</time>
      </trkpt>
      <trkpt lat="42.93022" lon="-0.44658">
        <ele>770.63403320312</ele>
        <time>2015-03-30T12:23:17Z</time>
      </trkpt>
      <trkpt lat="42.93026" lon="-0.44663">
        <ele>769.19213867188</ele>
        <time>2015-03-30T12:23:30Z</time>
      </trkpt>
      <trkpt lat="42.93034" lon="-0.44656">
        <ele>766.30810546875</ele>
        <time>2015-03-30T12:23:42Z</time>
      </trkpt>
      <trkpt lat="42.93042" lon="-0.44656">
        <ele>763.90454101562</ele>
        <time>2015-03-30T12:25:51Z</time>
      </trkpt>
      <trkpt lat="42.93045" lon="-0.44662">
        <ele>762.46264648438</ele>
        <time>2015-03-30T12:26:04Z</time>
      </trkpt>
      <trkpt lat="42.93048" lon="-0.44663">
        <ele>759.09814453125</ele>
        <time>2015-03-30T12:26:13Z</time>
      </trkpt>
      <trkpt lat="42.93059" lon="-0.44667">
        <ele>756.69482421875</ele>
        <time>2015-03-30T12:26:30Z</time>
      </trkpt>
      <trkpt lat="42.93067" lon="-0.44664">
        <ele>753.33032226562</ele>
        <time>2015-03-30T12:26:42Z</time>
      </trkpt>
      <trkpt lat="42.93076" lon="-0.44661">
        <ele>753.81103515625</ele>
        <time>2015-03-30T12:27:13Z</time>
      </trkpt>
      <trkpt lat="42.93085" lon="-0.44654">
        <ele>753.33032226562</ele>
        <time>2015-03-30T12:27:27Z</time>
      </trkpt>
      <trkpt lat="42.93098" lon="-0.44641">
        <ele>752.849609375</ele>
        <time>2015-03-30T12:27:38Z</time>
      </trkpt>
      <trkpt lat="42.93101" lon="-0.4464">
        <ele>752.36889648438</ele>
        <time>2015-03-30T12:27:43Z</time>
      </trkpt>
      <trkpt lat="42.93113" lon="-0.44634">
        <ele>752.36889648438</ele>
        <time>2015-03-30T12:27:55Z</time>
      </trkpt>
      <trkpt lat="42.93122" lon="-0.44629">
        <ele>753.33032226562</ele>
        <time>2015-03-30T12:28:08Z</time>
      </trkpt>
      <trkpt lat="42.93126" lon="-0.44629">
        <ele>754.29174804688</ele>
        <time>2015-03-30T12:28:13Z</time>
      </trkpt>
      <trkpt lat="42.93134" lon="-0.44628">
        <ele>755.2529296875</ele>
        <time>2015-03-30T12:28:24Z</time>
      </trkpt>
      <trkpt lat="42.93135" lon="-0.44627">
        <ele>755.2529296875</ele>
        <time>2015-03-30T12:28:25Z</time>
      </trkpt>
      <trkpt lat="42.93145" lon="-0.44623">
        <ele>754.29174804688</ele>
        <time>2015-03-30T12:28:38Z</time>
      </trkpt>
      <trkpt lat="42.93157" lon="-0.44616">
        <ele>751.40771484375</ele>
        <time>2015-03-30T12:28:59Z</time>
      </trkpt>
      <trkpt lat="42.93167" lon="-0.44611">
        <ele>753.81103515625</ele>
        <time>2015-03-30T12:29:24Z</time>
      </trkpt>
      <trkpt lat="42.93173" lon="-0.44603">
        <ele>756.21411132812</ele>
        <time>2015-03-30T12:29:35Z</time>
      </trkpt>
      <trkpt lat="42.93177" lon="-0.44598">
        <ele>759.09814453125</ele>
        <time>2015-03-30T12:29:53Z</time>
      </trkpt>
      <trkpt lat="42.93182" lon="-0.44595">
        <ele>762.46264648438</ele>
        <time>2015-03-30T12:30:04Z</time>
      </trkpt>
      <trkpt lat="42.93194" lon="-0.44588">
        <ele>762.46264648438</ele>
        <time>2015-03-30T12:30:26Z</time>
      </trkpt>
      <trkpt lat="42.9319" lon="-0.44585">
        <ele>761.50146484375</ele>
        <time>2015-03-30T12:30:46Z</time>
      </trkpt>
      <trkpt lat="42.93189" lon="-0.44587">
        <ele>762.46264648438</ele>
        <time>2015-03-30T12:32:51Z</time>
      </trkpt>
      <trkpt lat="42.93189" lon="-0.44591">
        <ele>761.98217773438</ele>
        <time>2015-03-30T12:33:29Z</time>
      </trkpt>
      <trkpt lat="42.93192" lon="-0.44594">
        <ele>762.46264648438</ele>
        <time>2015-03-30T12:33:40Z</time>
      </trkpt>
      <trkpt lat="42.93198" lon="-0.4459">
        <ele>762.943359375</ele>
        <time>2015-03-30T12:33:59Z</time>
      </trkpt>
      <trkpt lat="42.93205" lon="-0.44584">
        <ele>761.98217773438</ele>
        <time>2015-03-30T12:34:10Z</time>
      </trkpt>
      <trkpt lat="42.93208" lon="-0.44583">
        <ele>758.61743164062</ele>
        <time>2015-03-30T12:34:20Z</time>
      </trkpt>
      <trkpt lat="42.93209" lon="-0.44587">
        <ele>755.73364257812</ele>
        <time>2015-03-30T12:34:33Z</time>
      </trkpt>
      <trkpt lat="42.93217" lon="-0.44583">
        <ele>753.81103515625</ele>
        <time>2015-03-30T12:34:42Z</time>
      </trkpt>
      <trkpt lat="42.93224" lon="-0.44585">
        <ele>753.33032226562</ele>
        <time>2015-03-30T12:34:49Z</time>
      </trkpt>
      <trkpt lat="42.93231" lon="-0.44584">
        <ele>753.33032226562</ele>
        <time>2015-03-30T12:34:56Z</time>
      </trkpt>
      <trkpt lat="42.93252" lon="-0.44583">
        <ele>752.36889648438</ele>
        <time>2015-03-30T12:35:15Z</time>
      </trkpt>
      <trkpt lat="42.93274" lon="-0.44583">
        <ele>752.849609375</ele>
        <time>2015-03-30T12:35:35Z</time>
      </trkpt>
      <trkpt lat="42.93296" lon="-0.44577">
        <ele>752.36889648438</ele>
        <time>2015-03-30T12:35:54Z</time>
      </trkpt>
      <trkpt lat="42.93311" lon="-0.44573">
        <ele>752.849609375</ele>
        <time>2015-03-30T12:36:09Z</time>
      </trkpt>
      <trkpt lat="42.93326" lon="-0.44568">
        <ele>753.33032226562</ele>
        <time>2015-03-30T12:36:24Z</time>
      </trkpt>
      <trkpt lat="42.93346" lon="-0.4456">
        <ele>753.33032226562</ele>
        <time>2015-03-30T12:36:41Z</time>
      </trkpt>
      <trkpt lat="42.93366" lon="-0.4455">
        <ele>753.81103515625</ele>
        <time>2015-03-30T12:36:59Z</time>
      </trkpt>
      <trkpt lat="42.93372" lon="-0.44551">
        <ele>753.33032226562</ele>
        <time>2015-03-30T12:37:08Z</time>
      </trkpt>
      <trkpt lat="42.93385" lon="-0.44546">
        <ele>753.33032226562</ele>
        <time>2015-03-30T12:37:20Z</time>
      </trkpt>
      <trkpt lat="42.93396" lon="-0.44537">
        <ele>752.849609375</ele>
        <time>2015-03-30T12:37:33Z</time>
      </trkpt>
      <trkpt lat="42.93406" lon="-0.44528">
        <ele>753.33032226562</ele>
        <time>2015-03-30T12:37:45Z</time>
      </trkpt>
      <trkpt lat="42.93416" lon="-0.44526">
        <ele>749.9658203125</ele>
        <time>2015-03-30T12:37:58Z</time>
      </trkpt>
      <trkpt lat="42.93428" lon="-0.44523">
        <ele>747.56225585938</ele>
        <time>2015-03-30T12:38:10Z</time>
      </trkpt>
      <trkpt lat="42.93436" lon="-0.44518">
        <ele>747.08154296875</ele>
        <time>2015-03-30T12:38:19Z</time>
      </trkpt>
      <trkpt lat="42.93446" lon="-0.44518">
        <ele>747.08154296875</ele>
        <time>2015-03-30T12:38:29Z</time>
      </trkpt>
      <trkpt lat="42.93455" lon="-0.44518">
        <ele>747.08154296875</ele>
        <time>2015-03-30T12:38:38Z</time>
      </trkpt>
      <trkpt lat="42.93467" lon="-0.44511">
        <ele>747.08154296875</ele>
        <time>2015-03-30T12:38:50Z</time>
      </trkpt>
      <trkpt lat="42.9348" lon="-0.445">
        <ele>747.08154296875</ele>
        <time>2015-03-30T12:39:02Z</time>
      </trkpt>
      <trkpt lat="42.93485" lon="-0.44492">
        <ele>746.60107421875</ele>
        <time>2015-03-30T12:39:10Z</time>
      </trkpt>
      <trkpt lat="42.93494" lon="-0.44485">
        <ele>746.12036132812</ele>
        <time>2015-03-30T12:39:20Z</time>
      </trkpt>
      <trkpt lat="42.93502" lon="-0.44476">
        <ele>746.60107421875</ele>
        <time>2015-03-30T12:39:30Z</time>
      </trkpt>
      <trkpt lat="42.93512" lon="-0.44453">
        <ele>746.60107421875</ele>
        <time>2015-03-30T12:39:45Z</time>
      </trkpt>
      <trkpt lat="42.93512" lon="-0.44451">
        <ele>746.60107421875</ele>
        <time>2015-03-30T12:39:47Z</time>
      </trkpt>
      <trkpt lat="42.93517" lon="-0.44439">
        <ele>746.60107421875</ele>
        <time>2015-03-30T12:40:00Z</time>
      </trkpt>
      <trkpt lat="42.93528" lon="-0.44432">
        <ele>746.60107421875</ele>
        <time>2015-03-30T12:40:14Z</time>
      </trkpt>
      <trkpt lat="42.9353" lon="-0.44432">
        <ele>747.08154296875</ele>
        <time>2015-03-30T12:40:16Z</time>
      </trkpt>
      <trkpt lat="42.93535" lon="-0.44431">
        <ele>747.08154296875</ele>
        <time>2015-03-30T12:40:20Z</time>
      </trkpt>
      <trkpt lat="42.93543" lon="-0.44425">
        <ele>747.08154296875</ele>
        <time>2015-03-30T12:40:26Z</time>
      </trkpt>
      <trkpt lat="42.93558" lon="-0.4441">
        <ele>747.08154296875</ele>
        <time>2015-03-30T12:40:42Z</time>
      </trkpt>
      <trkpt lat="42.93563" lon="-0.44399">
        <ele>746.60107421875</ele>
        <time>2015-03-30T12:40:52Z</time>
      </trkpt>
      <trkpt lat="42.93572" lon="-0.44385">
        <ele>747.56225585938</ele>
        <time>2015-03-30T12:41:02Z</time>
      </trkpt>
      <trkpt lat="42.93574" lon="-0.44378">
        <ele>747.08154296875</ele>
        <time>2015-03-30T12:41:06Z</time>
      </trkpt>
      <trkpt lat="42.93581" lon="-0.44367">
        <ele>744.67822265625</ele>
        <time>2015-03-30T12:41:27Z</time>
      </trkpt>
      <trkpt lat="42.93592" lon="-0.44368">
        <ele>741.31372070312</ele>
        <time>2015-03-30T12:41:44Z</time>
      </trkpt>
      <trkpt lat="42.93594" lon="-0.44371">
        <ele>740.8330078125</ele>
        <time>2015-03-30T12:41:48Z</time>
      </trkpt>
      <trkpt lat="42.93601" lon="-0.44381">
        <ele>740.3525390625</ele>
        <time>2015-03-30T12:41:57Z</time>
      </trkpt>
      <trkpt lat="42.9361" lon="-0.44395">
        <ele>739.87182617188</ele>
        <time>2015-03-30T12:42:18Z</time>
      </trkpt>
      <trkpt lat="42.93619" lon="-0.44398">
        <ele>739.87182617188</ele>
        <time>2015-03-30T12:42:38Z</time>
      </trkpt>
      <trkpt lat="42.93628" lon="-0.44398">
        <ele>740.3525390625</ele>
        <time>2015-03-30T12:42:55Z</time>
      </trkpt>
      <trkpt lat="42.93625" lon="-0.44397">
        <ele>739.87182617188</ele>
        <time>2015-03-30T12:43:16Z</time>
      </trkpt>
      <trkpt lat="42.93627" lon="-0.44394">
        <ele>739.39111328125</ele>
        <time>2015-03-30T12:43:42Z</time>
      </trkpt>
      <trkpt lat="42.93623" lon="-0.44399">
        <ele>737.94921875</ele>
        <time>2015-03-30T12:46:54Z</time>
      </trkpt>
      <trkpt lat="42.93622" lon="-0.444">
        <ele>734.58471679688</ele>
        <time>2015-03-30T12:50:13Z</time>
      </trkpt>
      <trkpt lat="42.93626" lon="-0.44412">
        <ele>735.5458984375</ele>
        <time>2015-03-30T12:52:09Z</time>
      </trkpt>
      <trkpt lat="42.93624" lon="-0.44386">
        <ele>736.50732421875</ele>
        <time>2015-03-30T12:53:09Z</time>
      </trkpt>
      <trkpt lat="42.93623" lon="-0.444">
        <ele>736.02661132812</ele>
        <time>2015-03-30T12:55:25Z</time>
      </trkpt>
      <trkpt lat="42.93611" lon="-0.44404">
        <ele>736.02661132812</ele>
        <time>2015-03-30T12:56:08Z</time>
      </trkpt>
      <trkpt lat="42.93605" lon="-0.44409">
        <ele>737.46850585938</ele>
        <time>2015-03-30T12:58:10Z</time>
      </trkpt>
      <trkpt lat="42.93619" lon="-0.44404">
        <ele>737.46850585938</ele>
        <time>2015-03-30T12:58:40Z</time>
      </trkpt>
      <trkpt lat="42.93605" lon="-0.44406">
        <ele>737.94921875</ele>
        <time>2015-03-30T12:59:39Z</time>
      </trkpt>
      <trkpt lat="42.93613" lon="-0.44409">
        <ele>738.42993164062</ele>
        <time>2015-03-30T13:00:27Z</time>
      </trkpt>
      <trkpt lat="42.9363" lon="-0.44392">
        <ele>739.87182617188</ele>
        <time>2015-03-30T13:01:46Z</time>
      </trkpt>
      <trkpt lat="42.93618" lon="-0.44404">
        <ele>738.91064453125</ele>
        <time>2015-03-30T13:03:33Z</time>
      </trkpt>
      <trkpt lat="42.93617" lon="-0.44404">
        <ele>739.39111328125</ele>
        <time>2015-03-30T13:04:31Z</time>
      </trkpt>
      <trkpt lat="42.93628" lon="-0.44397">
        <ele>738.42993164062</ele>
        <time>2015-03-30T13:05:24Z</time>
      </trkpt>
      <trkpt lat="42.93625" lon="-0.44397">
        <ele>738.91064453125</ele>
        <time>2015-03-30T13:06:07Z</time>
      </trkpt>
      <trkpt lat="42.93629" lon="-0.44402">
        <ele>739.87182617188</ele>
        <time>2015-03-30T13:07:03Z</time>
      </trkpt>
      <trkpt lat="42.93625" lon="-0.44397">
        <ele>740.8330078125</ele>
        <time>2015-03-30T13:08:10Z</time>
      </trkpt>
      <trkpt lat="42.93616" lon="-0.44399">
        <ele>740.3525390625</ele>
        <time>2015-03-30T13:09:04Z</time>
      </trkpt>
      <trkpt lat="42.93616" lon="-0.44394">
        <ele>739.87182617188</ele>
        <time>2015-03-30T13:09:47Z</time>
      </trkpt>
      <trkpt lat="42.9361" lon="-0.44408">
        <ele>739.87182617188</ele>
        <time>2015-03-30T13:10:20Z</time>
      </trkpt>
      <trkpt lat="42.93615" lon="-0.44393">
        <ele>740.3525390625</ele>
        <time>2015-03-30T13:10:52Z</time>
      </trkpt>
      <trkpt lat="42.93627" lon="-0.44377">
        <ele>739.87182617188</ele>
        <time>2015-03-30T13:11:53Z</time>
      </trkpt>
      <trkpt lat="42.93624" lon="-0.44386">
        <ele>737.94921875</ele>
        <time>2015-03-30T13:13:17Z</time>
      </trkpt>
      <trkpt lat="42.93625" lon="-0.44389">
        <ele>737.46850585938</ele>
        <time>2015-03-30T13:13:33Z</time>
      </trkpt>
      <trkpt lat="42.93626" lon="-0.4439">
        <ele>737.94921875</ele>
        <time>2015-03-30T13:13:45Z</time>
      </trkpt>
      <trkpt lat="42.93626" lon="-0.4439">
        <ele>737.46850585938</ele>
        <time>2015-03-30T13:14:12Z</time>
      </trkpt>
      <trkpt lat="42.93626" lon="-0.44389">
        <ele>737.94921875</ele>
        <time>2015-03-30T13:14:30Z</time>
      </trkpt>
      <trkpt lat="42.93631" lon="-0.44385">
        <ele>737.94921875</ele>
        <time>2015-03-30T13:14:39Z</time>
      </trkpt>
      <trkpt lat="42.93645" lon="-0.44373">
        <ele>736.98779296875</ele>
        <time>2015-03-30T13:14:57Z</time>
      </trkpt>
      <trkpt lat="42.9366" lon="-0.44363">
        <ele>737.46850585938</ele>
        <time>2015-03-30T13:15:15Z</time>
      </trkpt>
      <trkpt lat="42.93666" lon="-0.44359">
        <ele>737.46850585938</ele>
        <time>2015-03-30T13:15:27Z</time>
      </trkpt>
      <trkpt lat="42.93673" lon="-0.44356">
        <ele>737.94921875</ele>
        <time>2015-03-30T13:15:40Z</time>
      </trkpt>
      <trkpt lat="42.93688" lon="-0.44352">
        <ele>736.98779296875</ele>
        <time>2015-03-30T13:15:55Z</time>
      </trkpt>
      <trkpt lat="42.93696" lon="-0.44337">
        <ele>735.0654296875</ele>
        <time>2015-03-30T13:16:10Z</time>
      </trkpt>
      <trkpt lat="42.93699" lon="-0.44342">
        <ele>735.0654296875</ele>
        <time>2015-03-30T13:16:53Z</time>
      </trkpt>
      <trkpt lat="42.93701" lon="-0.44352">
        <ele>735.0654296875</ele>
        <time>2015-03-30T13:17:09Z</time>
      </trkpt>
      <trkpt lat="42.93699" lon="-0.44344">
        <ele>735.5458984375</ele>
        <time>2015-03-30T13:17:45Z</time>
      </trkpt>
      <trkpt lat="42.93713" lon="-0.44333">
        <ele>733.62329101562</ele>
        <time>2015-03-30T13:18:53Z</time>
      </trkpt>
      <trkpt lat="42.93728" lon="-0.44324">
        <ele>732.18139648438</ele>
        <time>2015-03-30T13:19:09Z</time>
      </trkpt>
      <trkpt lat="42.93746" lon="-0.44323">
        <ele>730.7392578125</ele>
        <time>2015-03-30T13:19:25Z</time>
      </trkpt>
      <trkpt lat="42.9375" lon="-0.44321">
        <ele>730.7392578125</ele>
        <time>2015-03-30T13:19:29Z</time>
      </trkpt>
      <trkpt lat="42.93763" lon="-0.44318">
        <ele>730.25854492188</ele>
        <time>2015-03-30T13:19:40Z</time>
      </trkpt>
      <trkpt lat="42.93778" lon="-0.44318">
        <ele>729.29711914062</ele>
        <time>2015-03-30T13:20:02Z</time>
      </trkpt>
      <trkpt lat="42.93775" lon="-0.4432">
        <ele>730.7392578125</ele>
        <time>2015-03-30T13:20:14Z</time>
      </trkpt>
      <trkpt lat="42.93769" lon="-0.44324">
        <ele>734.10400390625</ele>
        <time>2015-03-30T13:20:52Z</time>
      </trkpt>
      <trkpt lat="42.93772" lon="-0.44328">
        <ele>735.0654296875</ele>
        <time>2015-03-30T13:21:11Z</time>
      </trkpt>
      <trkpt lat="42.93778" lon="-0.44328">
        <ele>735.5458984375</ele>
        <time>2015-03-30T13:21:26Z</time>
      </trkpt>
      <trkpt lat="42.93778" lon="-0.44332">
        <ele>734.58471679688</ele>
        <time>2015-03-30T13:21:43Z</time>
      </trkpt>
      <trkpt lat="42.9378" lon="-0.44327">
        <ele>735.0654296875</ele>
        <time>2015-03-30T13:23:19Z</time>
      </trkpt>
      <trkpt lat="42.93809" lon="-0.44332">
        <ele>735.5458984375</ele>
        <time>2015-03-30T13:23:59Z</time>
      </trkpt>
      <trkpt lat="42.93813" lon="-0.44333">
        <ele>735.5458984375</ele>
        <time>2015-03-30T13:24:06Z</time>
      </trkpt>
      <trkpt lat="42.93823" lon="-0.44334">
        <ele>735.5458984375</ele>
        <time>2015-03-30T13:24:18Z</time>
      </trkpt>
      <trkpt lat="42.93834" lon="-0.44336">
        <ele>736.02661132812</ele>
        <time>2015-03-30T13:24:27Z</time>
      </trkpt>
      <trkpt lat="42.93835" lon="-0.44336">
        <ele>736.02661132812</ele>
        <time>2015-03-30T13:24:32Z</time>
      </trkpt>
      <trkpt lat="42.93842" lon="-0.44333">
        <ele>736.02661132812</ele>
        <time>2015-03-30T13:24:53Z</time>
      </trkpt>
      <trkpt lat="42.93847" lon="-0.4434">
        <ele>736.98779296875</ele>
        <time>2015-03-30T13:25:01Z</time>
      </trkpt>
      <trkpt lat="42.93858" lon="-0.44348">
        <ele>736.02661132812</ele>
        <time>2015-03-30T13:25:16Z</time>
      </trkpt>
      <trkpt lat="42.93862" lon="-0.4435">
        <ele>734.58471679688</ele>
        <time>2015-03-30T13:25:22Z</time>
      </trkpt>
      <trkpt lat="42.9387" lon="-0.44355">
        <ele>734.58471679688</ele>
        <time>2015-03-30T13:25:31Z</time>
      </trkpt>
      <trkpt lat="42.93887" lon="-0.44373">
        <ele>735.0654296875</ele>
        <time>2015-03-30T13:26:38Z</time>
      </trkpt>
      <trkpt lat="42.93893" lon="-0.44372">
        <ele>736.02661132812</ele>
        <time>2015-03-30T13:27:30Z</time>
      </trkpt>
      <trkpt lat="42.93901" lon="-0.44375">
        <ele>736.02661132812</ele>
        <time>2015-03-30T13:27:41Z</time>
      </trkpt>
      <trkpt lat="42.93907" lon="-0.44379">
        <ele>735.5458984375</ele>
        <time>2015-03-30T13:27:50Z</time>
      </trkpt>
      <trkpt lat="42.93925" lon="-0.44379">
        <ele>737.94921875</ele>
        <time>2015-03-30T13:28:09Z</time>
      </trkpt>
      <trkpt lat="42.93931" lon="-0.44387">
        <ele>737.46850585938</ele>
        <time>2015-03-30T13:28:22Z</time>
      </trkpt>
      <trkpt lat="42.93941" lon="-0.44389">
        <ele>740.3525390625</ele>
        <time>2015-03-30T13:28:32Z</time>
      </trkpt>
      <trkpt lat="42.93956" lon="-0.44394">
        <ele>741.79443359375</ele>
        <time>2015-03-30T13:28:50Z</time>
      </trkpt>
      <trkpt lat="42.93971" lon="-0.44398">
        <ele>739.87182617188</ele>
        <time>2015-03-30T13:29:10Z</time>
      </trkpt>
      <trkpt lat="42.93987" lon="-0.444">
        <ele>739.39111328125</ele>
        <time>2015-03-30T13:29:24Z</time>
      </trkpt>
      <trkpt lat="42.93993" lon="-0.44405">
        <ele>738.42993164062</ele>
        <time>2015-03-30T13:29:34Z</time>
      </trkpt>
      <trkpt lat="42.94002" lon="-0.44411">
        <ele>738.91064453125</ele>
        <time>2015-03-30T13:29:47Z</time>
      </trkpt>
      <trkpt lat="42.94022" lon="-0.44413">
        <ele>738.91064453125</ele>
        <time>2015-03-30T13:30:22Z</time>
      </trkpt>
      <trkpt lat="42.94033" lon="-0.44413">
        <ele>739.39111328125</ele>
        <time>2015-03-30T13:30:35Z</time>
      </trkpt>
      <trkpt lat="42.94044" lon="-0.44426">
        <ele>739.87182617188</ele>
        <time>2015-03-30T13:31:51Z</time>
      </trkpt>
    </trkseg>
  </trk>
  <trk>
    <name><![CDATA[ACTIVE LOG 003]]></name>
    <trkseg>
      <trkpt lat="42.94038" lon="-0.44424">
        <ele>738.42993164062</ele>
        <time>2015-03-30T13:34:25Z</time>
      </trkpt>
    </trkseg>
  </trk>
  <trk>
    <name><![CDATA[ACTIVE LOG 004]]></name>
    <trkseg>
      <trkpt lat="42.94057" lon="-0.44421">
        <ele>738.42993164062</ele>
        <time>2015-03-30T13:34:26Z</time>
      </trkpt>
      <trkpt lat="42.94067" lon="-0.44408">
        <ele>738.91064453125</ele>
        <time>2015-03-30T13:34:37Z</time>
      </trkpt>
      <trkpt lat="42.94077" lon="-0.44401">
        <ele>738.91064453125</ele>
        <time>2015-03-30T13:34:46Z</time>
      </trkpt>
      <trkpt lat="42.94091" lon="-0.44395">
        <ele>737.94921875</ele>
        <time>2015-03-30T13:35:03Z</time>
      </trkpt>
      <trkpt lat="42.94108" lon="-0.44389">
        <ele>736.98779296875</ele>
        <time>2015-03-30T13:35:23Z</time>
      </trkpt>
      <trkpt lat="42.94119" lon="-0.44392">
        <ele>737.46850585938</ele>
        <time>2015-03-30T13:35:34Z</time>
      </trkpt>
      <trkpt lat="42.94134" lon="-0.4439">
        <ele>736.98779296875</ele>
        <time>2015-03-30T13:35:44Z</time>
      </trkpt>
      <trkpt lat="42.9415" lon="-0.44398">
        <ele>737.94921875</ele>
        <time>2015-03-30T13:36:08Z</time>
      </trkpt>
      <trkpt lat="42.94192" lon="-0.44386">
        <ele>736.50732421875</ele>
        <time>2015-03-30T13:37:04Z</time>
      </trkpt>
      <trkpt lat="42.942" lon="-0.44392">
        <ele>735.0654296875</ele>
        <time>2015-03-30T13:37:50Z</time>
      </trkpt>
      <trkpt lat="42.94205" lon="-0.44388">
        <ele>734.10400390625</ele>
        <time>2015-03-30T13:38:03Z</time>
      </trkpt>
      <trkpt lat="42.9422" lon="-0.44373">
        <ele>733.62329101562</ele>
        <time>2015-03-30T13:39:12Z</time>
      </trkpt>
      <trkpt lat="42.94218" lon="-0.44375">
        <ele>736.50732421875</ele>
        <time>2015-03-30T13:42:23Z</time>
      </trkpt>
      <trkpt lat="42.94229" lon="-0.44374">
        <ele>737.46850585938</ele>
        <time>2015-03-30T13:42:35Z</time>
      </trkpt>
      <trkpt lat="42.9424" lon="-0.44373">
        <ele>738.91064453125</ele>
        <time>2015-03-30T13:42:49Z</time>
      </trkpt>
      <trkpt lat="42.94248" lon="-0.44376">
        <ele>739.87182617188</ele>
        <time>2015-03-30T13:42:58Z</time>
      </trkpt>
      <trkpt lat="42.94255" lon="-0.44379">
        <ele>740.3525390625</ele>
        <time>2015-03-30T13:43:10Z</time>
      </trkpt>
      <trkpt lat="42.94264" lon="-0.4438">
        <ele>740.8330078125</ele>
        <time>2015-03-30T13:43:22Z</time>
      </trkpt>
      <trkpt lat="42.94268" lon="-0.44386">
        <ele>743.236328125</ele>
        <time>2015-03-30T13:43:34Z</time>
      </trkpt>
      <trkpt lat="42.94284" lon="-0.44393">
        <ele>745.15893554688</ele>
        <time>2015-03-30T13:43:50Z</time>
      </trkpt>
      <trkpt lat="42.94293" lon="-0.444">
        <ele>746.60107421875</ele>
        <time>2015-03-30T13:44:06Z</time>
      </trkpt>
      <trkpt lat="42.94313" lon="-0.44402">
        <ele>747.08154296875</ele>
        <time>2015-03-30T13:44:20Z</time>
      </trkpt>
      <trkpt lat="42.94328" lon="-0.44399">
        <ele>748.52368164062</ele>
        <time>2015-03-30T13:44:30Z</time>
      </trkpt>
      <trkpt lat="42.94335" lon="-0.44401">
        <ele>749.00439453125</ele>
        <time>2015-03-30T13:44:40Z</time>
      </trkpt>
      <trkpt lat="42.94344" lon="-0.44402">
        <ele>750.92700195312</ele>
        <time>2015-03-30T13:44:49Z</time>
      </trkpt>
      <trkpt lat="42.94354" lon="-0.44405">
        <ele>750.92700195312</ele>
        <time>2015-03-30T13:44:59Z</time>
      </trkpt>
      <trkpt lat="42.94372" lon="-0.44405">
        <ele>752.849609375</ele>
        <time>2015-03-30T13:45:13Z</time>
      </trkpt>
      <trkpt lat="42.94384" lon="-0.44409">
        <ele>752.849609375</ele>
        <time>2015-03-30T13:45:26Z</time>
      </trkpt>
      <trkpt lat="42.94402" lon="-0.44407">
        <ele>756.21411132812</ele>
        <time>2015-03-30T13:45:48Z</time>
      </trkpt>
      <trkpt lat="42.94419" lon="-0.44404">
        <ele>758.13696289062</ele>
        <time>2015-03-30T13:46:04Z</time>
      </trkpt>
      <trkpt lat="42.94437" lon="-0.44399">
        <ele>758.61743164062</ele>
        <time>2015-03-30T13:46:15Z</time>
      </trkpt>
      <trkpt lat="42.94449" lon="-0.44395">
        <ele>760.05932617188</ele>
        <time>2015-03-30T13:46:24Z</time>
      </trkpt>
      <trkpt lat="42.9447" lon="-0.44393">
        <ele>761.50146484375</ele>
        <time>2015-03-30T13:46:39Z</time>
      </trkpt>
      <trkpt lat="42.94483" lon="-0.44385">
        <ele>761.98217773438</ele>
        <time>2015-03-30T13:46:53Z</time>
      </trkpt>
      <trkpt lat="42.94488" lon="-0.44388">
        <ele>761.98217773438</ele>
        <time>2015-03-30T13:47:02Z</time>
      </trkpt>
      <trkpt lat="42.94494" lon="-0.44392">
        <ele>762.943359375</ele>
        <time>2015-03-30T13:47:10Z</time>
      </trkpt>
      <trkpt lat="42.94502" lon="-0.44394">
        <ele>763.90454101562</ele>
        <time>2015-03-30T13:47:21Z</time>
      </trkpt>
      <trkpt lat="42.94512" lon="-0.44396">
        <ele>764.8662109375</ele>
        <time>2015-03-30T13:47:30Z</time>
      </trkpt>
      <trkpt lat="42.94527" lon="-0.44398">
        <ele>767.26953125</ele>
        <time>2015-03-30T13:47:42Z</time>
      </trkpt>
      <trkpt lat="42.94531" lon="-0.44399">
        <ele>766.78881835938</ele>
        <time>2015-03-30T13:47:45Z</time>
      </trkpt>
      <trkpt lat="42.94542" lon="-0.44404">
        <ele>767.75</ele>
        <time>2015-03-30T13:47:55Z</time>
      </trkpt>
      <trkpt lat="42.94556" lon="-0.44412">
        <ele>768.71142578125</ele>
        <time>2015-03-30T13:48:10Z</time>
      </trkpt>
      <trkpt lat="42.94565" lon="-0.44416">
        <ele>769.19213867188</ele>
        <time>2015-03-30T13:48:18Z</time>
      </trkpt>
      <trkpt lat="42.94573" lon="-0.44422">
        <ele>770.1533203125</ele>
        <time>2015-03-30T13:48:28Z</time>
      </trkpt>
      <trkpt lat="42.94582" lon="-0.44428">
        <ele>771.11474609375</ele>
        <time>2015-03-30T13:48:37Z</time>
      </trkpt>
      <trkpt lat="42.94588" lon="-0.44433">
        <ele>771.11474609375</ele>
        <time>2015-03-30T13:48:46Z</time>
      </trkpt>
      <trkpt lat="42.94599" lon="-0.44439">
        <ele>772.556640625</ele>
        <time>2015-03-30T13:48:57Z</time>
      </trkpt>
      <trkpt lat="42.94606" lon="-0.44444">
        <ele>774.47924804688</ele>
        <time>2015-03-30T13:49:06Z</time>
      </trkpt>
      <trkpt lat="42.94619" lon="-0.44452">
        <ele>775.92114257812</ele>
        <time>2015-03-30T13:49:20Z</time>
      </trkpt>
      <trkpt lat="42.94628" lon="-0.44457">
        <ele>777.36328125</ele>
        <time>2015-03-30T13:49:30Z</time>
      </trkpt>
      <trkpt lat="42.94637" lon="-0.44462">
        <ele>778.80517578125</ele>
        <time>2015-03-30T13:49:39Z</time>
      </trkpt>
      <trkpt lat="42.9465" lon="-0.4447">
        <ele>779.76635742188</ele>
        <time>2015-03-30T13:49:52Z</time>
      </trkpt>
      <trkpt lat="42.94655" lon="-0.44477">
        <ele>780.24731445312</ele>
        <time>2015-03-30T13:49:58Z</time>
      </trkpt>
      <trkpt lat="42.94668" lon="-0.44501">
        <ele>782.65063476562</ele>
        <time>2015-03-30T13:50:18Z</time>
      </trkpt>
      <trkpt lat="42.94677" lon="-0.44521">
        <ele>784.09252929688</ele>
        <time>2015-03-30T13:50:37Z</time>
      </trkpt>
      <trkpt lat="42.94685" lon="-0.44533">
        <ele>785.53442382812</ele>
        <time>2015-03-30T13:50:51Z</time>
      </trkpt>
      <trkpt lat="42.94694" lon="-0.44541">
        <ele>787.45703125</ele>
        <time>2015-03-30T13:51:02Z</time>
      </trkpt>
      <trkpt lat="42.94704" lon="-0.44564">
        <ele>789.37963867188</ele>
        <time>2015-03-30T13:51:20Z</time>
      </trkpt>
      <trkpt lat="42.94716" lon="-0.44586">
        <ele>791.78295898438</ele>
        <time>2015-03-30T13:51:38Z</time>
      </trkpt>
      <trkpt lat="42.94718" lon="-0.44587">
        <ele>791.78295898438</ele>
        <time>2015-03-30T13:51:40Z</time>
      </trkpt>
      <trkpt lat="42.94728" lon="-0.446">
        <ele>793.70556640625</ele>
        <time>2015-03-30T13:51:54Z</time>
      </trkpt>
      <trkpt lat="42.94732" lon="-0.44617">
        <ele>795.1474609375</ele>
        <time>2015-03-30T13:52:07Z</time>
      </trkpt>
      <trkpt lat="42.94732" lon="-0.4464">
        <ele>796.10913085938</ele>
        <time>2015-03-30T13:52:24Z</time>
      </trkpt>
      <trkpt lat="42.94731" lon="-0.44649">
        <ele>796.58984375</ele>
        <time>2015-03-30T13:52:30Z</time>
      </trkpt>
      <trkpt lat="42.94733" lon="-0.44655">
        <ele>797.55102539062</ele>
        <time>2015-03-30T13:52:34Z</time>
      </trkpt>
      <trkpt lat="42.94742" lon="-0.44669">
        <ele>799.4736328125</ele>
        <time>2015-03-30T13:52:51Z</time>
      </trkpt>
      <trkpt lat="42.94732" lon="-0.44667">
        <ele>800.91552734375</ele>
        <time>2015-03-30T13:53:03Z</time>
      </trkpt>
      <trkpt lat="42.94724" lon="-0.44665">
        <ele>802.357421875</ele>
        <time>2015-03-30T13:53:12Z</time>
      </trkpt>
      <trkpt lat="42.94724" lon="-0.44656">
        <ele>803.31884765625</ele>
        <time>2015-03-30T13:53:22Z</time>
      </trkpt>
      <trkpt lat="42.94725" lon="-0.44652">
        <ele>803.31884765625</ele>
        <time>2015-03-30T13:53:25Z</time>
      </trkpt>
      <trkpt lat="42.94723" lon="-0.44644">
        <ele>804.7607421875</ele>
        <time>2015-03-30T13:53:35Z</time>
      </trkpt>
      <trkpt lat="42.94722" lon="-0.4463">
        <ele>804.7607421875</ele>
        <time>2015-03-30T13:53:47Z</time>
      </trkpt>
      <trkpt lat="42.94731" lon="-0.44605">
        <ele>805.72216796875</ele>
        <time>2015-03-30T13:54:02Z</time>
      </trkpt>
      <trkpt lat="42.94747" lon="-0.44577">
        <ele>807.1640625</ele>
        <time>2015-03-30T13:54:16Z</time>
      </trkpt>
      <trkpt lat="42.9475" lon="-0.44567">
        <ele>807.1640625</ele>
        <time>2015-03-30T13:54:22Z</time>
      </trkpt>
      <trkpt lat="42.94759" lon="-0.44543">
        <ele>809.5673828125</ele>
        <time>2015-03-30T13:54:36Z</time>
      </trkpt>
      <trkpt lat="42.94758" lon="-0.44525">
        <ele>811.00927734375</ele>
        <time>2015-03-30T13:54:50Z</time>
      </trkpt>
      <trkpt lat="42.94772" lon="-0.44507">
        <ele>812.93212890625</ele>
        <time>2015-03-30T13:55:00Z</time>
      </trkpt>
      <trkpt lat="42.94791" lon="-0.44484">
        <ele>815.33544921875</ele>
        <time>2015-03-30T13:55:17Z</time>
      </trkpt>
      <trkpt lat="42.94794" lon="-0.44484">
        <ele>815.81616210938</ele>
        <time>2015-03-30T13:55:21Z</time>
      </trkpt>
      <trkpt lat="42.94804" lon="-0.44482">
        <ele>815.81616210938</ele>
        <time>2015-03-30T13:55:33Z</time>
      </trkpt>
      <trkpt lat="42.94809" lon="-0.44485">
        <ele>815.81616210938</ele>
        <time>2015-03-30T13:55:38Z</time>
      </trkpt>
      <trkpt lat="42.94827" lon="-0.44493">
        <ele>817.25805664062</ele>
        <time>2015-03-30T13:55:57Z</time>
      </trkpt>
      <trkpt lat="42.94838" lon="-0.44506">
        <ele>819.1806640625</ele>
        <time>2015-03-30T13:56:13Z</time>
      </trkpt>
      <trkpt lat="42.94847" lon="-0.44521">
        <ele>821.58374023438</ele>
        <time>2015-03-30T13:56:31Z</time>
      </trkpt>
      <trkpt lat="42.94851" lon="-0.44519">
        <ele>821.58374023438</ele>
        <time>2015-03-30T13:56:42Z</time>
      </trkpt>
      <trkpt lat="42.94852" lon="-0.44519">
        <ele>820.62255859375</ele>
        <time>2015-03-30T13:56:54Z</time>
      </trkpt>
      <trkpt lat="42.94856" lon="-0.44518">
        <ele>819.1806640625</ele>
        <time>2015-03-30T14:03:18Z</time>
      </trkpt>
      <trkpt lat="42.94856" lon="-0.44509">
        <ele>818.21923828125</ele>
        <time>2015-03-30T14:04:47Z</time>
      </trkpt>
      <trkpt lat="42.94849" lon="-0.44501">
        <ele>815.33544921875</ele>
        <time>2015-03-30T14:04:59Z</time>
      </trkpt>
      <trkpt lat="42.94839" lon="-0.44488">
        <ele>813.89331054688</ele>
        <time>2015-03-30T14:05:14Z</time>
      </trkpt>
      <trkpt lat="42.94818" lon="-0.44475">
        <ele>811.00927734375</ele>
        <time>2015-03-30T14:05:35Z</time>
      </trkpt>
      <trkpt lat="42.94806" lon="-0.44469">
        <ele>808.12548828125</ele>
        <time>2015-03-30T14:05:46Z</time>
      </trkpt>
      <trkpt lat="42.94791" lon="-0.44472">
        <ele>804.7607421875</ele>
        <time>2015-03-30T14:05:59Z</time>
      </trkpt>
      <trkpt lat="42.94782" lon="-0.44484">
        <ele>801.39624023438</ele>
        <time>2015-03-30T14:06:11Z</time>
      </trkpt>
      <trkpt lat="42.94779" lon="-0.44489">
        <ele>800.43505859375</ele>
        <time>2015-03-30T14:06:15Z</time>
      </trkpt>
      <trkpt lat="42.94776" lon="-0.44503">
        <ele>797.0703125</ele>
        <time>2015-03-30T14:06:26Z</time>
      </trkpt>
      <trkpt lat="42.94768" lon="-0.44498">
        <ele>796.10913085938</ele>
        <time>2015-03-30T14:06:40Z</time>
      </trkpt>
      <trkpt lat="42.94764" lon="-0.44488">
        <ele>793.22485351562</ele>
        <time>2015-03-30T14:06:49Z</time>
      </trkpt>
      <trkpt lat="42.94768" lon="-0.44465">
        <ele>789.37963867188</ele>
        <time>2015-03-30T14:07:03Z</time>
      </trkpt>
      <trkpt lat="42.94783" lon="-0.44449">
        <ele>786.01513671875</ele>
        <time>2015-03-30T14:07:19Z</time>
      </trkpt>
      <trkpt lat="42.94798" lon="-0.44442">
        <ele>783.13110351562</ele>
        <time>2015-03-30T14:07:35Z</time>
      </trkpt>
      <trkpt lat="42.9481" lon="-0.44441">
        <ele>781.20874023438</ele>
        <time>2015-03-30T14:07:46Z</time>
      </trkpt>
      <trkpt lat="42.94814" lon="-0.44441">
        <ele>781.20874023438</ele>
        <time>2015-03-30T14:07:49Z</time>
      </trkpt>
      <trkpt lat="42.94825" lon="-0.4444">
        <ele>779.28564453125</ele>
        <time>2015-03-30T14:08:01Z</time>
      </trkpt>
      <trkpt lat="42.94836" lon="-0.44439">
        <ele>775.92114257812</ele>
        <time>2015-03-30T14:08:14Z</time>
      </trkpt>
      <trkpt lat="42.94845" lon="-0.44439">
        <ele>774.9599609375</ele>
        <time>2015-03-30T14:08:24Z</time>
      </trkpt>
      <trkpt lat="42.94852" lon="-0.44445">
        <ele>772.07592773438</ele>
        <time>2015-03-30T14:08:35Z</time>
      </trkpt>
      <trkpt lat="42.94866" lon="-0.44459">
        <ele>770.63403320312</ele>
        <time>2015-03-30T14:08:54Z</time>
      </trkpt>
      <trkpt lat="42.9488" lon="-0.44464">
        <ele>768.23071289062</ele>
        <time>2015-03-30T14:09:08Z</time>
      </trkpt>
      <trkpt lat="42.94892" lon="-0.44452">
        <ele>765.82763671875</ele>
        <time>2015-03-30T14:09:20Z</time>
      </trkpt>
      <trkpt lat="42.94895" lon="-0.44448">
        <ele>765.34692382812</ele>
        <time>2015-03-30T14:09:23Z</time>
      </trkpt>
      <trkpt lat="42.94909" lon="-0.44424">
        <ele>762.943359375</ele>
        <time>2015-03-30T14:09:36Z</time>
      </trkpt>
      <trkpt lat="42.94922" lon="-0.44418">
        <ele>761.02075195312</ele>
        <time>2015-03-30T14:09:49Z</time>
      </trkpt>
      <trkpt lat="42.94931" lon="-0.44416">
        <ele>760.5400390625</ele>
        <time>2015-03-30T14:09:57Z</time>
      </trkpt>
      <trkpt lat="42.94937" lon="-0.44412">
        <ele>759.57885742188</ele>
        <time>2015-03-30T14:10:03Z</time>
      </trkpt>
      <trkpt lat="42.94939" lon="-0.44404">
        <ele>759.09814453125</ele>
        <time>2015-03-30T14:10:06Z</time>
      </trkpt>
      <trkpt lat="42.94931" lon="-0.44401">
        <ele>757.17553710938</ele>
        <time>2015-03-30T14:10:20Z</time>
      </trkpt>
      <trkpt lat="42.94922" lon="-0.44414">
        <ele>755.2529296875</ele>
        <time>2015-03-30T14:10:29Z</time>
      </trkpt>
      <trkpt lat="42.94914" lon="-0.44421">
        <ele>753.81103515625</ele>
        <time>2015-03-30T14:10:38Z</time>
      </trkpt>
      <trkpt lat="42.94903" lon="-0.44429">
        <ele>750.92700195312</ele>
        <time>2015-03-30T14:10:51Z</time>
      </trkpt>
      <trkpt lat="42.949" lon="-0.44429">
        <ele>750.92700195312</ele>
        <time>2015-03-30T14:10:53Z</time>
      </trkpt>
      <trkpt lat="42.9489" lon="-0.4443">
        <ele>749.00439453125</ele>
        <time>2015-03-30T14:11:03Z</time>
      </trkpt>
      <trkpt lat="42.94888" lon="-0.44429">
        <ele>748.04321289062</ele>
        <time>2015-03-30T14:11:14Z</time>
      </trkpt>
      <trkpt lat="42.94892" lon="-0.44429">
        <ele>746.60107421875</ele>
        <time>2015-03-30T14:11:18Z</time>
      </trkpt>
      <trkpt lat="42.94906" lon="-0.44428">
        <ele>744.19775390625</ele>
        <time>2015-03-30T14:11:40Z</time>
      </trkpt>
      <trkpt lat="42.94912" lon="-0.44421">
        <ele>740.8330078125</ele>
        <time>2015-03-30T14:11:49Z</time>
      </trkpt>
      <trkpt lat="42.94913" lon="-0.44422">
        <ele>741.31372070312</ele>
        <time>2015-03-30T14:11:50Z</time>
      </trkpt>
      <trkpt lat="42.94934" lon="-0.44414">
        <ele>737.94921875</ele>
        <time>2015-03-30T14:12:10Z</time>
      </trkpt>
      <trkpt lat="42.94944" lon="-0.44415">
        <ele>735.5458984375</ele>
        <time>2015-03-30T14:12:22Z</time>
      </trkpt>
      <trkpt lat="42.94963" lon="-0.44412">
        <ele>734.10400390625</ele>
        <time>2015-03-30T14:12:46Z</time>
      </trkpt>
      <trkpt lat="42.9496" lon="-0.44413">
        <ele>731.21997070312</ele>
        <time>2015-03-30T14:13:19Z</time>
      </trkpt>
      <trkpt lat="42.94958" lon="-0.44402">
        <ele>728.81665039062</ele>
        <time>2015-03-30T14:13:33Z</time>
      </trkpt>
      <trkpt lat="42.94955" lon="-0.44399">
        <ele>726.89404296875</ele>
        <time>2015-03-30T14:13:43Z</time>
      </trkpt>
      <trkpt lat="42.94951" lon="-0.44392">
        <ele>724.01000976562</ele>
        <time>2015-03-30T14:13:51Z</time>
      </trkpt>
      <trkpt lat="42.94947" lon="-0.44378">
        <ele>723.52954101562</ele>
        <time>2015-03-30T14:14:04Z</time>
      </trkpt>
      <trkpt lat="42.94943" lon="-0.44369">
        <ele>721.60668945312</ele>
        <time>2015-03-30T14:14:15Z</time>
      </trkpt>
      <trkpt lat="42.94926" lon="-0.44367">
        <ele>720.16479492188</ele>
        <time>2015-03-30T14:14:29Z</time>
      </trkpt>
      <trkpt lat="42.94915" lon="-0.44377">
        <ele>719.20361328125</ele>
        <time>2015-03-30T14:14:48Z</time>
      </trkpt>
      <trkpt lat="42.94908" lon="-0.44385">
        <ele>719.20361328125</ele>
        <time>2015-03-30T14:15:17Z</time>
      </trkpt>
      <trkpt lat="42.94909" lon="-0.44385">
        <ele>719.68432617188</ele>
        <time>2015-03-30T14:15:36Z</time>
      </trkpt>
      <trkpt lat="42.9491" lon="-0.44384">
        <ele>718.2421875</ele>
        <time>2015-03-30T14:16:40Z</time>
      </trkpt>
      <trkpt lat="42.94906" lon="-0.44382">
        <ele>717.28100585938</ele>
        <time>2015-03-30T14:16:45Z</time>
      </trkpt>
      <trkpt lat="42.94892" lon="-0.44375">
        <ele>714.87744140625</ele>
        <time>2015-03-30T14:17:01Z</time>
      </trkpt>
      <trkpt lat="42.94882" lon="-0.44373">
        <ele>712.95483398438</ele>
        <time>2015-03-30T14:17:11Z</time>
      </trkpt>
      <trkpt lat="42.94863" lon="-0.44378">
        <ele>713.435546875</ele>
        <time>2015-03-30T14:17:50Z</time>
      </trkpt>
      <trkpt lat="42.94872" lon="-0.44373">
        <ele>712.47412109375</ele>
        <time>2015-03-30T14:18:52Z</time>
      </trkpt>
      <trkpt lat="42.94862" lon="-0.44374">
        <ele>710.55151367188</ele>
        <time>2015-03-30T14:19:02Z</time>
      </trkpt>
      <trkpt lat="42.94857" lon="-0.44369">
        <ele>710.07080078125</ele>
        <time>2015-03-30T14:19:09Z</time>
      </trkpt>
      <trkpt lat="42.94854" lon="-0.4435">
        <ele>706.70629882812</ele>
        <time>2015-03-30T14:19:21Z</time>
      </trkpt>
      <trkpt lat="42.94835" lon="-0.44342">
        <ele>703.82250976562</ele>
        <time>2015-03-30T14:19:35Z</time>
      </trkpt>
      <trkpt lat="42.94835" lon="-0.4434">
        <ele>703.82250976562</ele>
        <time>2015-03-30T14:19:36Z</time>
      </trkpt>
      <trkpt lat="42.94837" lon="-0.44335">
        <ele>703.341796875</ele>
        <time>2015-03-30T14:19:41Z</time>
      </trkpt>
      <trkpt lat="42.94848" lon="-0.4434">
        <ele>700.9384765625</ele>
        <time>2015-03-30T14:19:54Z</time>
      </trkpt>
      <trkpt lat="42.94855" lon="-0.44342">
        <ele>699.015625</ele>
        <time>2015-03-30T14:20:03Z</time>
      </trkpt>
      <trkpt lat="42.94864" lon="-0.44345">
        <ele>697.09301757812</ele>
        <time>2015-03-30T14:20:15Z</time>
      </trkpt>
      <trkpt lat="42.94869" lon="-0.44348">
        <ele>695.17041015625</ele>
        <time>2015-03-30T14:20:23Z</time>
      </trkpt>
      <trkpt lat="42.94877" lon="-0.44341">
        <ele>694.20922851562</ele>
        <time>2015-03-30T14:20:33Z</time>
      </trkpt>
      <trkpt lat="42.94882" lon="-0.44335">
        <ele>691.3251953125</ele>
        <time>2015-03-30T14:20:52Z</time>
      </trkpt>
      <trkpt lat="42.94891" lon="-0.44329">
        <ele>690.36401367188</ele>
        <time>2015-03-30T14:21:11Z</time>
      </trkpt>
      <trkpt lat="42.94894" lon="-0.44329">
        <ele>691.3251953125</ele>
        <time>2015-03-30T14:21:15Z</time>
      </trkpt>
      <trkpt lat="42.94918" lon="-0.44327">
        <ele>689.40258789062</ele>
        <time>2015-03-30T14:21:35Z</time>
      </trkpt>
      <trkpt lat="42.94918" lon="-0.44336">
        <ele>689.88330078125</ele>
        <time>2015-03-30T14:22:06Z</time>
      </trkpt>
      <trkpt lat="42.94919" lon="-0.44331">
        <ele>690.84448242188</ele>
        <time>2015-03-30T14:23:50Z</time>
      </trkpt>
      <trkpt lat="42.94918" lon="-0.44327">
        <ele>691.3251953125</ele>
        <time>2015-03-30T14:24:42Z</time>
      </trkpt>
      <trkpt lat="42.94917" lon="-0.44329">
        <ele>691.3251953125</ele>
        <time>2015-03-30T14:25:04Z</time>
      </trkpt>
      <trkpt lat="42.94915" lon="-0.44325">
        <ele>692.76733398438</ele>
        <time>2015-03-30T14:25:32Z</time>
      </trkpt>
      <trkpt lat="42.94909" lon="-0.44324">
        <ele>693.24780273438</ele>
        <time>2015-03-30T14:25:40Z</time>
      </trkpt>
      <trkpt lat="42.94907" lon="-0.44321">
        <ele>692.76733398438</ele>
        <time>2015-03-30T14:25:44Z</time>
      </trkpt>
      <trkpt lat="42.94884" lon="-0.44318">
        <ele>694.20922851562</ele>
        <time>2015-03-30T14:26:02Z</time>
      </trkpt>
      <trkpt lat="42.9488" lon="-0.44317">
        <ele>694.68969726562</ele>
        <time>2015-03-30T14:26:21Z</time>
      </trkpt>
      <trkpt lat="42.94882" lon="-0.44326">
        <ele>693.728515625</ele>
        <time>2015-03-30T14:27:53Z</time>
      </trkpt>
      <trkpt lat="42.94883" lon="-0.44328">
        <ele>694.20922851562</ele>
        <time>2015-03-30T14:28:04Z</time>
      </trkpt>
      <trkpt lat="42.94879" lon="-0.44326">
        <ele>694.68969726562</ele>
        <time>2015-03-30T14:28:20Z</time>
      </trkpt>
      <trkpt lat="42.94881" lon="-0.44326">
        <ele>693.728515625</ele>
        <time>2015-03-30T14:28:57Z</time>
      </trkpt>
      <trkpt lat="42.9489" lon="-0.44326">
        <ele>693.24780273438</ele>
        <time>2015-03-30T14:29:07Z</time>
      </trkpt>
      <trkpt lat="42.94911" lon="-0.44327">
        <ele>691.3251953125</ele>
        <time>2015-03-30T14:29:26Z</time>
      </trkpt>
      <trkpt lat="42.94928" lon="-0.44326">
        <ele>689.88330078125</ele>
        <time>2015-03-30T14:29:43Z</time>
      </trkpt>
      <trkpt lat="42.94935" lon="-0.44321">
        <ele>689.88330078125</ele>
        <time>2015-03-30T14:29:52Z</time>
      </trkpt>
      <trkpt lat="42.94942" lon="-0.44326">
        <ele>690.84448242188</ele>
        <time>2015-03-30T14:30:10Z</time>
      </trkpt>
      <trkpt lat="42.94946" lon="-0.44335">
        <ele>691.80590820312</ele>
        <time>2015-03-30T14:30:18Z</time>
      </trkpt>
      <trkpt lat="42.9496" lon="-0.44336">
        <ele>693.24780273438</ele>
        <time>2015-03-30T14:30:32Z</time>
      </trkpt>
      <trkpt lat="42.94956" lon="-0.44338">
        <ele>692.76733398438</ele>
        <time>2015-03-30T14:30:42Z</time>
      </trkpt>
      <trkpt lat="42.9494" lon="-0.4433">
        <ele>690.84448242188</ele>
        <time>2015-03-30T14:30:58Z</time>
      </trkpt>
      <trkpt lat="42.94938" lon="-0.44327">
        <ele>690.36401367188</ele>
        <time>2015-03-30T14:31:01Z</time>
      </trkpt>
      <trkpt lat="42.94928" lon="-0.44324">
        <ele>690.84448242188</ele>
        <time>2015-03-30T14:31:15Z</time>
      </trkpt>
      <trkpt lat="42.94928" lon="-0.44324">
        <ele>691.3251953125</ele>
        <time>2015-03-30T14:31:16Z</time>
      </trkpt>
      <trkpt lat="42.94934" lon="-0.44317">
        <ele>690.36401367188</ele>
        <time>2015-03-30T14:32:30Z</time>
      </trkpt>
      <trkpt lat="42.94934" lon="-0.4432">
        <ele>688.92211914062</ele>
        <time>2015-03-30T14:33:12Z</time>
      </trkpt>
      <trkpt lat="42.9494" lon="-0.44333">
        <ele>691.3251953125</ele>
        <time>2015-03-30T14:33:23Z</time>
      </trkpt>
      <trkpt lat="42.94947" lon="-0.44338">
        <ele>691.80590820312</ele>
        <time>2015-03-30T14:33:30Z</time>
      </trkpt>
      <trkpt lat="42.94961" lon="-0.44346">
        <ele>692.76733398438</ele>
        <time>2015-03-30T14:33:44Z</time>
      </trkpt>
      <trkpt lat="42.94969" lon="-0.44356">
        <ele>692.28662109375</ele>
        <time>2015-03-30T14:33:56Z</time>
      </trkpt>
      <trkpt lat="42.94975" lon="-0.44346">
        <ele>691.80590820312</ele>
        <time>2015-03-30T14:34:13Z</time>
      </trkpt>
      <trkpt lat="42.94982" lon="-0.44333">
        <ele>692.76733398438</ele>
        <time>2015-03-30T14:34:34Z</time>
      </trkpt>
      <trkpt lat="42.9498" lon="-0.44337">
        <ele>692.76733398438</ele>
        <time>2015-03-30T14:34:57Z</time>
      </trkpt>
      <trkpt lat="42.94982" lon="-0.44336">
        <ele>693.24780273438</ele>
        <time>2015-03-30T14:35:16Z</time>
      </trkpt>
      <trkpt lat="42.94977" lon="-0.44342">
        <ele>693.24780273438</ele>
        <time>2015-03-30T14:36:07Z</time>
      </trkpt>
      <trkpt lat="42.9498" lon="-0.4434">
        <ele>692.76733398438</ele>
        <time>2015-03-30T14:36:20Z</time>
      </trkpt>
      <trkpt lat="42.94981" lon="-0.44339">
        <ele>693.24780273438</ele>
        <time>2015-03-30T14:36:28Z</time>
      </trkpt>
      <trkpt lat="42.94979" lon="-0.44339">
        <ele>693.24780273438</ele>
        <time>2015-03-30T14:36:43Z</time>
      </trkpt>
      <trkpt lat="42.94981" lon="-0.44333">
        <ele>692.76733398438</ele>
        <time>2015-03-30T14:37:25Z</time>
      </trkpt>
      <trkpt lat="42.94982" lon="-0.44334">
        <ele>691.80590820312</ele>
        <time>2015-03-30T14:37:34Z</time>
      </trkpt>
      <trkpt lat="42.94986" lon="-0.44339">
        <ele>692.76733398438</ele>
        <time>2015-03-30T14:37:43Z</time>
      </trkpt>
      <trkpt lat="42.94995" lon="-0.44334">
        <ele>693.728515625</ele>
        <time>2015-03-30T14:37:57Z</time>
      </trkpt>
      <trkpt lat="42.95" lon="-0.44332">
        <ele>693.24780273438</ele>
        <time>2015-03-30T14:38:09Z</time>
      </trkpt>
      <trkpt lat="42.95006" lon="-0.44331">
        <ele>693.24780273438</ele>
        <time>2015-03-30T14:38:23Z</time>
      </trkpt>
      <trkpt lat="42.95008" lon="-0.44326">
        <ele>692.28662109375</ele>
        <time>2015-03-30T14:38:48Z</time>
      </trkpt>
      <trkpt lat="42.95017" lon="-0.4432">
        <ele>691.80590820312</ele>
        <time>2015-03-30T14:39:36Z</time>
      </trkpt>
      <trkpt lat="42.95021" lon="-0.44315">
        <ele>690.84448242188</ele>
        <time>2015-03-30T14:39:43Z</time>
      </trkpt>
      <trkpt lat="42.95023" lon="-0.44314">
        <ele>689.88330078125</ele>
        <time>2015-03-30T14:39:45Z</time>
      </trkpt>
      <trkpt lat="42.95026" lon="-0.44306">
        <ele>688.92211914062</ele>
        <time>2015-03-30T14:39:58Z</time>
      </trkpt>
      <trkpt lat="42.95034" lon="-0.44296">
        <ele>688.44140625</ele>
        <time>2015-03-30T14:40:13Z</time>
      </trkpt>
      <trkpt lat="42.95039" lon="-0.44286">
        <ele>687.47998046875</ele>
        <time>2015-03-30T14:40:23Z</time>
      </trkpt>
      <trkpt lat="42.95039" lon="-0.44295">
        <ele>690.36401367188</ele>
        <time>2015-03-30T14:40:39Z</time>
      </trkpt>
      <trkpt lat="42.95047" lon="-0.443">
        <ele>693.728515625</ele>
        <time>2015-03-30T14:40:50Z</time>
      </trkpt>
      <trkpt lat="42.95035" lon="-0.44312">
        <ele>689.88330078125</ele>
        <time>2015-03-30T14:41:19Z</time>
      </trkpt>
      <trkpt lat="42.95026" lon="-0.4432">
        <ele>688.92211914062</ele>
        <time>2015-03-30T14:41:31Z</time>
      </trkpt>
      <trkpt lat="42.95026" lon="-0.44318">
        <ele>688.44140625</ele>
        <time>2015-03-30T14:41:42Z</time>
      </trkpt>
      <trkpt lat="42.95032" lon="-0.44306">
        <ele>687.47998046875</ele>
        <time>2015-03-30T14:42:01Z</time>
      </trkpt>
      <trkpt lat="42.95038" lon="-0.44291">
        <ele>686.99926757812</ele>
        <time>2015-03-30T14:42:14Z</time>
      </trkpt>
      <trkpt lat="42.95052" lon="-0.44266">
        <ele>685.55737304688</ele>
        <time>2015-03-30T14:42:44Z</time>
      </trkpt>
      <trkpt lat="42.95055" lon="-0.44259">
        <ele>686.51879882812</ele>
        <time>2015-03-30T14:42:54Z</time>
      </trkpt>
      <trkpt lat="42.95062" lon="-0.44243">
        <ele>686.0380859375</ele>
        <time>2015-03-30T14:43:09Z</time>
      </trkpt>
      <trkpt lat="42.95066" lon="-0.44238">
        <ele>684.11547851562</ele>
        <time>2015-03-30T14:43:15Z</time>
      </trkpt>
      <trkpt lat="42.95068" lon="-0.4423">
        <ele>682.67333984375</ele>
        <time>2015-03-30T14:43:24Z</time>
      </trkpt>
      <trkpt lat="42.95072" lon="-0.44219">
        <ele>682.19262695312</ele>
        <time>2015-03-30T14:43:38Z</time>
      </trkpt>
      <trkpt lat="42.95074" lon="-0.4421">
        <ele>681.7119140625</ele>
        <time>2015-03-30T14:43:49Z</time>
      </trkpt>
      <trkpt lat="42.95081" lon="-0.44191">
        <ele>679.78930664062</ele>
        <time>2015-03-30T14:44:03Z</time>
      </trkpt>
      <trkpt lat="42.95081" lon="-0.44188">
        <ele>679.78930664062</ele>
        <time>2015-03-30T14:44:06Z</time>
      </trkpt>
      <trkpt lat="42.9509" lon="-0.4418">
        <ele>679.78930664062</ele>
        <time>2015-03-30T14:44:15Z</time>
      </trkpt>
      <trkpt lat="42.95105" lon="-0.44174">
        <ele>679.78930664062</ele>
        <time>2015-03-30T14:44:27Z</time>
      </trkpt>
      <trkpt lat="42.9511" lon="-0.44169">
        <ele>679.78930664062</ele>
        <time>2015-03-30T14:44:36Z</time>
      </trkpt>
      <trkpt lat="42.95121" lon="-0.44157">
        <ele>678.828125</ele>
        <time>2015-03-30T14:46:08Z</time>
      </trkpt>
      <trkpt lat="42.9513" lon="-0.44156">
        <ele>679.30859375</ele>
        <time>2015-03-30T14:47:22Z</time>
      </trkpt>
      <trkpt lat="42.9514" lon="-0.44155">
        <ele>680.27001953125</ele>
        <time>2015-03-30T14:47:31Z</time>
      </trkpt>
      <trkpt lat="42.95154" lon="-0.44154">
        <ele>679.78930664062</ele>
        <time>2015-03-30T14:47:45Z</time>
      </trkpt>
      <trkpt lat="42.95158" lon="-0.44152">
        <ele>677.86669921875</ele>
        <time>2015-03-30T14:47:54Z</time>
      </trkpt>
      <trkpt lat="42.95167" lon="-0.44148">
        <ele>677.86669921875</ele>
        <time>2015-03-30T14:48:04Z</time>
      </trkpt>
      <trkpt lat="42.95179" lon="-0.44145">
        <ele>675.94409179688</ele>
        <time>2015-03-30T14:48:15Z</time>
      </trkpt>
      <trkpt lat="42.95189" lon="-0.44141">
        <ele>675.46337890625</ele>
        <time>2015-03-30T14:48:25Z</time>
      </trkpt>
      <trkpt lat="42.952" lon="-0.4413">
        <ele>674.50219726562</ele>
        <time>2015-03-30T14:48:38Z</time>
      </trkpt>
      <trkpt lat="42.95211" lon="-0.44121">
        <ele>674.021484375</ele>
        <time>2015-03-30T14:48:48Z</time>
      </trkpt>
      <trkpt lat="42.95213" lon="-0.44118">
        <ele>674.021484375</ele>
        <time>2015-03-30T14:48:50Z</time>
      </trkpt>
      <trkpt lat="42.9523" lon="-0.44108">
        <ele>674.98291015625</ele>
        <time>2015-03-30T14:49:04Z</time>
      </trkpt>
      <trkpt lat="42.95245" lon="-0.44099">
        <ele>675.94409179688</ele>
        <time>2015-03-30T14:49:15Z</time>
      </trkpt>
      <trkpt lat="42.95251" lon="-0.44094">
        <ele>675.94409179688</ele>
        <time>2015-03-30T14:49:25Z</time>
      </trkpt>
      <trkpt lat="42.95257" lon="-0.4409">
        <ele>674.98291015625</ele>
        <time>2015-03-30T14:49:39Z</time>
      </trkpt>
      <trkpt lat="42.95263" lon="-0.44085">
        <ele>672.09887695312</ele>
        <time>2015-03-30T14:49:47Z</time>
      </trkpt>
      <trkpt lat="42.95271" lon="-0.44074">
        <ele>671.1376953125</ele>
        <time>2015-03-30T14:49:59Z</time>
      </trkpt>
      <trkpt lat="42.95279" lon="-0.44067">
        <ele>670.17626953125</ele>
        <time>2015-03-30T14:50:09Z</time>
      </trkpt>
      <trkpt lat="42.95295" lon="-0.44049">
        <ele>669.69580078125</ele>
        <time>2015-03-30T14:50:23Z</time>
      </trkpt>
      <trkpt lat="42.95305" lon="-0.44043">
        <ele>667.77270507812</ele>
        <time>2015-03-30T14:50:33Z</time>
      </trkpt>
      <trkpt lat="42.95311" lon="-0.4404">
        <ele>667.29223632812</ele>
        <time>2015-03-30T14:50:39Z</time>
      </trkpt>
      <trkpt lat="42.95317" lon="-0.4404">
        <ele>667.29223632812</ele>
        <time>2015-03-30T14:50:43Z</time>
      </trkpt>
      <trkpt lat="42.95338" lon="-0.44026">
        <ele>666.8115234375</ele>
        <time>2015-03-30T14:50:56Z</time>
      </trkpt>
      <trkpt lat="42.95347" lon="-0.44023">
        <ele>665.85034179688</ele>
        <time>2015-03-30T14:51:05Z</time>
      </trkpt>
      <trkpt lat="42.95357" lon="-0.44018">
        <ele>663.92749023438</ele>
        <time>2015-03-30T14:51:16Z</time>
      </trkpt>
      <trkpt lat="42.9536" lon="-0.44017">
        <ele>662.48559570312</ele>
        <time>2015-03-30T14:51:19Z</time>
      </trkpt>
      <trkpt lat="42.95368" lon="-0.44015">
        <ele>661.04370117188</ele>
        <time>2015-03-30T14:51:26Z</time>
      </trkpt>
      <trkpt lat="42.95383" lon="-0.44015">
        <ele>660.56298828125</ele>
        <time>2015-03-30T14:51:39Z</time>
      </trkpt>
      <trkpt lat="42.95386" lon="-0.44005">
        <ele>660.56298828125</ele>
        <time>2015-03-30T14:52:06Z</time>
      </trkpt>
      <trkpt lat="42.95388" lon="-0.44009">
        <ele>659.60180664062</ele>
        <time>2015-03-30T14:54:10Z</time>
      </trkpt>
      <trkpt lat="42.95388" lon="-0.44006">
        <ele>660.56298828125</ele>
        <time>2015-03-30T14:54:18Z</time>
      </trkpt>
      <trkpt lat="42.95385" lon="-0.43991">
        <ele>661.04370117188</ele>
        <time>2015-03-30T14:54:31Z</time>
      </trkpt>
      <trkpt lat="42.95379" lon="-0.43977">
        <ele>660.08227539062</ele>
        <time>2015-03-30T14:54:44Z</time>
      </trkpt>
      <trkpt lat="42.95379" lon="-0.43958">
        <ele>660.56298828125</ele>
        <time>2015-03-30T14:54:58Z</time>
      </trkpt>
      <trkpt lat="42.95376" lon="-0.43936">
        <ele>661.04370117188</ele>
        <time>2015-03-30T14:55:17Z</time>
      </trkpt>
      <trkpt lat="42.95382" lon="-0.43929">
        <ele>661.5244140625</ele>
        <time>2015-03-30T14:55:37Z</time>
      </trkpt>
      <trkpt lat="42.95394" lon="-0.43923">
        <ele>662.48559570312</ele>
        <time>2015-03-30T14:55:51Z</time>
      </trkpt>
      <trkpt lat="42.95399" lon="-0.43922">
        <ele>662.00512695312</ele>
        <time>2015-03-30T14:55:56Z</time>
      </trkpt>
      <trkpt lat="42.95408" lon="-0.43921">
        <ele>662.00512695312</ele>
        <time>2015-03-30T14:56:07Z</time>
      </trkpt>
      <trkpt lat="42.95412" lon="-0.43917">
        <ele>662.96630859375</ele>
        <time>2015-03-30T14:56:22Z</time>
      </trkpt>
      <trkpt lat="42.95429" lon="-0.43917">
        <ele>664.88891601562</ele>
        <time>2015-03-30T14:56:39Z</time>
      </trkpt>
      <trkpt lat="42.95442" lon="-0.43915">
        <ele>665.85034179688</ele>
        <time>2015-03-30T14:56:52Z</time>
      </trkpt>
      <trkpt lat="42.95453" lon="-0.43911">
        <ele>667.29223632812</ele>
        <time>2015-03-30T14:57:06Z</time>
      </trkpt>
      <trkpt lat="42.95438" lon="-0.43912">
        <ele>665.36962890625</ele>
        <time>2015-03-30T14:57:45Z</time>
      </trkpt>
      <trkpt lat="42.95413" lon="-0.43917">
        <ele>662.96630859375</ele>
        <time>2015-03-30T14:58:07Z</time>
      </trkpt>
      <trkpt lat="42.95404" lon="-0.43919">
        <ele>662.00512695312</ele>
        <time>2015-03-30T14:58:15Z</time>
      </trkpt>
      <trkpt lat="42.95384" lon="-0.43924">
        <ele>662.00512695312</ele>
        <time>2015-03-30T14:58:32Z</time>
      </trkpt>
      <trkpt lat="42.95359" lon="-0.4393">
        <ele>663.44702148438</ele>
        <time>2015-03-30T14:58:53Z</time>
      </trkpt>
      <trkpt lat="42.95343" lon="-0.43929">
        <ele>665.85034179688</ele>
        <time>2015-03-30T14:59:09Z</time>
      </trkpt>
      <trkpt lat="42.95323" lon="-0.43941">
        <ele>667.29223632812</ele>
        <time>2015-03-30T14:59:28Z</time>
      </trkpt>
      <trkpt lat="42.95305" lon="-0.43962">
        <ele>668.25366210938</ele>
        <time>2015-03-30T14:59:49Z</time>
      </trkpt>
      <trkpt lat="42.95303" lon="-0.43967">
        <ele>667.77270507812</ele>
        <time>2015-03-30T15:00:06Z</time>
      </trkpt>
      <trkpt lat="42.95299" lon="-0.43973">
        <ele>668.25366210938</ele>
        <time>2015-03-30T15:00:13Z</time>
      </trkpt>
    </trkseg>
  </trk>
</gpx>